     2              OBSERVATION DATA    GPS                 RINEX VERSION / TYPE
ASRINEXO V2.4.4 UX USGS 23-APR-96 11:17                     PGM / RUN BY / DATE
                                                            COMMENT
Original Marker Name: brin Brink_2_1967_USC&GS              COMMENT
Campaign Name: usgs.cajon.monit                             COMMENT
4-Character Station Name: BRIN                              COMMENT
6-Character Antenna Code: ASHL12                            COMMENT
Vertical Measurement Point: BBE                             COMMENT
Vertical Offset to Rinex Ref. Point: 0.0595                 COMMENT
Radial Measurement Point: EGP                               COMMENT
Radial Offset to Rinex Ref. Point: 0.1424                   COMMENT
Antenna Height from Field Measurement: 1.2470 m             COMMENT
Additional Antenna Identification Info.:                    COMMENT
Original Ashtech L1/L2                                      COMMENT
Original XYZ: -2414257.5400 -4710241.8600 3548141.3200      COMMENT
New XYZ position is based on association with SCEC monument COMMENT
E1D0R7W7+0011. Position of that monument is believed to be  COMMENT
valid to within 1 m horizontally; vertical accuracy         COMMENT
should be no worse than 3-times this value.                 COMMENT
                                                            COMMENT
Revised Rinex header created by UCSD GPS archive for        COMMENT
GSAC on 10-Nov-1999 (1999:314) 21:17:48 GMT                 COMMENT
For assistance contact dagnew@ucsd.edu or hjohnson@ucsd.edu COMMENT
                                                            COMMENT
BRIN BRINK_2_1967_USC&GS                                    MARKER NAME
GDH US GEOLOGICAL SURVEY                                    OBSERVER / AGENCY
597 ASHTECH Z-XII3 1F00                                     REC # / TYPE / VERS
598 ASHTECH GEODETIC L                                      ANT # / TYPE
 -2414401.0000 -4710206.0000  3548086.0000                  APPROX POSITION XYZ
        1.1793        0.0000        0.0000                  ANTENNA: DELTA H/E/N
     1     1     0                                          WAVELENGTH FACT L1/2
     5    C1    L1    L2    P1    P2                        # / TYPES OF OBSERV
    30                                                      INTERVAL
  1996     4    18    16     1    0.000000                  TIME OF FIRST OBS
  1996     4    18    23     0   30.000000                  TIME OF LAST OBS
                                                            END OF HEADER
 96  4 18 16  1  0.0000000  0  8 16  2 27  3 31 19 18 29
  21214121.925      -22581.79319
  19908838.222      -56683.43819
  18865375.069      -31248.87419
  20976254.478        3550.74619
  18784676.238      -12057.20719
  17632472.045      -16099.36819
  17937302.419        3410.50319
  20676611.210       14458.06719
 96  4 18 16  1 30.0000000  0  8 16  2 27  3 31 19 18 29
  21199240.448     -100817.726 9    -65598.77659                  21199235.4184
  19886697.810     -173034.627 9
  18844746.133     -139663.52759    -90929.75359  18844738.6774   18844744.0444
  20978466.315       15166.065 9      9777.05859                  20978467.8654
  18776532.902      -54844.40859    -35876.48459  18776529.8224   18776535.5994
  17621373.486      -74437.22159    -48911.27959  17621368.0664   17621373.2814
  17939449.176       14691.35259      9497.63759  17939446.4274   17939451.3384
  20686454.956       66201.268 9
 96  4 18 16  2  0.0000000  0  8 16  2 27  3 31 19 18 29
  24182090.460     -179992.08259   -127293.07649  24182088.1354   24182093.5644
  22862256.487     -290569.771 9
  21821784.410     -249405.85349   -176443.25049  21821780.1404   21821785.0274
  23978392.394       25710.53459     17993.51049  23978393.4114   23978399.1324
  21766154.672      -98482.18049    -69879.93949  21766150.4894   21766155.7744
  20607952.763     -134057.23249    -95368.44249  20607947.2144   20607952.6664
  20939328.861       24964.18949     17502.43149  20939325.8324   20939331.0584
  23693989.025      116655.610 9     82759.80759  23693989.2464
 96  4 18 16  2 30.0000000  0  8 16  2 27  3 31 19 18 29
  24166835.030     -260126.75859   -189735.68459  24166838.5114   24166844.4994
  22839656.702     -409332.470 9    -17810.63459  22839655.8404
  21800643.177     -360511.58359   -263019.14059  21800637.6384   21800642.7074
  23980208.925       35227.79359     25409.53559  23980205.0374   23980210.2094
  21757691.006     -142956.07959   -104534.92859  21757686.6044   21757692.1134
  20596360.294     -194971.74559   -142834.29459  20596355.4974   20596361.2724
  20941101.103       34260.29559     24746.12659  20941094.9374   20941100.3044
  23703359.307      165896.64859    121129.39759  23703352.9604   23703359.5914
 96  4 18 16  3  0.0000000  0  8 16  2 27  3 31 19 18 29
  24151425.323     -341124.15049   -252850.54149  24151425.2304   24151432.2134
  22816836.356     -529230.00659   -111237.24659  22816834.1824   22816840.2164
  21779258.944     -472865.07949   -350567.31049  21779257.2304   21779262.2954
  23981839.477       43805.97049     32093.81049  23981837.0994   23981842.4434
  21749083.692     -188188.54949   -139781.00349  21749079.7554   21749085.1364
  20584540.524     -257080.85649   -191231.00349  20584536.3784   20584541.8854
  20942691.056       42635.29349     31272.08649  20942688.2994   20942693.6904
  23712507.285      213979.91859    158596.81849  23712503.1854   23712508.4804
 96  4 18 16  3 30.0000000  0  8 16  2 27  3 31 19 18 29
  24135864.795     -422921.86849   -316589.03449  24135859.3944   24135866.2784
  22793815.800     -650194.16049   -205495.00549  22793816.3974   22793821.5304
  21757652.099     -586405.02349   -439039.98549  21757651.0864   21757656.0944
  23983309.696       51539.69249     38120.06849  23983308.1494   23983314.1214
  21740346.727     -234100.53549   -175556.57849  21740343.5574   21740348.2464
  20572511.253     -320284.71849   -240480.76549  20572509.4664   20572514.8574
  20944127.125       50167.24449     37141.13249  20944121.5994   20944127.0124
  23721450.031      260975.94249    195217.05149  23721446.0584   23721452.0084
 96  4 18 16  4  0.0000000  0  8 16  2 27  3 31 19 18 29
  24120165.381     -505444.38349   -380892.28049  24120155.6334   24120162.1004
  22770615.610     -772137.07249   -300515.43749  22770610.9784   22770616.4664
  21735834.875     -701058.74649   -528380.53749  21735833.1504   21735837.9074
  23984640.203       58523.72549     43562.11749  23984637.4374   23984643.5234
  21731494.534     -280619.37849   -211805.01649  21731490.6164   21731495.8944
  20560295.151     -384486.36649   -290508.02449  20560292.2774   20560297.4894
  20945411.648       56922.88349     42405.24349  20945407.4484   20945412.5384
  23730194.438      306930.30649    231025.59449  23730189.1734   23730197.1554
 96  4 18 16  4 30.0000000  0  8 16  2 27  3 31 19 18 29
  24104329.723     -588613.28549   -445699.22249  24104329.6594   24104337.2684
  22747233.240     -894993.22149   -396247.48549  22747232.0514   22747237.9934
  21713824.948     -816743.90949   -618524.81649  21713819.1504   21713824.1064
  23985842.048       64832.66449     48478.14149  23985838.9004   23985843.9634
  21722540.543     -327664.28649   -248463.40249  21722537.8804   21722544.0914
  20547906.449     -449591.43549   -341239.24749  20547903.1634   20547908.3904
  20946562.153       62973.99549     47120.37949  20946558.9534   20946564.2164
  23738753.848      351904.03149    266069.97649  23738749.0514   23738755.0764
 96  4 18 16  5  0.0000000  0  8 16  2 27  3 31 19 18 29
  24088397.514     -672361.55849   -510957.62849  24088392.4084   24088400.3264
  22723699.927    -1018694.83749   -492638.34049  22723692.7114   22723698.4694
  21691624.021     -933396.61049   -709423.01549  21691621.1874   21691625.9344
  23986925.008       70535.83249     52922.15149  23986923.0854   23986928.6774
  21713501.428     -375170.77449   -285481.42749  21713498.6964   21713503.8284
  20535359.474     -515523.71449   -392615.05649  20535357.0404   20535362.4354
  20947591.825       68383.30349     51335.38749  20947588.3134   20947593.9144
  23747131.992      395949.57849    300391.12849  23747131.3754   23747136.6444
 96  4 18 16  5 30.0000000  0  8 16  2 27  3 31 19 18 29
  24072363.286     -756617.08049   -576611.30149  24072360.4854   24072366.5764
  22700009.577    -1143163.35049   -589626.76749  22700006.7054   22700013.0804
  21669255.903    -1050952.19849   -801024.76249  21669251.2664   21669256.0444
  23987907.259       75683.65449     56933.43849  23987904.5644   23987909.5944
  21704386.975     -423072.20849   -322807.23549  21704383.2414   21704387.3704
  20522666.137     -582229.11549   -444593.28949  20522663.3384   20522668.2944
  20948511.272       73213.05549     55098.81049  20948507.3944   20948512.7264
  23755349.236      439120.33449    334030.61049  23755346.0274   23755352.5014
 96  4 18 16  6  0.0000000  0  8 16  2 27  3 31 19 18 29
  24056233.743     -841320.93049   -642614.29949  24056240.8954   24056248.0044
  22676189.282    -1268345.04049   -687170.92149  22676184.7154   22676191.8344
  21646723.254    -1169356.16349   -893287.58149  21646719.6124   21646724.9424
  23988785.536       80300.04149     60530.59649  23988782.5474   23988789.0754
  21695204.274     -471321.20049   -360403.84549  21695201.4974   21695207.0354
  20509830.088     -649678.37349   -497151.15249  20509828.1034   20509833.4774
  20949327.015       77502.00549     58440.83249  20949323.2144   20949328.9744
  23763408.611      481476.73049    367035.52649  23763406.6214   23763411.9004
 96  4 18 16  6 30.0000000  0  8 16  2 27  3 31 19 18 29
  24040055.493     -926435.81649   -708937.59149  24040044.3394   24040052.0234
  22652239.308    -1394200.15449   -785239.83349  22652236.1634   22652242.5474
  21624036.427    -1288567.41149   -986179.45849  21624034.6154   21624039.5464
  23989564.025       84403.89949     63728.36149  23989562.1084   23989569.1664
  21685963.732     -519885.31349   -398246.02049  21685960.0244   21685965.5834
  20496857.274     -717850.63049   -550272.39549  20496855.1554   20496861.0854
  20950046.973       81291.01449     61393.28149  20950044.5374   20950049.8954
  23771329.854      523092.21949    399463.12349  23771325.3444   23771332.2784
 96  4 18 16  7  0.0000000  0  8 16  2 27  3 31 19 18 29
  24023779.613    -1011926.00849   -775553.33349  24023777.4814   24023783.6854
  22628172.465    -1520685.95649   -883800.17649  22628166.4244   22628172.6594
  21601202.927    -1408567.72849  -1079686.18449  21601198.9834   21601204.1054
  23990255.232       88032.75349     66556.02349  23990252.3294   23990258.9384
  21676666.206     -568740.07149   -436314.67349  21676663.9614   21676668.4614
  20483751.135     -786732.50849   -603946.59149  20483747.6824   20483752.9244
  20950679.356       84614.32049     63982.85949  20950677.3314   20950682.5044
  23779111.696      564008.50449    431345.86749  23779111.5564   23779116.7504
 96  4 18 16  7 30.0000000  0  8 16  2 27  3 31 19 18 29
  24007443.444    -1097754.10549   -842432.35349  24007442.8754   24007450.7244
  22603983.595    -1647772.67249   -982828.78249  22603982.6274   22603988.7344
  21578218.892    -1529343.08749  -1173796.85249  21578216.5424   21578221.3724
  23990855.733       91188.91249     69015.31749  23990853.1154   23990859.2684
  21667318.594     -617864.43549   -474593.39949  21667315.9714   21667320.4724
  20470511.303     -856304.38849   -658158.44949  20470508.3944   20470513.9114
  20951232.042       87503.90649     66234.46149  20951227.1574   20951232.2384
  23786772.436      604265.63249    462715.00149  23786772.5774   23786777.5064
 96  4 18 16  8  0.0000000  0  8 16  2 27  3 31 19 18 29
  23991058.916    -1183890.24349   -909551.43849  23991052.0214   23991060.0804
  22579691.509    -1775430.48649  -1082302.39049  22579690.3634   22579696.3464
  21555091.766    -1650881.51349  -1268502.10849  21555088.4634   21555093.6544
  23991374.369       93900.51249     71128.22349  23991370.2964   23991376.0524
  21657921.913     -667242.22449   -513069.58349  21657918.6584   21657924.2284
  20457145.090     -926541.40449   -712888.59849  20457143.0814   20457148.5714
  20951703.062       89991.89349     68173.12049  20951700.5494   20951705.6584
  23794321.289      643901.84849    493600.30149  23794314.3934   23794321.5294
 96  4 18 16  8 29.9990000  0  8 16  2 27  3 31 19 18 29
  23974611.646    -1270301.08649   -976884.56449  23974609.2974   23974616.2564
  22555303.479    -1903617.56649  -1182188.40449  22555297.0594   22555302.7304
  21531821.774    -1773157.20449  -1363781.86249  21531820.1464   21531825.5274
  23991812.635       96213.83649     72930.79749  23991810.8004   23991815.6154
  21648481.942     -716851.16349   -551725.91249  21648478.8214   21648484.4764
  20443661.022     -997405.71649   -768107.53949  20443657.9824   20443663.0384
  20952107.466       92126.57349     69836.48549  20952106.6354   20952111.8854
  23801743.660      682925.33849    524008.15749  23801741.3634   23801746.9884
 96  4 18 16  8 59.9990000  0  8 16  2 27  3 31 19 18 29
  23958121.711    -1356954.22849  -1044406.49549  23958120.0064   23958126.7044
  22530808.932    -2032317.33149  -1282473.91749  22530806.8804   22530812.9854
  21508419.238    -1896152.98649  -1459622.72849  21508414.5764   21508419.8994
  23992182.951       98155.98449     74444.14049  23992179.7184   23992185.5104
  21639007.255     -766644.87249   -590526.20349  21639003.9624   21639008.9034
  20430061.396    -1068869.17449   -823793.35349  20430058.5194   20430064.0854
  20952457.307       93955.79449     71261.82749  20952454.8084   20952460.1814
  23809055.692      721341.27649    553942.57349  23809052.2604   23809056.5924
 96  4 18 16  9 29.9990000  0  8 16  2 27  3 31 19 18 29
  23941586.919    -1443841.05849  -1112110.52249  23941585.6974   23941591.9404
  22506224.989    -2161516.24649  -1383148.38349  22506220.5114   22506227.2164
  21484879.597    -2019837.44949  -1556000.22749  21484878.6144   21484883.3614
  23992484.134       99733.59549     75673.42849  23992481.2874   23992485.4754
  21629500.232     -816601.91949   -629453.78549  21629497.3324   21629502.6024
  20416355.739    -1140895.05449   -879917.41449  20416352.8854   20416357.8874
  20952751.354       95500.01949     72465.10249  20952748.9304   20952754.0694
  23816248.969      759154.99749    583407.74549  23816246.9914   23816253.5564
 96  4 18 16  9 59.9990000  0  8 16  2 27  3 31 19 18 29
  23925014.787    -1530949.64049  -1179987.35349  23925009.2374   23925016.3394
  22481544.261    -2291201.55149  -1484201.85549  22481542.4794   22481548.9484
  21461223.221    -2144166.34349  -1652879.88149  21461219.5294   21461224.2694
  23992723.395      100997.19249     76658.03449  23992720.9984   23992726.8584
  21619968.052     -866685.20449   -668479.71749  21619966.2124   21619971.6154
  20402552.458    -1213434.19149   -936441.41449  20402548.9854   20402554.1794
  20952997.164       96788.63849     73469.21549  20952993.7124   20952998.8754
  23823333.859      796378.71149    612413.15449  23823330.2964   23823336.9424
 96  4 18 16 10 29.9990000  0  8 16  2 27  3 31 19 18 29
  23908393.699    -1618273.59649  -1248031.99649  23908392.8154   23908399.0254
  22456773.680    -2421365.72949  -1585628.46949  22456772.9024   22456779.4994
  21437447.715    -2269090.68449  -1750223.51849  21437447.2054   21437451.9354
  23992905.411      101954.18449     77403.70849  23992903.8294   23992908.9484
  21610424.673     -916848.74249   -707568.19149  21610421.0014   21610425.2934
  20388656.963    -1286444.24649   -993332.36749  20388655.9334   20388660.8694
  20953195.504       97828.16249     74279.21549  20953192.1484   20953196.9054
  23830307.051      833017.08049    640962.47249  23830302.5804   23830309.8224
 96  4 18 16 10 59.9990000  0  8 16  2 27  3 31 19 18 29
  23891738.940    -1705814.15549  -1316245.43049  23891733.7774   23891741.4094
  22431918.579    -2552007.34249  -1687427.11249  22431912.7194   22431919.1494
  21413569.741    -2394579.99149  -1848007.38749  21413567.4874   21413572.2054
  23993027.340      102599.76249     77906.73149  23993024.5204   23993030.5494
  21600866.302     -967075.10049   -746705.59749  21600862.8324   21600867.7514
  20374679.916    -1359907.55549  -1050576.49849  20374676.5054   20374681.2574
  20953341.706       98600.08249     74880.70049  20953339.1404   20953343.4334
  23837168.058      869091.83649    669072.59549  23837166.8604   23837173.7884
 96  4 18 16 11 29.9990000  0  8 16  2 27  3 31 19 18 29
  23875038.427    -1793555.82649  -1384615.58649  23875037.5244   23875043.8734
  22406968.833    -2683095.59549  -1789573.78849  22406968.3884   22406973.5494
  21389591.279    -2520590.95949  -1946197.74549  21389588.5974   21389593.0954
  23993101.292      102983.12749     78205.40449  23993098.3024   23993104.8744
  21591296.985    -1017362.26749   -785890.40149  21591294.5474   21591299.0684
  20360617.530    -1433793.00249  -1108149.58049  20360616.3544   20360621.2314
  20953437.924       99093.75049     75265.36449  20953433.2954   20953437.6554
  23843934.392      904635.28949    696768.72249  23843931.1934   23843937.3614
 96  4 18 16 11 59.9990000  0  8 16  2 27  3 31 19 18 29
  23858307.010    -1881473.25349  -1453122.69349  23858306.9944   23858313.5584
  22381946.836    -2814600.81449  -1892045.36749  22381943.4644   22381949.6084
  21365515.897    -2647098.87449  -2044775.33449  21365514.7604   21365519.5694
  23993131.131      103130.78749     78320.43649  23993127.2284   23993132.1184
  21581717.080    -1067698.17649   -825113.19949  21581714.6054   21581720.0394
  20346479.217    -1508098.89749  -1166050.27549  20346476.4924   20346481.4734
  20953475.765       99310.78549     75434.47649  20953474.3434   20953479.2204
  23850600.345      939671.00549    724069.21149  23850597.4934   23850604.5194
 96  4 18 16 12 29.9990000  0  8 16  2 27  3 31 19 18 29
  23841538.458    -1969543.76249  -1521749.07249  23841547.2524   23841554.5234
  22356847.716    -2946483.46749  -1994811.05449  22356846.9254   22356853.0634
  21341350.889    -2774083.82849  -2143724.64749  21341350.2084   21341355.4354
  23993113.736      103056.19849     78262.27249  23993112.4764   23993117.8714
  21572130.335    -1118081.06349   -864372.59849  21572127.9124   21572133.0084
  20332257.349    -1582836.54749  -1224287.40849  20332254.4004   20332259.3214
  20953465.819       99255.06049     75391.04249  20953463.8744   20953468.7054
  23857178.814      974229.20649    750997.60449  23857176.0734   23857180.9744
 96  4 18 16 12 59.9990000  0  8 16  2 27  3 31 19 18 29
  23824772.432    -2057734.47349  -1590469.12349  23824765.1074   23824771.6394
  22331688.881    -3078712.74449  -2097846.83649  22331684.4404   22331690.3954
  21317097.421    -2901544.18949  -2243044.41149  21317095.1914   21317100.4614
  23993067.994      102804.22149     78065.90249  23993063.8434   23993071.1564
  21562533.618    -1168512.07849   -903669.50549  21562531.0624   21562536.1024
  20317951.343    -1658009.00549  -1282863.35849  20317949.8614   20317954.7744
  20953409.875       98957.32949     75159.03049  20953407.1244   20953412.1854
  23863666.412     1008341.63349    777578.65249  23863666.4754   23863672.9004
 96  4 18 16 13 29.9990000  0  8 16  2 27  3 31 19 18 29
  23807969.882    -2146025.01549  -1659266.95949  23807964.9244   23807971.7034
  22306458.482    -3211279.24249  -2201145.38749  22306457.4414   22306463.6134
  21292751.665    -3029484.68949  -2342738.30449  21292749.0404   21292754.3594
  23992987.708      102391.58349     77744.35149  23992986.9174   23992991.1764
  21552930.199    -1218978.94449   -942994.33649  21552927.0684   21552932.2224
  20303566.225    -1733606.59549  -1341770.56749  20303563.6884   20303568.7154
  20953313.061       98444.69149     74759.56049  20953309.6304   20953314.3954
  23870078.931     1042012.09549    803815.28449  23870074.4044   23870079.7104
 96  4 18 16 13 59.9990000  0  8 16  2 27  3 31 19 18 29
  23791157.193    -2234398.84649  -1728129.69449  23791148.0924   23791154.5054
  22281170.082    -3344172.36549  -2304698.45649  22281168.8894   22281174.9224
  21268311.240    -3157912.59149  -2442811.99949  21268310.0314   21268315.3344
  23992876.546      101802.65549     77285.42849  23992874.7824   23992879.3864
  21543323.731    -1269460.74249   -982330.80849  21543320.8684   21543325.9544
  20289102.903    -1809611.19049  -1400994.93249  20289100.5534   20289105.7404
  20953179.482       97756.46249     74223.26849  20953178.3874   20953183.6244
  23876395.281     1075237.60749    829705.24249  23876395.7734   23876403.3304
 96  4 18 16 14 29.9990000  0  8 16  2 27  3 31 19 18 29
  23774328.470    -2322840.87349  -1797045.55949  23774317.6564   23774324.9054
  22255820.611    -3477391.09349  -2408505.24049  22255818.2714   22255824.2984
  21243780.090    -3286829.57549  -2543266.79149  21243777.7924   21243783.0634
  23992733.373      101038.65049     76690.06349  23992729.4684   23992734.9114
  21533716.592    -1319943.26349  -1021667.84549  21533714.9684   21533719.8064
  20274565.727    -1886002.54549  -1460520.66549  20274563.7484   20274568.6554
  20953020.045       96923.66249     73574.31849  20953020.2744   20953024.9884
  23882639.558     1108020.83649    855250.53949  23882635.3054   23882640.9584
 96  4 18 16 14 59.9990000  0  8 16  2 27  3 31 19 18 29
  23757477.287    -2411330.30849  -1865998.34949  23757478.9194   23757485.8784
  22230413.217    -3610936.69949  -2512566.73049  22230405.4744   22230411.4444
  21219156.736    -3416228.39949  -2644097.04949  21219154.0704   21219159.2594
  23992549.883      100092.24749     75952.56949  23992549.0244   23992553.9064
  21524117.205    -1370400.03249  -1060984.80649  21524114.0684   21524118.6514
  20259961.836    -1962750.77149  -1520324.47649  20259959.1104   20259964.3074
  20952840.652       95970.96349     72831.93349  20952838.6344   20952843.9414
  23888789.940     1140360.98849    880450.56949  23888788.7584   23888795.7124
 96  4 18 16 15 29.9990000  0  8 16  2 27  3 31 19 18 29
  23740643.322    -2499856.10449  -1934979.49849  23740633.2954   23740640.1244
  22204936.360    -3744791.61649  -2616869.24649  22204933.2624   22204939.2374
  21194442.893    -3546091.51549  -2745289.08749  21194442.3404   21194447.1734
  23992332.145       98947.34449     75060.42549  23992330.1174   23992336.4634
  21514523.212    -1420806.32349  -1100262.43749  21514520.6454   21514526.4874
  20245293.713    -2039825.73049  -1580382.89049  20245292.5484   20245297.2734
  20952641.387       94914.58249     72008.74649  20952638.1164   20952643.0924
  23894862.008     1172262.79449    905309.02949  23894860.8374   23894867.0244
 96  4 18 16 15 59.9990000  0  8 16  2 27  3 31 19 18 29
  23723778.462    -2588410.83149  -2003983.17449  23723781.2604   23723788.7074
  22179408.310    -3878943.71449  -2721403.33449  22179405.1764   22179411.3344
  21169648.371    -3676404.12649  -2846831.39049  21169644.6854   21169649.3904
  23992078.496       97610.38749     74018.62249  23992076.1164   23992081.4444
  21504942.514    -1471156.83649  -1139496.61949  21504939.5114   21504944.8644
  20230564.884    -2117228.35149  -1640696.62449  20230563.1274   20230567.9594
  20952418.484       93756.30949     71106.18349  20952417.1314   20952422.9344
  23900854.100     1203741.49949    929837.79749  23900850.3574   23900857.5504
 96  4 18 16 16 29.9990000  0  8 16  2 27  3 31 19 18 29
  23706933.319    -2676992.67949  -2073008.01749  23706925.7184   23706931.4244
  22153827.291    -4013388.58949  -2826165.55049  22153820.8664   22153826.7384
  21144768.658    -3807143.84849  -2948706.49349  21144765.7154   21144770.4504
  23991789.911       96086.31849     72830.99749  23991787.4094   23991791.4784
  21495372.973    -1521441.52149  -1178679.49849  21495370.4804   21495375.5634
  20215772.746    -2194956.89649  -1701264.32649  20215771.8084   20215776.8464
  20952175.079       92481.64549     70112.91149  20952174.4724   20952180.2824
  23906768.232     1234830.80749    954063.14149  23906766.1914   23906773.5994
 96  4 18 16 16 59.9990000  0  8 16  2 27  3 31 19 18 29
  23690063.904    -2765595.02349  -2142048.79449  23690064.6044   23690072.1394
  22128184.751    -4148098.36249  -2931134.18949  22128186.5594   22128192.4624
  21119812.713    -3938285.81949  -3050895.03949  21119810.1244   21119814.5954
  23991466.166       94385.40549     71505.58949  23991462.8884   23991469.2204
  21485821.553    -1571634.72849  -1217791.09649  21485819.1404   21485824.2114
  20200925.233    -2272989.88249  -1762069.25249  20200922.8594   20200927.7434
  20951909.715       91083.65549     69023.53949  20951908.5564   20951914.2064
  23912613.690     1265545.49449    977996.57649  23912611.4924   23912617.5814
 96  4 18 16 17 29.9990000  0  8 16  2 27  3 31 19 18 29
  23673208.913    -2854216.45149  -2211104.46249  23673200.6154   23673207.4754
  22102504.187    -4283066.53149  -3036304.18149  22102502.8374   22102509.2644
  21094780.923    -4069827.28349  -3153394.87749  21094778.8854   21094783.4754
  23991110.329       92532.53849     70061.75449  23991111.1474   23991115.6894
  21476288.334    -1621734.07849  -1256829.55449  21476285.8714   21476291.2004
  20186019.678    -2351315.61549  -1823102.29649  20186017.6284   20186023.1074
  20951620.930       89557.54549     67834.33749  20951618.7454   20951623.7464
  23918393.491     1295899.17949   1001648.72249  23918387.9784   23918395.4574
 96  4 18 16 17 59.9990000  0  8 16  2 27  3 31 19 18 29
  23656336.217    -2942838.19849  -2280160.36849  23656336.0414   23656343.3884
  22076774.454    -4418279.91449  -3141665.24349  22076772.9444   22076779.0464
  21069677.060    -4201740.08649  -3256184.07249  21069676.3704   21069681.3564
  23990738.693       90569.41849     68532.03449  23990737.0264   23990742.0114
  21466775.194    -1671723.03349  -1295781.98549  21466773.1194   21466778.3474
  20171062.076    -2429917.20349  -1884350.28949  20171060.1494   20171065.2734
  20951307.255       87906.97149     66548.15249  20951304.7674   20951309.4174
  23924103.850     1325911.82449   1025035.10849  23924099.4404   23924105.2294
 96  4 18 16 18 29.9990000  0  8 16  2 27  3 31 19 18 29
  23639481.820    -3031440.22449  -2349200.91649  23639476.8014   23639482.5164
  22051002.252    -4553717.51749  -3247201.02749  22051000.3654   22051005.5344
  21044508.648    -4334000.67549  -3359244.27149  21044507.8944   21044513.2384
  23990346.619       88505.33649     66923.61149  23990345.0974   23990349.4494
  21457288.731    -1721579.27749  -1334631.01849  21457286.4334   21457291.2924
  20156057.371    -2508764.90749  -1945790.06949  20156056.0744   20156061.2614
  20950973.949       86147.71249     65177.27649  20950970.2804   20950974.5144
  23929746.783     1355584.21749   1048156.38249  23929746.1004   23929751.0694
 96  4 18 16 18 59.9990000  0  8 16  2 27  3 31 19 18 29
  23622635.636    -3119985.23449  -2418197.02449  23622627.0484   23622633.3264
  22025192.423    -4689353.92949  -3352891.72349  22025189.3084   22025195.2134
  21019277.546    -4466591.99449  -3462562.18349  21019276.8354   21019282.1134
  23989941.456       86376.19349     65264.51149  23989938.9194   23989943.7034
  21447831.744    -1771278.01849  -1373357.31149  21447828.7334   21447834.5164
  20141010.473    -2587841.23249  -2007407.99249  20141008.5534   20141013.7144
  20950622.666       84310.61749     63745.74649  20950620.7184   20950625.3134
  23935331.122     1384914.91149   1071011.39649  23935327.4904   23935334.0534
 96  4 18 16 19 29.9980000  0  8 16  2 27  3 31 19 18 29
  23605783.490    -3208436.49349  -2487120.08649  23605795.6564   23605801.8814
  21999348.527    -4825167.97949  -3458720.84149  21999345.1104   21999350.3804
  20993991.036    -4599482.20449  -3566112.99349  20993988.4114   20993993.5984
  23989530.034       84219.45149     63583.89749  23989527.5474   23989533.9554
  21438405.431    -1820809.05649  -1411952.94149  21438402.8634   21438408.1354
  20125924.001    -2667122.84749  -2069185.88349  20125921.9084   20125926.7424
  20950266.635       82441.38549     62289.17549  20950264.5904   20950269.3774
  23940850.133     1413927.50649   1093618.53549  23940848.4134   23940854.4894
 96  4 18 16 19 59.9980000  0  8 16  2 27  3 31 19 18 29
  23588997.321    -3296742.97749  -2555930.36249  23588990.9974   23588996.2914
  21973481.830    -4961102.90049  -3564644.14649  21973477.3904   21973483.5004
  20968657.617    -4732609.24349  -3669848.34349  20968655.8264   20968660.3724
  23989122.492       82073.11749     61911.37249  23989120.6744   23989126.1174
  21429020.258    -1870126.88849  -1450382.44849  21429018.5584   21429023.4224
  20110806.562    -2746562.60849  -2131087.00149  20110804.6634   20110809.7874
  20949917.810       80604.21949     60857.59949  20949915.4044   20949919.8554
  23946318.761     1442663.07249   1116009.80749  23946316.3414   23946322.5074
 96  4 18 16 20 29.9980000  0  8 16  2 27  3 31 19 18 29
  23572219.363    -3384910.03049  -2624631.97449  23572213.1634   23572219.1794
  21947583.356    -5097169.21149  -3670669.83249  21947584.7774   21947590.8874
  20943276.877    -4865987.08949  -3773779.12649  20943274.7354   20943279.5694
  23988708.155       79900.24449     60218.19649  23988707.1184   23988713.7394
  21419672.894    -1919246.61049  -1488657.56249  21419671.0834   21419676.4314
  20095656.313    -2826180.99749  -2193127.30949  20095654.1774   20095659.0844
  20949572.049       78801.74649     59453.05649  20949572.0544   20949577.0044
  23951731.259     1471108.18349   1138174.75849  23951730.2054   23951735.5634
 96  4 18 16 20 59.9980000  0  8 16  2 27  3 31 19 18 29
  23555452.239    -3472983.60149  -2693260.73749  23555453.7604   23555459.7814
  21921662.800    -5233409.78449  -3776831.29949  21921659.0004   21921664.9154
  20917837.869    -4999666.34349  -3877944.77949  20917836.4434   20917841.2714
  23988282.967       77664.20749     58475.80249  23988280.4614   23988286.4974
  21410354.892    -1968218.90049  -1526817.79349  21410352.4854   21410356.4564
  20080463.431    -2906021.95849  -2255341.04949  20080460.5244   20080465.8974
  20949232.394       77002.29649     58050.85349  20949229.7594   20949234.7164
  23957078.608     1499226.37849   1160084.93949  23957079.9524   23957086.7624
 96  4 18 16 21 29.9980000  0  8 16  2 27  3 31 19 18 29
  23538710.374    -3560982.07049  -2761830.99249  23538707.4294   23538712.8654
  21895697.651    -5369848.09749  -3883146.85149  21895695.3504   21895701.6074
  20892344.344    -5133646.56749  -3982344.94549  20892340.7474   20892345.3874
  23987839.575       75335.61049     56661.28549  23987837.1314   23987843.9444
  21401059.700    -2017065.92749  -1564880.41149  21401056.7394   21401061.1224
  20065226.230    -2986089.97049  -2317731.71749  20065224.5674   20065229.6314
  20948887.664       75193.81749     56641.62249  20948885.8914   20948890.6614
  23962368.070     1527018.07149   1181740.74549  23962367.1984   23962375.6034
 96  4 18 16 21 59.9980000  0  8 16  2 27  3 31 19 18 29
  23521991.999    -3648890.42749  -2830331.04549  23521978.9594   23521984.4674
  21869699.721    -5506467.81449  -3989603.76149  21869697.5524   21869703.4474
  20866793.450    -5267906.39049  -4086962.98249  20866791.8064   20866796.7594
  23987381.064       72915.71449     54775.59849  23987377.3354   23987382.5554
  21391792.425    -2065759.32249  -1602823.31949  21391790.4104   21391795.4334
  20049949.694    -3066369.28549  -2380287.03049  20049947.7374   20049952.8664
  20948539.719       73377.64749     55226.42049  20948539.7474   20948545.2014
  23967602.188     1554510.26449   1203163.15549  23967599.9404   23967606.8664
 96  4 18 16 22 29.9980000  0  8 16  2 27  3 31 19 18 29
  23505260.672    -3736711.99249  -2898763.43049  23505266.9594   23505273.4594
  21843667.941    -5643261.51349  -4096196.24549  21843666.8824   21843672.4884
  20841190.338    -5402455.59349  -4191806.51849  20841187.9014   20841193.2504
  23986903.656       70412.53349     52825.03849  23986901.3884   23986908.0404
  21382558.012    -2114289.88649  -1640639.33649  21382556.0044   21382561.0934
  20034633.402    -3146849.77249  -2442999.10449  20034632.4744   20034637.7994
  20948192.667       71541.33249     53795.49349  20948190.2284   20948195.1084
  23972783.099     1581725.85649   1224370.02549  23972780.4024   23972785.7274
 96  4 18 16 22 59.9980000  0  8 16  2 27  3 31 19 18 29
  23488582.698    -3824444.56249  -2967126.48749  23488572.5694   23488578.1364
  21817608.337    -5780205.39549  -4202905.73749  21817607.5404   21817613.3534
  20815530.885    -5537280.94049  -4296865.22349  20815531.5034   20815536.6874
  23986415.602       67856.82949     50833.54649  23986414.6274   23986420.8774
  21373354.902    -2162649.93949  -1678322.52049  21373352.6914   21373358.0384
  20019285.663    -3227506.15349  -2505848.23549  20019284.3744   20019289.7924
  20947838.478       69678.28949     52343.75149  20947835.8774   20947840.9794
  23977907.955     1608665.39849   1245361.80049  23977906.3934   23977912.8344
 96  4 18 16 23 29.9980000  0  8 16  2 27  3 31 19 18 29
  23471900.005    -3912060.99849  -3035399.04349  23471900.6574   23471906.4024
  21791531.338    -5917258.52949  -4309700.37249  21791527.4064   21791532.6594
  20789831.334    -5672337.82449  -4402104.35549  20789831.0004   20789836.1324
  23985926.690       65281.92849     48827.07349  23985925.0104   23985929.9384
  21364191.557    -2210808.34749  -1715848.55349  21364188.8814   21364193.7934
  20003909.138    -3308305.83849  -2568809.03649  20003908.7094   20003914.0504
  20947479.870       67798.02449     50878.58549  20947478.4674   20947483.1844
  23982987.162     1635364.27949   1266166.06049  23982987.9894   23982992.7224
 96  4 18 16 23 59.9980000  0  8 16  2 27  3 31 19 18 29
  23455250.507    -3999536.44249  -3103561.74549  23455253.8164   23455259.0304
  21765435.959    -6054367.28949  -4416538.35549  21765435.9824   21765441.5974
  20764089.888    -5807609.86549  -4507511.13149  20764089.5324   20764095.0074
  23985440.556       62728.34649     46837.21549  23985438.7094   23985445.4314
  21355070.455    -2258729.04949  -1753189.36749  21355069.9084   21355074.1884
  19988512.595    -3389219.88349  -2631858.94449  19988511.1014   19988516.5634
  20947122.639       65926.37449     49420.14249  20947121.8414   20947127.2384
  23988025.564     1661835.27849   1286792.69849  23988024.8604   23988030.3774
 96  4 18 16 24 29.9980000  0  8 16  2 27  3 31 19 18 29
  23438640.490    -4086856.02049  -3171602.99549  23438636.8904   23438643.9384
  21739338.212    -6191505.46349  -4523399.25149  21739339.2214   21739345.5524
  20738312.498    -5943081.65949  -4613073.56449  20738310.1514   20738315.3734
  23984965.920       60229.54649     44890.06249  23984964.6204   23984969.6834
  21346001.697    -2306391.34249  -1790328.83649  21345999.9944   21346005.4804
  19973098.175    -3470223.23249  -2694978.43949  19973096.9254   19973102.0074
  20946774.904       64095.69049     47993.61349  20946773.4334   20946779.1514
  23993016.143     1688074.91149   1307239.09049  23993016.4514   23993022.1184
 96  4 18 16 24 59.9980000  0  8 16  2 27  3 31 19 18 29
  23422063.398    -4174000.25549  -3239507.61049  23422055.1094   23422060.4794
  21713237.670    -6328672.05049  -4630282.30349  21713237.5404   21713243.4104
  20712500.941    -6078722.66149  -4718767.84849  20712498.8354   20712503.7734
  23984501.932       57809.08049     43003.95749  23984502.0694   23984509.2354
  21336985.634    -2353769.65549  -1827247.00549  21336984.0554   21336988.6024
  19957668.549    -3551303.69449  -2758158.02349  19957667.7714   19957672.9964
  20946442.337       62344.90649     46629.33849  20946440.4114   20946446.0934
  23997969.309     1714086.16449   1327507.50849  23997967.1174   23997972.8964
 96  4 18 16 25 29.9980000  0  8 16  2 27  3 31 19 18 29
  23405506.540    -4260958.27949  -3307267.12649  23405507.2484   23405511.9634
  21687126.435    -6465879.65349  -4737197.30449  21687127.5504   21687134.0894
  20686659.223    -6214523.93249  -4824587.01949  20686656.7104   20686661.8334
  23984061.316       55458.39349     41172.20449  23984057.2324   23984062.5974
  21328026.917    -2400849.14549  -1863932.32349  21328025.3234   21328030.4774
  19942227.415    -3632450.60549  -2821389.39149  19942226.0574   19942231.0624
  20946123.761       60687.90749     45338.14949  20946124.5104   20946130.6674
  24002873.304     1739874.84949   1347602.51649  24002874.3434   24002880.6064
 96  4 18 16 25 59.9980000  0  8 16  2 27  3 31 19 18 29
  23388999.234    -4347754.65249  -3374900.67749  23388991.0094   23388995.8414
  21661003.255    -6603170.54349  -4844177.20649  21661001.7734   21661008.1734
  20660776.118    -6350533.31649  -4930568.34649  20660774.6204   20660779.8564
  23983614.830       53134.43549     39361.30249  23983612.4564   23983618.6144
  21319121.615    -2447655.22149  -1900404.59449  21319118.5984   21319123.3034
  19926768.290    -3713686.93749  -2884690.43649  19926767.0484   19926772.8004
  20945822.886       59097.23449     44098.64549  20945821.8304   20945827.9214
  24007733.697     1765394.23349   1367487.64149  24007730.7634   24007737.5204
 96  4 18 16 26 29.9980000  0  8 16  2 27  3 31 19 18 29
  23372504.367    -4434384.85749  -3442404.74449  23372505.7024   23372511.1584
  21634860.772    -6740560.21949  -4951234.08849  21634857.5694   21634863.6954
  20634855.765    -6486744.58449  -5036706.99449  20634854.7284   20634859.7744
  23983176.932       50825.89949     37562.39349  23983174.4924   23983180.7634
  21310260.764    -2494207.95049  -1936679.46149  21310259.3794   21310266.0064
  19911291.417    -3795014.99949  -2948062.95449  19911290.9784   19911296.4224
  20945530.779       57553.68149     42895.84949  20945528.6234   20945533.7994
  24012530.827     1790643.74749   1387162.52149  24012534.5724   24012542.5024
 96  4 18 16 26 59.9980000  0  8 16  2 27  3 31 19 18 29
  23356061.516    -4520810.14549  -3509749.13549  23356058.6844   23356064.8414
  21608697.778    -6878027.15449  -5058351.16749  21608698.3214   21608704.7524
  20608905.207    -6623131.98449  -5142982.87949  20608901.1664   20608906.0244
  23982738.942       48536.15349     35778.13249  23982738.7694   23982744.4574
  21301452.835    -2540497.89449  -1972749.54449  21301451.0744   21301456.3604
  19895801.749    -3876416.39349  -3011492.61349  19895800.6804   19895806.0654
  20945246.575       56058.84249     41730.99949  20945244.6084   20945249.8734
  24017298.392     1815656.05449   1406652.52549  24017296.7624   24017301.5624
 96  4 18 16 27 29.9980000  0  7 16  2 27  3 31 19 18
  23339664.196    -4606998.39349  -3576908.82649  23339658.1514   23339663.2174
  21582533.991    -7015538.43849  -5165502.81249  21582531.2344   21582537.0414
  20582918.720    -6759681.20149  -5249384.86749  20582916.8044   20582921.6164
  23982309.314       46266.70449     34009.69049  23982306.8004   23982312.7374
  21292695.165    -2586522.13149  -2008612.61449  21292692.7524   21292698.2094
  19880301.109    -3957874.03049  -3074966.09749  19880300.0834   19880305.6354
  20944972.735       54612.21349     40603.73149  20944969.2114   20944974.4114
 96  4 18 16 27 59.9980000  0  7 16  2 27  3 31 19 18
  23323307.513    -4692938.50949  -3643875.16049  23323304.1454   23323310.5094
  21556362.482    -7153064.82549  -5272666.22149  21556360.6684   21556367.1064
  20556904.320    -6896375.35749  -5355899.79549  20556904.3794   20556909.6964
  23981878.905       44017.71149     32257.22149  23981877.8914   23981885.4224
  21283988.235    -2632272.16149  -2044262.00949  21283987.2054   21283992.1254
  19864788.084    -4039395.55949  -3138489.36849  19864787.5534   19864792.4724
  20944705.954       53222.86149     39521.10049  20944705.3194   20944710.6834
 96  4 18 16 28 29.9980000  0  7 16  2 27  3 31 19 18
  23307004.920    -4778625.10549  -3710643.93949  23306997.8964   23307004.4864
  21530190.863    -7290595.12249  -5379832.67949  21530189.0544   21530195.3324
  20530869.958    -7033190.43749  -5462508.94049  20530869.1904   20530874.3994
  23981459.594       41798.32149     30527.76849  23981457.8264   23981463.2384
  21275335.959    -2677739.59349  -2079691.17849  21275334.5864   21275340.5164
  19849263.148    -4120980.28949  -3202061.88249  19849262.0134   19849267.3444
  20944454.739       51906.59649     38495.41649  20944454.6694   20944460.3174
 96  4 18 16 28 59.9970000  0  7 16  2 27  3 31 19 18
  23290740.903    -4864053.67449  -3777211.64949  23290741.2364   23290748.4644
  21504019.871    -7428117.78749  -5486993.18549  21504019.5214   21504025.4994
  20504816.681    -7170106.76249  -5569196.98649  20504815.2374   20504820.2224
  23981044.030       39624.17749     28833.62749  23981042.1064   23981050.2084
  21266745.103    -2722890.10749  -2114873.40949  21266743.4204   21266747.9164
  19833729.192    -4202609.39549  -3265668.97849  19833728.6704   19833733.9454
  20944223.685       50688.74549     37546.41849  20944222.6264   20944228.8274
 96  4 18 16 29 29.9970000  0  7 16  2 27  3 31 19 18
  23274539.596    -4949224.80449  -3843578.77649  23274533.8864   23274539.7614
  21477856.596    -7565623.44249  -5594140.43749  21477853.2634   21477859.1984
  20478744.068    -7307115.97349  -5675957.40949  20478743.0914   20478748.2244
  23980642.488       37519.01849     27193.21049  23980642.1454   23980648.6094
  21258217.088    -2767706.43749  -2149795.22549  21258214.7274   21258219.9954
  19818191.130    -4284261.81149  -3329294.23849  19818190.7974   19818195.9504
  20944014.662       49586.53349     36687.52649  20944013.1614   20944018.7344
 96  4 18 16 29 59.9970000  0  7 16  2 27  3 31 19 18
  23258378.134    -5034130.77049  -3909739.28049  23258376.6254   23258383.9894
  21451692.981    -7703106.06049  -5701269.73749  21451691.1004   21451698.1084
  20452658.545    -7444194.90949  -5782772.16249  20452657.7674   20452663.1064
  23980261.440       35507.04149     25625.39449  23980258.8264   23980265.7594
  21249756.750    -2812173.24849  -2184444.71149  21249753.4434   21249758.5344
  19802655.531    -4365905.02549  -3392912.32349  19802654.3844   19802660.0164
  20943829.070       48619.99649     35934.36349  20943829.3094   20943835.0304
 96  4 18 16 30 29.9970000  0  6 16  2 27 31 19 18
  23242264.699    -5118772.85049  -3975694.15549  23242269.7894   23242276.2194
  21425534.224    -7840572.22949  -5808386.23449  21425531.8724   21425538.6014
  20426562.668    -7581335.33249  -5889634.82449  20426561.1144   20426566.2774
  21241357.016    -2856296.87049  -2218826.75149  21241355.7364   21241361.4614
  19787126.509    -4447507.93449  -3456499.00249  19787125.8054   19787131.3184
  20943674.257       47796.05849     35292.30849  20943672.4954   20943677.9824
 96  4 18 16 30 59.9970000  0  6 16  2 27 31 19 18
  23226217.748    -5203152.75849  -4041444.76549  23226212.4184   23226219.1494
  21399384.108    -7978014.20949  -5915483.86549  21399377.7014   21399384.1354
  20400453.752    -7718531.59849  -5996541.00249  20400453.3624   20400458.7014
  21233027.985    -2900075.58949  -2252940.05249  21233025.5094   21233031.8344
  19771607.387    -4529058.72649  -3520045.07849  19771607.3834   19771612.8394
  20943543.718       47112.90849     34759.96449  20943542.5044   20943547.8324
 96  4 18 16 31 29.9970000  0  6 16  2 27 31 19 18
  23210202.136    -5287260.65549  -4106983.39649  23210207.6954   23210214.9894
  21373228.891    -8115421.10549  -6022554.17349  21373230.0894   21373236.8134
  20374337.842    -7855776.82749  -6103485.33349  20374336.6674   20374342.0614
  21224762.745    -2943505.45649  -2286781.52449  21224761.6884   21224766.3904
  19756101.771    -4610548.97649  -3583543.97549  19756100.3644   19756105.5044
  20943441.026       46580.79049     34345.30849  20943440.7584   20943446.8724
 96  4 18 16 31 59.9970000  0  6 16  2 27 31 19 18
  23194263.447    -5371099.79049  -4172312.59949  23194254.0014   23194261.1054
  21347091.839    -8252785.30049  -6129591.19649  21347090.1064   21347096.7934
  20348213.059    -7993059.18349  -6210458.59649  20348212.4854   20348217.7344
  21216566.097    -2986582.41449  -2320347.96649  21216563.6694   21216569.6304
  19740605.467    -4691976.26249  -3646993.80249  19740605.0614   19740610.5624
  20943371.550       46215.55749     34060.69449  20943371.4104   20943376.9394
 96  4 18 16 32 29.9970000  0  6 16  2 27 31 19 18
  23178356.319    -5454665.11349  -4237428.46149  23178352.2614   23178359.7164
  21320968.967    -8390080.21749  -6236574.23649  21320964.0474   21320971.1414
  20322082.247    -8130378.91449  -6317460.98149  20322081.4644   20322086.9304
  21208437.381    -3029293.62149  -2353629.43649  21208436.4374   21208442.1974
  19725120.514    -4773354.39449  -3710405.33449  19725119.5114   19725125.1514
  20943331.720       46005.75049     33897.19249  20943331.5784   20943337.1474
 96  4 18 16 32 59.9970000  0  6 16  2 27 31 19 18
  23162512.023    -5537917.48849  -4302300.44649  23162509.3284   23162516.6764
  21294856.456    -8527281.41149  -6343484.24749  21294856.0664   21294862.5364
  20295947.060    -8267722.49349  -6424481.95749  20295945.8184   20295951.2244
  21200385.016    -3071612.15649  -2386604.91649  21200383.2754   21200388.9944
  19709644.413    -4854678.24349  -3773774.56949  19709644.0144   19709649.3704
  20943324.378       45966.35249     33866.44649  20943324.1394   20943329.0034
 96  4 18 16 33 29.9970000  0  6 16  2 27 31 19 18
  23146737.048    -5620827.03949  -4366905.31449  23146732.2534   23146739.9544
  21268769.797    -8664373.78249  -6450309.45849  21268768.2794   21268774.4464
  20269810.158    -8405075.52849  -6531510.29349  20269808.5614   20269813.8094
  21192405.557    -3113533.55749  -2419270.95049  21192406.1454   21192411.0604
  19694181.446    -4935937.13249  -3837093.18349  19694181.0664   19694186.4174
  20943355.664       46123.05649     33988.52849  20943354.0694   20943359.0014
 96  4 18 16 33 59.9970000  0  6 16  2 27 31 19 18
  23131025.524    -5703376.28249  -4431229.40649  23131023.8604   23131030.7034
  21242702.105    -8801351.28549  -6557045.16649  21242702.2934   21242708.1704
  20243673.456    -8542428.54449  -6638538.61749  20243671.2934   20243676.1524
  21184506.593    -3155058.51849  -2451628.07349  21184504.5864   21184509.7964
  19678730.724    -5017132.27749  -3900362.13549  19678729.9504   19678735.4104
  20943421.072       46467.64349     34257.01449  20943419.7724   20943424.6474
 96  4 18 16 34 29.9970000  0  6 16  2 27 31 19 18
  23115384.859    -5785543.41849  -4495255.78149  23115387.8924   23115394.7554
  21216660.095    -8938207.73049  -6663686.53749  21216659.2044   21216665.2614
  20217536.303    -8679772.90649  -6745560.19449  20217535.3244   20217540.3224
  21176684.745    -3196157.87949  -2483653.54049  21176683.5944   21176688.2884
  19663293.488    -5098254.61249  -3963574.34549  19663292.9794   19663298.2944
  20943526.486       47009.74549     34679.40749  20943522.9724   20943527.7074
 96  4 18 16 34 59.9970000  0  6 16  2 27 31 19 18
  23099820.541    -5867336.97349  -4558991.04449  23099823.0314   23099829.6054
  21190639.176    -9074956.71749  -6770244.17849  21190636.8934   21190642.7974
  20191403.651    -8817094.36149  -6852563.92549  20191403.9144   20191408.9594
  21168943.211    -3236834.66549  -2515349.74649  21168942.8114   21168948.3224
  19647872.391    -5179294.80349  -4026722.54749  19647871.6914   19647877.0634
  20943668.964       47767.17949     35269.59049  20943667.2214   20943672.3514
 96  4 18 16 35 29.9970000  0  6 16  2 27 31 19 18
  23084331.582    -5948775.78149  -4622449.86749  23084327.0824   23084332.7044
  21164638.359    -9211589.26249  -6876711.08449  21164636.5164   21164642.7754
  20165279.373    -8954386.75049  -6959545.00149  20165277.9314   20165282.8764
  21161285.432    -3277081.93549  -2546711.26649  21161283.8914   21161289.8974
  19632466.455    -5260245.72949  -4089801.19849  19632467.1934   19632472.3054
  20943852.471       48738.82849     36026.69249  20943851.9684   20943857.2354
 96  4 18 16 35 59.9970000  0  6 16  2 27 31 19 18
  23068904.454    -6029879.39449  -4685647.51749  23068893.5194   23068898.8264
  21138659.559    -9348099.10149  -6983082.37949  21138659.6394   21138665.7894
  20139158.728    -9091651.38249  -7066504.45649  20139157.4904   20139162.7364
  21153708.579    -3316894.99549  -2577734.43649  21153707.7054   21153713.7654
  19617081.146    -5341104.50349  -4152808.04349  19617080.5644   19617085.7994
  20944075.192       49901.99949     36933.02249  20944073.4154   20944078.6534
 96  4 18 16 36 29.9970000  0  6 16  2 27 31 19 18
  23053519.333    -6110669.30749  -4748600.71149  23053518.9924   23053526.6364
  21112708.781    -9484483.64449  -7089356.03849  21112706.3174   21112712.6674
  20113039.715    -9228897.58949  -7173449.55849  20113040.3424   20113045.7174
  21146213.572    -3356286.82049  -2608429.36549  21146211.8494   21146217.2374
  19601715.259    -5421855.11949  -4215730.60149  19601713.9084   19601719.1504
  20944332.928       51260.55149     37991.59649  20944331.9714   20944337.1474
 96  4 18 16 36 59.9970000  0  6 16  2 27 31 19 18
  23038215.085    -6191129.17049  -4811296.71549  23038209.2954   23038214.4774
  21086782.393    -9620722.06049  -7195515.83249  21086780.8754   21086787.4884
  20086932.761    -9366093.55449  -7280355.49749  20086932.5894   20086938.1604
  21138796.652    -3395264.38749  -2638801.50749  21138794.6274   21138800.4704
  19586375.544    -5502462.56049  -4278541.59849  19586374.8804   19586380.3334
  20944630.918       52827.36849     39212.46549  20944629.6604   20944635.8294
 96  4 18 16 37 29.9970000  0  6 16  2 27 31 19 18
  23022961.468    -6271237.30849  -4873718.65549  23022964.2954   23022971.1154
  21060888.456    -9756799.83749  -7301550.44949  21060886.2234   21060892.4974
  20060836.059    -9503235.74149  -7387219.54249  20060835.3204   20060841.0214
  21131458.752    -3433821.59249  -2668846.07949  21131457.9944   21131463.3714
  19571064.986    -5582911.93649  -4341229.43649  19571065.8184   19571071.4604
  20944967.180       54603.32149     40596.29549  20944967.6414   20944973.7884
 96  4 18 16 37 59.9960000  0  6 16  2 27 31 19 18
  23007792.361    -6350969.20449  -4935847.41449  23007792.1794   23007797.6704
  21035023.792    -9892712.83449  -7407456.67449  21035022.8634   21035029.0574
  20034751.673    -9640310.35449  -7494030.92049  20034751.0124   20034756.3404
  21124202.114    -3471952.05849  -2698558.13849  21124201.0394   21124206.7254
  19555789.467    -5663187.49849  -4403781.81749  19555789.5844   19555795.3434
  20945344.645       56584.46749     42140.00749  20945344.9254   20945350.7884
 96  4 18 16 38 29.9960000  0  6 16  2 27 31 19 18
  22992688.793    -6430300.89149  -4997664.34149  22992694.8154   22992701.6444
  21009189.511   -10028476.56849  -7513246.58449  21009187.5654   21009194.2924
  20008681.118    -9777310.37549  -7600784.18249  20008680.5354   20008686.0384
  21117030.032    -3509647.16249  -2727930.94349  21117028.8324   21117033.8124
  19540547.389    -5743285.97149  -4466196.22049  19540547.4954   19540553.0704
  20945763.534       58786.94549     43856.19749  20945763.8464   20945769.5334
 96  4 18 16 38 59.9960000  0  6 16  2 27 31 19 18
  22977681.637    -6509215.23149  -5059156.08849  22977678.0914   22977685.3484
  20983382.686   -10164086.77949  -7618916.86649  20983382.1674   20983388.4104
  19982627.600    -9914222.83349  -7707469.21849  19982627.1634   19982632.2994
  21109940.974    -3546890.40449  -2756951.65749  21109941.4074   21109947.1934
  19525336.491    -5823221.59949  -4528483.72549  19525336.3894   19525342.3054
  20946224.543       61202.44749     45738.38149  20946223.1234   20946229.6004
 96  4 18 16 39 29.9960000  0  6 16  2 27 31 19 18
  22962742.783    -6587711.58849  -5120322.09949  22962739.8714   22962748.0354
  20957607.284   -10299539.30749  -7724464.27749  20957606.0464   20957612.7884
  19956589.556   -10051056.14149  -7814092.56649  19956588.8114   19956593.9494
  21102943.500    -3583661.41549  -2785604.40049  21102943.5024   21102950.0204
  19510152.886    -5903008.54049  -4590655.37649  19510153.4764   19510159.0954
  20946726.047       63831.53749     47786.99349  20946724.0524   20946729.9614
 96  4 18 16 39 59.9960000  0  6 16  2 27 31 19 18
  22947870.371    -6665804.67949  -5181173.87449  22947880.3604   22947887.8894
  20931857.903   -10434856.90649  -7829906.54849  20931856.0944   20931862.8504
  19930564.912   -10187813.88949  -7920657.03949  19930564.5104   19930569.9714
  21096036.624    -3619969.68749  -2813896.56249  21096035.3284   21096040.7784
  19494998.440    -5982650.83949  -4652714.31449  19494997.8684   19495003.7544
  20947265.554       66672.20049     50000.46749  20947264.4414   20947270.4584
 96  4 18 16 40 29.9960000  0  6 16  2 27 31 19 18
  22933101.694    -6743507.74049  -5241721.75149  22933093.3554   22933101.1114
  20906132.214   -10570039.52349  -7935243.64549  20906131.8724   20906138.1754
  19904556.248   -10324494.33449  -8027161.28349  19904555.1224   19904560.7054
  21089210.683    -3655833.46449  -2841842.37649  21089210.0604   21089216.1514
  19479870.679    -6062154.21049  -4714664.99349  19479869.1024   19479874.8824
  20947848.722       69734.23549     52386.43749  20947847.5584   20947853.5484
 96  4 18 16 40 59.9960000  0  6 16  2 27 31 19 18
  22918378.198    -6820836.01949  -5301977.56049  22918378.4634   22918385.2974
  20880437.879   -10705071.05949  -8040463.00949  20880436.3734   20880442.3314
  19878561.111   -10461095.04749  -8133603.40449  19878560.6674   19878566.3764
  21082470.019    -3691252.73949  -2869441.82049  21082469.2924   21082474.9444
  19464766.720    -6141515.87949  -4776505.25249  19464767.2474   19464773.0734
  20948474.158       73024.18649     54949.99949  20948473.2694   20948479.1714
 96  4 18 16 41 29.9960000  0  6 16  2 27 31 19 18
  22903731.930    -6897784.03649  -5361937.07449  22903736.2264   22903743.2214
  20854772.639   -10839927.97549  -8145546.30749  20854773.8934   20854779.8314
  19852586.969   -10597594.18049  -8239966.36149  19852585.8164   19852591.2754
  21075816.233    -3726229.55349  -2896696.48549  21075814.5364   21075819.6384
  19449696.510    -6220712.25049  -4838216.70949  19449696.4834   19449702.0454
  20949146.663       76562.30449     57706.95149  20949146.7114   20949152.5504
 96  4 18 16 41 59.9960000  0  6 16  2 27 31 19 18
  22889160.404    -6974342.12149  -5421592.73649  22889167.4774   22889174.6624
  20829148.643   -10974597.14149  -8250483.30049  20829147.0794   20829153.3034
  19826629.974   -10733986.10949  -8346245.78449  19826631.5304   19826636.8624
  21069240.428    -3760778.97149  -2923618.10749  21069239.8704   21069245.1704
  19434661.854    -6299726.37349  -4899786.16049  19434660.2664   19434666.2414
  20949869.585       80357.14249     60663.93849  20949869.1354   20949874.9434
 96  4 18 16 42 29.9960000  0  6 16  2 27 31 19 18
  22874677.236    -7050517.10849  -5480949.89749  22874672.6154   22874678.8874
  20803559.935   -11109058.82349  -8355258.62949  20803559.6144   20803566.2234
  19800697.896   -10870269.68849  -8452440.77949  19800697.4084   19800703.1844
  21062747.023    -3794902.41449  -2950207.80549  21062746.4054   21062752.4544
  19419657.395    -6378568.66649  -4961221.71849  19419657.2914   19419663.2094
  20950639.784       84400.74549     63814.77049  20950638.3834   20950644.4754
 96  4 18 16 42 59.9960000  0  6 16  2 27 31 19 18
  22860250.367    -7126309.13049  -5540008.62549  22860249.0794   22860255.8344
  20778013.250   -11243313.26449  -8459872.47049  20778011.6664   20778017.8654
  19774786.179   -11006436.85549  -8558545.06049  19774785.6724   19774790.9764
  21056337.927    -3828585.64049  -2976454.48249  21056337.2294   21056342.7194
  19404688.133    -6457236.58149  -5022521.39549  19404687.6464   19404693.1084
  20951457.636       88691.44749     67158.14049  20951455.1734   20951461.0654
 96  4 18 16 43 29.9960000  0  6 16  2 27 31 19 18
  22845903.262    -7201701.88449  -5598756.23649  22845902.2494   22845910.5064
  20752505.940   -11377368.14049  -8564330.80649  20752502.5114   20752508.6674
  19748895.562   -11142489.44549  -8664560.06549  19748895.7044   19748901.2164
  21050012.808    -3861823.43649  -3002354.07349  21050011.8114   21050017.2084
  19389753.902    -6535721.61849  -5083678.56749  19389752.6054   19389757.9384
  20952318.380       93221.65849     70688.14549  20952317.3644   20952323.3544
 96  4 18 16 43 59.9960000  0  6 16  2 27 31 19 18
  22831632.187    -7276706.98449  -5657201.77749  22831629.7504   22831636.5494
  20727019.931   -11511264.21749  -8668665.39849  20727022.7734   20727028.9504
  19723023.720   -11278451.27149  -8770504.33849  19723023.2414   19723028.2324
  21043770.930    -3894617.08649  -3027907.58749  21043770.9964   21043776.6154
  19374851.948    -6614028.88549  -5144697.21249  19374851.1404   19374856.8814
  20953222.510       97971.27149     74389.10749  20953221.1274   20953226.6284
 96  4 18 16 44 29.9960000  0  6 16  2 27 31 19 18
  22817430.634    -7351333.34249  -5715352.20549  22817428.6234   22817435.3424
  20701574.858   -11645011.80349  -8772884.28549  20701571.0354   20701577.3194
  19697171.566   -11414302.53249  -8876362.45949  19697171.4534   19697176.8764
  21037619.524    -3926952.85549  -3053104.30049  21037617.8934   21037623.7454
  19359983.779    -6692158.79049  -5205577.66049  19359983.6264   19359989.0014
  20954163.870      102917.76349     78243.47849  20954162.5474   20954167.7404
 96  4 18 16 44 59.9960000  0  6 16  2 27 31 19 18
  22803304.686    -7425561.97749  -5773192.71249  22803302.4934   22803310.6464
  20676150.333   -11778608.44349  -8876985.55549  20676149.1694   20676154.7444
  19671345.226   -11550034.72449  -8982127.80249  19671342.6324   19671347.8244
  21031554.463    -3958816.17849  -3077932.88349  21031554.8464   21031559.8254
  19345156.120    -6770075.15149  -5266291.70449  19345156.4154   19345161.8164
  20955143.160      108068.39449     82256.93149  20955142.4814   20955147.9594
 96  4 18 16 45 29.9960000  0  6 16  2 27 31 19 18
  22789253.683    -7499398.52449  -5830727.69849  22789251.0084   22789259.9354
  20650756.650   -11912055.28949  -8980970.10349  20650754.7724   20650760.4814
  19645533.118   -11685664.70549  -9087813.50349  19645533.1894   19645538.5064
  21025578.661    -3990232.35649  -3102413.02249  21025576.2404   21025581.3914
  19330370.234    -6847773.27849  -5326835.70749  19330370.8964   19330376.4114
  20956159.119      113409.45149     86418.75849  20956158.7664   20956164.5484
 96  4 18 16 45 59.9960000  0  6 16  2 27 31 19 18
  22775288.268    -7572808.28749  -5887930.13549  22775284.7394   22775291.0494
  20625398.820   -12045301.90249  -9084798.62449  20625398.9634   20625404.6514
  19619754.634   -11821141.83549  -9193380.09349  19619752.6124   19619758.0534
  21019689.945    -4021173.04249  -3126522.66249  21019688.4554   21019693.5684
  19315635.390    -6925212.02149  -5387177.59049  19315634.8174   19315640.0944
  20957218.882      118974.87149     90755.42449  20957217.7574   20957223.8194
 96  4 18 16 46 29.9960000  0  6 16  2 27 31 19 18
  22761392.473    -7645816.58249  -5944819.75349  22761391.1734   22761397.3004
  20600080.692   -12178357.29449  -9188478.14349  20600079.2984   20600085.3874
  19593998.621   -11956485.28149  -9298842.52249  19593997.6274   19594002.8024
  21013885.439    -4051675.94449  -3150291.16949  21013883.9594   21013888.9174
  19300941.314    -7002433.26449  -5447349.99549  19300940.4354   19300945.3924
  20958317.614      124739.67549     95247.43949  20958315.5014   20958320.8284
 96  4 18 16 46 59.9950000  0  7 16  2 27 31 19 18  7
  22747576.480    -7718419.19449  -6001393.24049  22747574.9784   22747581.9444
  20574799.341   -12311213.93549  -9292002.78949  20574797.7744   20574803.5834
  19568264.364   -12091715.61149  -9404216.80649  19568264.3704   19568269.5554
  21008160.391    -4081757.05049  -3173731.01349  21008159.7484   21008164.7104
  19286285.391    -7079448.64549  -5507361.97549  19286284.9464   19286289.8594
  20959454.403      130721.45749     99908.54049  20959453.3334   20959459.1904
  23289878.648    -4305216.26059  -3325224.21759  23289882.3234   23289890.1534
 96  4 18 16 47 29.9950000  0  7 16  2 27 31 19 18  7
  22733840.568    -7790587.91649  -6057628.63349  22733842.8524   22733848.9264
  20549556.932   -12443845.94549  -9395352.40449  20549558.5584   20549564.6384
  19542559.087   -12226800.68549  -9509477.90249  19542558.6674   19542564.0314
  21002524.041    -4111389.18849  -3196820.99849  21002521.5234   21002526.1904
  19271666.339    -7156273.57049  -5567225.56449  19271665.6564   19271670.8214
  20960640.835      136944.71649    104757.80449  20960638.0184   20960642.8874
  23252199.444    -4503264.45849  -3479547.46749  23252196.2344   23252202.5884
 96  4 18 16 47 59.9950000  0  7 16  2 27 31 19 18  7
  22720190.766    -7862341.50149  -6113540.53849  22720187.4894   22720195.2154
  20524358.020   -12576271.33249  -9498541.00949  20524358.4944   20524364.7014
  19516882.820   -12361735.33349  -9614621.78049  19516881.4044   19516886.4544
  20996969.019    -4140566.46149  -3219556.54149  20996968.4824   20996974.0794
  19257077.649    -7232937.38249  -5626963.61149  19257077.0794   19257082.3854
  20961867.196      143401.41449    109788.95749  20961866.6594   20961871.3364
  23214506.610    -4701358.24149  -3633906.20949  23214498.8884   23214507.5484
 96  4 18 16 48 29.9950000  0  7 16  2 27 31 19 18  7
  22706610.219    -7933683.26649  -6169131.53749  22706610.9214   22706619.8424
  20499198.350   -12708489.16549  -9601567.88949  20499198.3454   20499204.3084
  19491233.604   -12496511.71649  -9719642.33749  19491234.3554   19491239.6064
  20991506.119    -4169283.10749  -3241933.17649  20991504.2004   20991510.1784
  19242520.694    -7309433.23449  -5686570.77249  19242520.4644   19242525.4444
  20963141.537      150104.82449    115012.35649  20963142.2464   20963147.0294
  23176783.608    -4899489.78649  -3788294.38749  23176797.1324   23176804.3664
 96  4 18 16 48 59.9950000  0  7 16  2 27 31 19 18  7
  22693113.852    -8004620.43749  -6224407.27049  22693112.3844   22693119.5894
  20474081.744   -12840496.47649  -9704430.72449  20474078.1134   20474084.5174
  19465617.294   -12631136.91349  -9824545.07949  19465616.1004   19465621.2054
  20986129.444    -4197536.10649  -3263948.50349  20986128.4294   20986132.9614
  19227998.857    -7385744.06749  -5746033.76249  19227999.2334   19228004.0884
  20964463.298      157049.88449    120424.05549  20964463.9034   20964468.4474
  23139093.315    -5097665.63449  -3942717.08749  23139084.8224   23139092.0094
 96  4 18 16 49 29.9950000  0  7 16  2 27 31 19 18  7
  22679688.263    -8075165.73749  -6279377.65349  22679687.8394   22679695.2924
  20448996.840   -12972299.66949  -9807134.50549  20448997.1474   20449003.1804
  19440028.749   -12765597.08349  -9929319.23549  19440028.9984   19440034.0224
  20980842.860    -4225319.27449  -3285597.73549  20980841.2384   20980845.9504
  19213517.800    -7461853.73449  -5805339.99949  19213515.8144   19213520.8864
  20965829.881      164229.19349    126018.28849  20965829.6264   20965834.7274
  23101365.603    -5295899.17749  -4097184.71649  23101362.1884   23101369.2134
 96  4 18 16 49 59.9950000  0  7 16  2 27 31 19 18  7
  22666341.946    -8145335.08349  -6334055.08449  22666335.5434   22666343.1494
  20423957.604   -13103897.21349  -9909678.03849  20423954.8284   20423960.8924
  19414471.076   -12899911.59449 -10033979.89449  19414470.0364   19414474.7544
  20975642.457    -4252651.21749  -3306895.36949  20975639.9114   20975644.9324
  19199078.700    -7537729.34749  -5864463.86549  19199077.1044   19199082.2364
  20967242.535      171644.49249    131796.40649  20967241.3254   20967246.2804
  23063629.520    -5494199.89149  -4251704.69749  23063627.3224   23063634.0154
 96  4 18 16 50 29.9950000  0  7 16  2 27 31 19 18  7
  22653062.899    -8215121.67349  -6388434.25849  22653055.1134   22653062.7354
  20398955.041   -13235271.04049 -10012047.24849  20398955.4434   20398961.4044
  19388937.427   -13034091.91049 -10138535.97949  19388936.4974   19388941.3294
  20970525.113    -4279537.16649  -3327845.47949  20970523.8144   20970528.4384
  19184686.586    -7613351.64749  -5923390.34449  19184686.3284   19184691.6654
  20968696.242      179290.56449    137754.34349  20968696.0194   20968701.2724
  23025882.967    -5692569.75849  -4406278.54149  23025878.4554   23025884.8474
 96  4 18 16 50 59.9950000  0  7 16  2 27 31 19 18  7
  22639851.662    -8284509.12249  -6442502.41849  22639851.3864   22639860.1384
  20374002.489   -13366412.52949 -10114235.41149  20373999.4164   20374005.3744
  19363432.646   -13168117.80549 -10242971.73549  19363432.2804   19363436.8564
  20965496.737    -4305959.90549  -3348434.63349  20965495.9864   20965500.5994
  19170346.331    -7688711.20049  -5982112.08449  19170346.4334   19170351.3654
  20970197.544      187177.74149    143900.16349  20970196.8704   20970202.4844
  22988108.668    -5890993.22349  -4560894.16249  22988119.1724   22988126.1644
 96  4 18 16 51 29.9950000  0  7 16  2 27 31 19 18  7
  22626713.380    -8353493.71749  -6496256.69149  22626724.4384   22626732.4494
  20349087.787   -13497326.66049 -10216246.41649  20349087.5804   20349093.6244
  19337962.825   -13301963.51349 -10347267.08649  19337961.9684   19337967.1944
  20960556.672    -4331923.10549  -3368665.70949  20960554.6144   20960560.4144
  19156054.561    -7763813.08649  -6040633.04349  19156054.5634   19156059.8174
  20971744.001      195307.79749    150235.23949  20971744.0644   20971749.3414
  22950357.153    -6089457.94849  -4715541.94749  22950353.0304   22950359.8694
 96  4 18 16 51 59.9950000  0  7 16  2 27 31 19 18  7
  22613681.060    -8422058.60049  -6549683.92349  22613677.0774   22613684.4504
  20324220.222   -13628012.69649 -10318079.67349  20324219.2164   20324224.7904
  19312527.803   -13435628.22749 -10451421.40549  19312526.4694   19312531.5844
  20955703.231    -4357431.49549  -3388542.39549  20955701.3574   20955706.2324
  19141814.136    -7838650.51549  -6098947.93049  19141813.6304   19141818.7764
  20973334.559      203663.85549    156746.41249  20973334.4954   20973339.2574
  22912597.268    -6287935.97749  -4870200.07549  22912583.5754   22912591.4684
 96  4 18 16 52 29.9950000  0  7 16  2 27 31 19 18  7
  22600718.216    -8490186.03249  -6602770.25349  22600711.5464   22600721.2154
  20299391.284   -13758493.16249 -10419752.75949  20299389.6344   20299395.4894
  19287130.660   -13569086.83549 -10555415.12849  19287130.2644   19287135.1534
  20950938.439    -4382475.38249  -3408057.12749  20950935.4714   20950940.5464
  19127623.734    -7913225.93949  -6157058.66049  19127622.5514   19127627.5614
  20974964.440      212235.94049    163425.92549  20974965.5074   20974971.3754
  22874808.386    -6486407.43449  -5024853.09249  22874815.5864   22874822.9434
 96  4 18 16 52 59.9950000  0  7 16  2 27 31 19 18  7
  22587832.350    -8557878.62849  -6655517.74949  22587831.2824   22587838.1924
  20274594.368   -13888788.66149 -10521281.71249  20274595.0444   20274601.0464
  19261773.083   -13702343.27649 -10659251.31249  19261772.3834   19261777.3134
  20946257.739    -4407064.92949  -3427217.83149  20946256.1354   20946261.6744
  19113479.441    -7987552.19849  -6214975.22449  19113478.7024   19113483.8184
  20976637.926      221019.64749    170270.34249  20976636.5804   20976642.6824
  22837053.365    -6684873.43249  -5179501.86149  22837048.9174   22837055.3964
 96  4 18 16 53 29.9950000  0  7 16  2 27 31 19 18  7
  22575035.214    -8625132.76149  -6707923.59949  22575033.4074   22575041.0944
  20249840.494   -14018884.81249 -10622655.32649  20249838.2194   20249844.7784
  19236449.859   -13835419.08249 -10762946.74449  19236448.7064   19236453.6284
  20941661.897    -4431210.76949  -3446032.78949  20941661.3524   20941666.7814
  19099383.865    -8061620.52649  -6272690.80749  19099383.6944   19099389.1104
  20978349.786      230010.59649    177276.24449  20978347.9684   20978353.1944
  22799285.710    -6883322.83749  -5334137.69549  22799285.2554   22799291.9504
 96  4 18 16 53 59.9950000  0  7 16  2 27 31 19 18  7
  22562319.237    -8691952.36849  -6759990.85549  22562317.7054   22562324.3804
  20225122.699   -14148774.63549 -10723868.16449  20225121.0064   20225127.3224
  19211156.559   -13968332.24749 -10866515.44149  19211156.2934   19211161.1834
  20937150.437    -4454911.39549  -3464500.81949  20937150.7254   20937155.9794
  19085337.191    -8135435.87349  -6330209.26249  19085337.3924   19085342.5324
  20980099.216      239216.57149    184449.69049  20980099.8454   20980104.9314
  22761523.064    -7081750.70849  -5488756.74849  22761525.4364   22761532.5874
 96  4 18 16 54 29.9950000  0  7 16  2 27 31 19 18  7
  22549677.565    -8758346.69249  -6811726.72349  22549682.0924   22549690.6054
  20200450.292   -14278443.34649 -10824908.70849  20200445.7354   20200452.2314
  19185899.153   -14101066.92449 -10969945.05749  19185897.9114   19185902.6144
  20932728.274    -4478158.10549  -3482615.16449  20932726.4034   20932732.7264
  19071336.805    -8209012.73449  -6387541.88349  19071335.9004   19071341.4864
  20981902.614      248673.88449    191818.98949  20981899.5774   20981905.2624
  22723773.275    -7280159.78649  -5643361.16249  22723769.2504   22723776.6144
 96  4 18 16 54 59.9950000  0  7 16  2 27 31 19 18  7
  22537138.799    -8824323.58149  -6863137.31549  22537127.1914   22537135.5944
  20175817.595   -14407862.57549 -10925754.85549  20175818.3584   20175824.6754
  19160674.008   -14233619.86449 -11073233.05749  19160673.7304   19160678.6734
  20928392.485    -4500948.85649  -3500374.21349  20928390.2724   20928396.3644
  19057380.355    -8282357.15149  -6444693.38049  19057379.0584   19057384.3594
  20983749.351      258395.52249    199394.24949  20983749.3254   20983755.2554
  22686021.099    -7478546.23249  -5797947.95949  22686017.5634   22686025.0854
 96  4 18 16 55 29.9940000  0  7 16  2 27 31 19 18  7
  22524653.225    -8889890.76849  -6914228.64449  22524650.2164   22524658.4584
  20151241.987   -14537026.27149 -11026401.87549  20151239.2454   20151245.0204
  19135490.070   -14365967.82249 -11176361.33149  19135488.8804   19135493.7194
  20924142.277    -4523279.50849  -3517774.74049  20924140.8874   20924146.5534
  19043467.736    -8355462.28549  -6501658.42449  19043467.8334   19043472.6474
  20985651.881      268378.80149    207173.37749  20985649.5544   20985655.4504
  22648266.670    -7676904.22649  -5952512.56749  22648271.1604   22648278.2734
 96  4 18 16 55 59.9940000  0  7 16  2 27 31 19 18  7
  22512248.491    -8955055.73449  -6965006.56549  22512249.9674   22512258.8324
  20126704.010   -14665960.03949 -11126869.74049  20126704.2564   20126710.3124
  19110347.838   -14498092.20949 -11279315.39849  19110346.4324   19110351.3204
  20919980.462    -4545138.99649  -3534808.13249  20919980.2484   20919987.0874
  19029599.716    -8428337.15649  -6558444.04849  19029599.9074   19029605.2134
  20987595.594      278615.79449    215150.22149  20987597.2974   20987603.0404
  22610514.687    -7875265.10449  -6107079.45349  22610523.8524   22610531.9144
 96  4 18 16 56 29.9940000  0  7 16  2 27 31 19 18  7
  22499928.959    -9019815.97549  -7015469.11249  22499926.5704   22499935.0864
  20102211.449   -14794678.99349 -11227170.20849  20102209.7054   20102215.9704
  19085248.758   -14629981.23949 -11382086.07049  19085248.9774   19085253.5474
  20915911.184    -4566534.42049  -3551479.90149  20915910.2014   20915915.1284
  19015779.541    -8500970.48749  -6615041.46349  19015778.4864   19015783.5414
  20989587.684      289078.42749    223302.89949  20989587.6364   20989593.8494
  22572779.868    -8073637.53149  -6261655.32749  22572774.9994   22572782.3024
 96  4 18 16 56 59.9940000  0  7 16  2 27 31 19 18  7
  22487679.855    -9084161.72849  -7065608.70149  22487682.3184   22487690.3784
  20077758.360   -14923180.97149 -11327301.61249  20077756.4054   20077762.6224
  19060196.010   -14761640.56049 -11484677.74649  19060194.8034   19060199.7734
  20911931.120    -4587457.35149  -3567783.49849  20911928.6954   20911935.2344
  19002009.196    -8573335.72749  -6671429.96349  19002007.7554   19002012.7574
  20991621.649      299748.34249    231617.08049  20991618.9234   20991624.8354
  22535030.241    -8272009.15449  -6416230.55949  22535025.4754   22535033.3004
 96  4 18 16 57 29.9940000  0  7 16  2 27 31 19 18  7
  22475520.635    -9148107.50649  -7115436.61849  22475514.3354   22475521.2554
  20053343.456   -15051478.14249 -11427273.42249  20053342.7024   20053348.6654
  19035182.349   -14893088.52149 -11587104.73249  19035181.2194   19035186.2434
  20908035.950    -4607924.79049  -3583732.17149  20908033.7744   20908038.9254
  18988288.722    -8645433.59949  -6727610.13049  18988288.2214   18988293.0854
  20993687.089      310609.79949    240080.50849  20993685.9504   20993691.9514
  22497274.201    -8470387.95349  -6570811.39449  22497276.1124   22497282.6384
 96  4 18 16 57 59.9940000  0  7 16  2 27 31 19 18  7
  22463428.380    -9211642.09749  -7164944.11549  22463423.5324   22463431.2584
  20028972.797   -15179555.45449 -11527073.91749  20028970.6074   20028976.2064
  19010206.489   -15024333.34549 -11689373.42549  19010206.0204   19010210.9404
  20904226.535    -4627943.10549  -3599330.86349  20904224.6354   20904230.0364
  18974623.034    -8717246.23849  -6783568.03549  18974622.4694   18974627.5644
  20995791.346      321673.32849    248701.39949  20995791.4624   20995796.8454
  22459531.757    -8668754.07949  -6725382.36349  22459528.1034   22459535.8244
 96  4 18 16 58 29.9940000  0  7 16  2 27 31 19 18  7
  22451407.461    -9274773.68149  -7214137.58849  22451410.6244   22451418.0944
  20004643.007   -15307401.67549 -11626694.33849  20004641.7514   20004647.8484
  18985267.361   -15155392.55449 -11791497.48249  18985266.3374   18985271.3324
  20900496.980    -4647528.88449  -3614592.52749  20900497.8054   20900502.7464
  18961009.178    -8788783.13449  -6839311.08149  18961009.5014   18961014.7104
  20997937.727      332940.54549    257481.00549  20997935.2054   20997940.9484
  22421785.828    -8867087.12649  -6879927.56949  22421786.1264   22421794.1474
 96  4 18 16 58 59.9940000  0  7 16  2 27 31 19 18  7
  22439476.872    -9337518.14849  -7263029.41849  22439470.6744   22439478.3014
  19980363.728   -15434995.07649 -11726117.75949  19980361.7444   19980367.7684
  18960361.623   -15286266.71249 -11893477.34549  18960361.8404   18960366.7234
  20896853.846    -4666681.17649  -3629516.42049  20896853.4184   20896857.9984
  18947448.748    -8860051.86149  -6894845.15549  18947447.8324   18947452.6884
  21000121.916      344426.69749    266431.21649  21000121.6594   21000126.8094
  22384051.766    -9065377.30049  -7034439.36249  22384053.5414   22384060.4224
 96  4 18 16 59 29.9940000  0  7 16  2 27 31 19 18  7
  22427599.267    -9399865.64449  -7311611.89749  22427606.7844   22427614.3994
  19956133.041   -15562332.94849 -11825342.05749  19956130.0734   19956135.5574
  18935497.574   -15416936.12249 -11995297.66149  18935496.2194   18935501.2354
  20893289.247    -4685409.45949  -3644109.88849  20893288.7954   20893294.9974
  18933937.745    -8931049.56749  -6950168.04549  18933937.0094   18933942.2964
  21002348.137      356138.33349    275557.12249  21002349.9734   21002355.3494
  22346328.509    -9263622.07549  -7188915.77649  22346328.1084   22346335.7894
 96  4 18 16 59 59.9940000  0  7 16  2 27 31 19 18  7
  22415825.779    -9461808.38449  -7359879.00849  22415820.5314   22415826.5024
  19931944.968   -15689422.57749 -11924372.92249  19931946.0654   19931951.2754
  18910674.888   -15547379.21449 -12096941.63249  18910673.9824   18910678.7854
  20889809.310    -4703696.24249  -3658359.35049  20889809.7294   20889814.0334
  18920477.658    -9001780.21349  -7005282.84449  18920477.4004   18920483.0144
  21004624.419      368077.39449    284860.24449  21004621.6834   21004626.8624
  22308614.769    -9461813.92249  -7343350.95549  22308613.7334   22308621.4964
 96  4 18 17  0 29.9940000  0  7 16  2 27 31 19 18  7
  22404112.447    -9523354.70549  -7407837.21149  22404107.8224   22404115.3424
  19907808.859   -15816271.24549 -12023216.02049  19907807.5134   19907812.9994
  18885898.698   -15677577.04949 -12198394.48749  18885897.9234   18885902.9224
  20886416.823    -4721528.31549  -3672254.49849  20886415.7344   20886421.4134
  18907066.449    -9072256.68049  -7060199.58049  18907066.1744   18907071.5604
  21006936.327      380227.88749    294328.11949  21006934.1224   21006939.3394
  22270907.172    -9659955.55249  -7497746.98749  22270908.4524   22270915.3684
 96  4 18 17  0 59.9940000  0  7 16  2 27 31 19 18  7
  22392475.535    -9584486.94749  -7455472.74649  22392474.6034   22392481.5564
  19883715.015   -15942877.87749 -12121870.52949  19883714.8914   19883720.8814
  18861171.815   -15807508.56649 -12299639.82649  18861172.7504   18861177.8294
  20883111.779    -4738898.55849  -3685789.76049  20883110.1964   20883115.5214
  18893709.531    -9142448.86449  -7114894.78949  18893709.0914   18893714.3484
  21009287.478      392595.39749    303965.11149  21009287.4894   21009292.7984
  22233214.832    -9858042.99049  -7652100.79449  22233214.0284   22233220.7904
 96  4 18 17  1 29.9940000  0  7 16  2 27 31 19 18  7
  22380916.296    -9645192.37249  -7502775.70849  22380923.0254   22380930.0424
  19859666.047   -16069262.12649 -12220351.75249  19859664.6644   19859670.5304
  18836498.723   -15937174.61149 -12400678.30149  18836498.1264   18836503.0594
  20879892.792    -4755817.55349  -3698973.40849  20879891.5264   20879896.9614
  18880406.412    -9212354.71949  -7169366.89549  18880406.4704   18880412.0334
  21011683.256      405171.64449    313764.72549  21011680.9034   21011685.5314
  22195520.109   -10056077.28749  -7806413.19649  22195529.2834   22195536.3264
 96  4 18 17  1 59.9940000  0  7 16  2 27 31 19 18  7
  22369462.664    -9705479.13049  -7549752.42449  22369450.7514   22369459.1114
  19835657.135   -16195421.49549 -12318657.75249  19835657.4004   19835662.9394
  18811874.056   -16066577.87049 -12501512.01049  18811873.6864   18811878.4674
  20876759.358    -4772278.13349  -3711799.84249  20876759.3814   20876764.3424
  18867157.256    -9281985.34049  -7223624.52549  18867156.3164   18867161.6084
  21014115.246      417953.68749    323724.70449  21014113.1524   21014118.6884
  22157859.283   -10254057.72849  -7960683.61249  22157854.5404   22157861.9894
 96  4 18 17  2 29.9940000  0  7 16  2 27 31 19 18  7
  22358059.350    -9765346.85649  -7596402.59949  22358057.9634   22358065.5414
  19811696.580   -16321339.09149 -12416775.35049  19811696.2224   19811701.8144
  18787295.347   -16195735.27249 -12602154.13949  18787296.0164   18787300.5304
  20873710.940    -4788298.29349  -3724283.09849  20873709.8294   20873715.7134
  18853960.751    -9351327.37749  -7277657.28849  18853960.7624   18853966.1244
  21016584.825      430938.21549    333842.48749  21016584.1234   21016589.3224
  22120193.878   -10451981.01649  -8114909.50649  22120191.1924   22120198.1074
 96  4 18 17  2 59.9940000  0  7 16  2 27 31 19 18  7
  22346735.472    -9824801.76349  -7642731.13749  22346743.3424   22346751.8534
  19787780.406   -16447021.34449 -12514709.56349  19787779.8074   19787785.2294
  18762763.037   -16324664.46449 -12702618.43549  18762761.5544   18762766.3054
  20870742.579    -4803902.39749  -3736442.16049  20870740.4554   20870745.9344
  18840819.381    -9420386.82949  -7331469.85549  18840819.1654   18840824.4604
  21019091.512      444117.36949    344111.91649  21019092.2264   21019097.6944
  22082533.030   -10649857.95349  -8269099.30149  22082536.0074   22082542.9104
 96  4 18 17  3 29.9940000  0  7 16  2 27 31 19 18  7
  22335506.622    -9883851.99249  -7688744.35349  22335508.1774   22335514.3714
  19763909.708   -16572463.26649 -12612456.50749  19763908.9484   19763914.4764
  18738269.704   -16453366.24049 -12802905.53149  18738270.3704   18738274.9664
  20867854.702    -4819083.17349  -3748271.35049  20867852.5464   20867857.6554
  18827729.066    -9489179.71649  -7385074.70749  18827728.3394   18827733.3384
  21021636.736      457488.21749    354530.71849  21021636.2954   21021641.4694
  22044898.069   -10847680.09849  -8423246.40049  22044891.2414   22044899.0634
 96  4 18 17  3 59.9940000  0  7 16  2 27 31 19 18  7
  22324340.565    -9942519.45549  -7734459.28849  22324344.3734   22324350.6584
  19740088.352   -16697660.81649 -12710013.02949  19740084.4924   19740090.1794
  18713820.268   -16581855.02549 -12903026.65849  18713819.6424   18713824.4464
  20865041.434    -4833853.21849  -3759780.49849  20865041.4254   20865046.8444
  18814689.925    -9557700.16249  -7438467.27149  18814689.2454   18814694.4854
  21024214.779      471028.00049    365081.15649  21024212.7984   21024218.3854
  22007250.030   -11045447.63949  -8577350.96749  22007257.7834   22007265.3934
 96  4 18 17  4 29.9930000  0  7 16  2 27 31 19 18  7
  22313264.603   -10000795.94649  -7779869.55849  22313254.4184   22313261.8544
  19716309.116   -16822607.26949 -12807373.89749  19716307.7504   19716313.2424
  18689411.052   -16710116.05849 -13002970.31849  18689412.5314   18689417.1684
  20862309.360    -4848209.01249  -3770966.85149  20862309.8944   20862314.5284
  18801708.828    -9625919.46849  -7491625.18949  18801707.9714   18801712.7404
  21026824.689      484738.21949    375764.39549  21026822.2794   21026827.6954
  21969644.236   -11243136.46149  -8731394.16949  21969639.1164   21969646.5324
 96  4 18 17  4 59.9930000  0  7 16  2 27 31 19 18  7
  22302235.897   -10058699.12649  -7824988.94849  22302235.4324   22302241.8964
  19692572.181   -16947343.56449 -12904571.00349  19692571.5724   19692576.9854
  18665047.715   -16838159.95949 -13102744.78649  18665046.6134   18665051.1584
  20859655.098    -4862165.14049  -3781841.77149  20859653.9944   20859659.1234
  18788777.812    -9693867.79949  -7544571.94749  18788778.0234   18788782.7054
  21029460.598      498605.88849    386570.33949  21029460.0504   21029467.0194
  21932031.483   -11440769.82749  -8885394.14949  21932030.6504   21932037.8974
 96  4 18 17  5 29.9930000  0  7 16  2 27 31 19 18  7
  22291285.003   -10116231.42749  -7869819.34749  22291287.6694   22291294.3114
  19668877.552   -17071868.58549 -13001603.47749  19668875.3284   19668880.9144
  18640723.970   -16965975.99749 -13202341.69949  18640723.7354   18640728.5764
  20857074.002    -4875723.67549  -3792406.89149  20857074.1754   20857079.2384
  18775901.356    -9761536.65049  -7597300.93449  18775900.8014   18775905.9284
  21032130.853      512640.10549    397506.04149  21032131.2224   21032137.6434
  21894439.168   -11638328.58149  -9039335.99949  21894436.1814   21894443.6784
 96  4 18 17  5 59.9930000  0  7 16  2 27 31 19 18  7
  22280420.129   -10173367.88949  -7914341.30549  22280414.7994   22280422.2294
  19645221.322   -17196167.62849 -13098459.86549  19645221.7264   19645227.6064
  18616449.929   -17093538.99749 -13301741.44049  18616449.3944   18616454.0924
  20854572.601    -4888870.83149  -3802651.45649  20854572.0004   20854577.1834
  18763082.306    -9828894.26049  -7649787.38949  18763082.7264   18763088.3104
  21034836.880      526867.37049    408592.17849  21034838.3934   21034844.7964
  21856854.147   -11835788.80749  -9193201.05349  21856861.0404   21856868.3634
 96  4 18 17  6 29.9930000  0  7 16  2 27 31 19 18  7
  22269614.092   -10230118.27249  -7958562.39749  22269614.5164   22269623.4864
  19621605.244   -17320264.85049 -13195158.99349  19621606.6214   19621612.6544
  18592224.142   -17220850.94849 -13400945.55749  18592222.5564   18592227.5804
  20852146.893    -4901619.02549  -3812585.13449  20852146.0184   20852152.1914
  18750317.512    -9895984.13949  -7702065.22649  18750316.5424   18750321.2424
  21037586.020      541296.26049    419835.42049  21037584.4684   21037589.7714
  21819297.302   -12033172.04949  -9347006.13249  21819300.3774   21819307.7084
 96  4 18 17  6 59.9930000  0  7 16  2 27 31 19 18  7
  22258886.093   -10286500.46049  -8002496.60049  22258886.8834   22258893.6904
  19598034.147   -17444161.29349 -13291701.67049  19598030.2244   19598036.1184
  18568040.925   -17347928.43549 -13499966.97249  18568040.7464   18568045.6414
  20849794.428    -4913980.52549  -3822217.49649  20849793.6914   20849798.7954
  18737598.523    -9962821.80649  -7754146.53249  18737597.5414   18737602.5644
  21040369.972      555929.06249    431237.54649  21040369.1804   21040374.7814
  21781753.745   -12230489.91049  -9500760.26949  21781752.2154   21781759.6934
 96  4 18 17  7 29.9930000  0  7 16  2 27 31 19 18  7
  22248227.982   -10342496.33649  -8046129.78149  22248230.7134   22248238.5124
  19574498.935   -17567823.86149 -13388062.10449  19574497.7964   19574503.5984
  18543907.965   -17474754.24049 -13598792.26949  18543906.5034   18543911.3734
  20847521.682    -4925933.16849  -3831531.27249  20847519.4054   20847524.2464
  18724933.490   -10029371.09049  -7806003.12649  18724933.7984   18724938.8114
  21043197.613      570783.15049    442812.12349  21043195.1694   21043201.4244
  21744216.148   -12427729.15949  -9654453.15449  21744218.8834   21744225.4914
 96  4 18 17  7 59.9930000  0  7 16  2 27 31 19 18  7
  22237655.574   -10398095.21349  -8089453.62949  22237650.3184   22237657.4184
  19551013.920   -17691232.92049 -13484225.00249  19551013.9774   19551019.5444
  18519822.927   -17601317.27349 -13697412.81649  18519822.3874   18519827.1884
  20845326.612    -4937452.54249  -3840507.41049  20845326.3184   20845332.2934
  18712326.483   -10095622.02349  -7857627.24049  18712326.3754   18712331.7184
  21046066.042      585863.87749    454563.28549  21046065.8204   21046070.9704
  21706709.533   -12624876.37849  -9808074.31649  21706702.4434   21706709.9654
 96  4 18 17  8 29.9930000  0  7 16  2 27 31 19 18  7
  22227155.077   -10453320.03849  -8132485.97849  22227140.3404   22227149.6174
  19527576.638   -17814398.04349 -13580197.81849  19527576.4084   19527582.2864
  18495788.107   -17727625.89949 -13795835.12349  18495786.7804   18495791.4534
  20843218.366    -4948547.34149  -3849152.71249  20843215.7474   20843220.7454
  18699771.322   -10161602.92249  -7909040.93849  18699770.9974   18699775.9904
  21048973.159      601145.51649    466471.00149  21048974.4754   21048979.2004
  21669198.169   -12821940.18549  -9961630.50749  21669202.8404   21669210.3644
 96  4 18 17  8 59.9930000  0  7 16  2 27 31 19 18  7
  22216703.592   -10508180.71949  -8175234.59849  22216701.6264   22216710.1024
  19504187.152   -17937322.20749 -13675982.86549  19504184.6554   19504190.6364
  18471798.698   -17853680.19849 -13894059.25549  18471799.2764   18471804.1044
  20841185.204    -4959218.22349  -3857467.71949  20841185.6554   20841191.0894
  18687271.243   -10227295.01449  -7960229.59549  18687269.8064   18687275.0474
  21051917.568      616606.08149    478518.15549  21051916.2734   21051922.3634
  21631725.825   -13018911.58249 -10115114.68249  21631720.8054   21631727.2644
 96  4 18 17  9 29.9930000  0  7 16  2 27 31 19 18  7
  22206320.906   -10562682.97249  -8217703.91649  22206331.2234   22206338.2714
  19480838.388   -18060014.89649 -13771587.55049  19480836.8254   19480842.8624
  18447863.762   -17979468.01049 -13992075.73249  18447862.3584   18447867.6334
  20839237.135    -4969468.22049  -3865454.73649  20839235.4264   20839240.4764
  18674823.229   -10292707.11049  -8011200.06549  18674822.3354   18674827.4034
  21054892.909      632236.39449    490697.55749  21054890.8054   21054895.9514
  21594255.088   -13215792.58949 -10268528.40649  21594256.0184   21594261.6554
 96  4 18 17  9 59.9930000  0  7 16  2 27 31 19 18  7
  22196041.918   -10616819.88049  -8259888.53949  22196028.6904   22196036.9474
  19457535.842   -18182470.67949 -13867007.63949  19457534.4244   19457540.3774
  18423981.331   -18104967.18949 -14089867.30149  18423980.5934   18423985.8974
  20837366.492    -4979286.97149  -3873105.71149  20837366.2454   20837372.1684
  18662427.311   -10357847.05049  -8061958.46649  18662426.8314   18662431.6764
  21057899.510      648048.93049    503018.96549  21057899.9554   21057904.7174
  21556805.862   -13412559.77749 -10421853.46349  21556812.1064   21556818.6254
 96  4 18 17 10 29.9930000  0  7 16  2 27 31 19 18  7
  22185792.663   -10670598.30449  -8301793.84049  22185795.5444   22185802.8814
  19434275.416   -18304702.32149 -13962253.06449  19434274.3304   19434280.2884
  18400154.608   -18230179.73149 -14187435.51949  18400153.8344   18400158.8054
  20835576.949    -4988699.19649  -3880439.95049  20835576.3294   20835580.6114
  18650082.579   -10422719.24849  -8112508.23749  18650082.1584   18650087.2574
  21060941.660      664033.19049    515474.18649  21060941.3074   21060946.8644
  21519389.283   -13609227.94049 -10575101.33249  21519386.3724   21519393.3754
 96  4 18 17 10 59.9930000  0  7 16  2 27 31 19 18  7
  22175639.517   -10724012.38349  -8343415.25349  22175631.1754   22175638.0564
  19411059.602   -18426698.68049 -14057315.14849  19411059.1924   19411064.8804
  18376379.948   -18355110.77449 -14284784.37949  18376380.3154   18376384.9474
  20833861.313    -4997712.09249  -3887462.98449  20833861.6114   20833865.7594
  18637796.364   -10487287.75649  -8162821.36649  18637794.6094   18637799.9774
  21064020.563      680197.15749    528069.42449  21064017.3934   21064022.6134
  21481980.017   -13805798.63449 -10728273.27049  21481981.1314   21481987.3634
 96  4 18 17 11 29.9930000  0  7 16  2 27 31 19 18  7
  22165531.264   -10777049.76149  -8384743.08349  22165537.5264   22165545.6274
  19387891.716   -18548449.70249 -14152186.06649  19387890.6724   19387896.3984
  18352658.764   -18479766.90049 -14381919.02449  18352658.9114   18352663.5854
  20832219.464    -5006335.57549  -3894182.60449  20832218.9974   20832225.4734
  18625566.901   -10551546.48649  -8212893.12249  18625566.5454   18625572.0534
  21067124.562      696531.78049    540797.65249  21067125.8684   21067131.1884
  21444598.628   -14002264.25049 -10881363.30549  21444594.4214   21444601.2734
 96  4 18 17 11 59.9930000  0  7 16  2 27 31 19 18  7
  22155521.831   -10829717.11749  -8425782.62949  22155515.4464   22155523.9624
  19364768.000   -18669968.29249 -14246875.87049  19364766.2444   19364772.2464
  18328986.184   -18604175.30449 -14478860.63849  18328984.7924   18328989.5684
  20830647.540    -5014598.40249  -3900621.20549  20830646.2554   20830652.4764
  18613398.544   -10615495.73949  -8262723.71949  18613397.8994   18613402.9054
  21070262.333      713009.12049    553637.07149  21070260.5354   21070266.7294
  21407225.246   -14198629.00349 -11034374.76249  21407227.3064   21407234.4954
 96  4 18 17 12 29.9930000  0  7 16  2 27 31 19 18  7
  22145556.569   -10882017.85649  -8466536.46749  22145562.0744   22145570.8264
  19341686.140   -18791249.44649 -14341380.66049  19341687.8174   19341693.4574
  18305356.668   -18728344.21649 -14575615.63249  18305356.2834   18305361.0164
  20829144.146    -5022502.58749  -3906780.34449  20829142.9094   20829148.4274
  18601294.313   -10679101.33349  -8312286.52249  18601294.4124   18601299.3004
  21073422.022      729617.66649    566578.74549  21073421.8314   21073426.6274
  21369881.675   -14394897.45149 -11187311.16949  21369878.8714   21369884.9184
 96  4 18 17 12 59.9920000  0  7 16  2 27 31 19 18  7
  22135687.803   -10933944.73149  -8506999.00149  22135681.5924   22135688.7524
  19318658.588   -18912275.32749 -14435686.53449  19318657.4634   19318662.9314
  18281774.229   -18852270.54949 -14672181.60649  18281773.8244   18281778.4894
  20827711.761    -5030033.29949  -3912648.43849  20827710.0654   20827714.8094
  18589258.257   -10742350.47849  -8361571.58149  18589258.3504   18589263.2644
  21076607.816      746354.84149    579620.64249  21076606.5504   21076612.1314
  21332549.808   -14591039.26549 -11340148.90549  21332553.7674   21332560.4264
 96  4 18 17 13 29.9920000  0  7 16  2 27 31 19 18  7
  22125878.149   -10985508.20449  -8547178.35349  22125869.6224   22125876.3734
  19295672.754   -19033072.54849 -14529814.22749  19295670.2544   19295675.8564
  18258237.936   -18975955.72449 -14768559.66449  18258237.1834   18258241.9964
  20826345.381    -5037195.86849  -3918229.68549  20826346.0304   20826352.8554
  18577284.327   -10805275.17049  -8410603.81649  18577283.9734   18577289.3064
  21079811.328      763206.25049    592751.55949  21079813.4634   21079818.8044
  21295252.980   -14787070.39349 -11492900.41049  21295250.5324   21295256.7444
 96  4 18 17 13 59.9920000  0  7 16  2 27 31 19 18  7
  22116118.453   -11036727.56749  -8587089.57749  22116123.1264   22116130.5994
  19272723.459   -19153667.67749 -14623784.45449  19272721.7744   19272727.7414
  18234746.303   -19099403.66349 -14864752.86449  18234746.0774   18234750.8964
  20825053.432    -5043996.16049  -3923528.62149  20825052.8494   20825057.4924
  18565366.576   -10867902.18049  -8459404.09849  18565366.2584   18565371.6984
  21083038.768      780164.37449    605965.62049  21083040.4494   21083045.2704
  21257964.751   -14983009.66549 -11645580.32249  21257964.7264   21257971.2654
 96  4 18 17 14 29.9920000  0  7 16  2 27 31 19 18  7
  22106448.892   -11087581.87249  -8626716.33149  22106446.5694   22106453.9174
  19249817.122   -19274032.15549 -14717574.95649  19249816.8414   19249823.0974
  18211308.299   -19222569.37349 -14960726.13749  18211308.4904   18211313.5134
  20823837.804    -5050389.81549  -3928510.72149  20823836.6464   20823841.7014
  18553506.650   -10930221.98049  -8507964.99249  18553507.3214   18553512.5164
  21086296.461      797265.90949    619291.44149  21086294.7554   21086300.6074
  21220705.287   -15178825.52749 -11798164.08049  21220702.2914   21220708.7924
 96  4 18 17 14 59.9920000  0  7 16  2 27 31 19 18  7
  22096826.791   -11138073.40749  -8666060.40949  22096838.1434   22096844.7424
  19226955.886   -19394181.13249 -14811197.52949  19226953.4744   19226959.5114
  18187926.678   -19345445.18349 -15056473.52049  18187925.6604   18187930.9744
  20822692.236    -5056393.54849  -3933188.95649  20822693.1854   20822700.1844
  18541698.407   -10992277.76349  -8556320.15449  18541698.5624   18541703.4854
  21089580.359      814519.99549    632736.15249  21089578.3064   21089582.9914
  21183462.036   -15374508.22349 -11950644.06049  21183465.0544   21183471.6144
 96  4 18 17 15 29.9920000  0  7 16  2 27 31 19 18  7
  22087298.554   -11188181.21549  -8705105.50249  22087302.9594   22087309.9104
  19204133.713   -19514101.99949 -14904642.35549  19204133.3674   19204139.4074
  18164605.835   -19467986.82149 -15151960.51149  18164606.9314   18164612.0204
  20821630.024    -5061998.89049  -3937556.76449  20821627.3354   20821632.9564
  18529942.828   -11054052.68149  -8604456.46349  18529942.9594   18529948.3744
  21092900.647      831967.24349    646331.34749  21092898.9264   21092904.2554
  21146253.920   -15570043.95649 -12103009.52949  21146255.5734   21146262.1764
 96  4 18 17 15 59.9920000  0  7 16  2 27 31 19 18  7
  22077834.220   -11237936.01849  -8743875.50549  22077835.6794   22077839.7684
  19181354.587   -19633806.10149 -14997918.27049  19181354.1914   19181359.7994
  18141346.423   -19590224.94849 -15247210.99749  18141345.8244   18141350.7734
  20820630.868    -5067233.12249  -3941635.39949  20820630.6694   20820636.2264
  18518236.517   -11115570.04249  -8652392.07149  18518236.3314   18518242.2314
  21096254.513      849597.16549    660068.88949  21096252.5514   21096259.2874
  21109074.813   -15765447.10949 -12255271.68949  21109071.3754   21109078.4424
 96  4 18 17 16 29.9920000  0  7 16  2 27 31 19 18  7
  22068435.763   -11287340.11549  -8782372.23649  22068432.8494   22068440.0414
  19158623.466   -19753275.13349 -15091011.01249  19158620.0364   19158625.8894
  18118145.511   -19712147.36849 -15342215.48049  18118144.7914   18118149.8364
  20819704.623    -5072105.55249  -3945432.12649  20819704.4464   20819710.0414
  18506581.674   -11176814.96249  -8700115.39449  18506582.2174   18506587.8174
  21099640.265      867407.37149    673946.92149  21099642.2134   21099648.4994
  21071916.676   -15960697.79749 -12407415.02749  21071916.3314   21071923.6624
 96  4 18 17 16 59.9920000  0  7 16  2 27 31 19 18  7
  22059099.134   -11336374.69449  -8820581.03449  22059102.6934   22059108.7714
  19135934.284   -19872493.93249 -15183908.77249  19135933.2804   19135939.4834
  18095006.253   -19833748.25649 -15436969.41649  18095004.9094   18095009.6664
  20818847.932    -5076612.70049  -3948944.20949  20818845.9564   20818851.6104
  18494987.100   -11237748.69449  -8747596.22949  18494987.0044   18494992.6274
  21103067.903      885410.61149    687975.36149  21103069.0684   21103073.5604
  21034792.267   -16155789.43949 -12559434.44249  21034791.8574   21034797.9624
 96  4 18 17 17 29.9920000  0  7 16  2 27 31 19 18  7
  22049838.140   -11385089.03549  -8858540.31249  22049833.5174   22049839.6344
  19113289.856   -19991489.01149 -15276632.20449  19113289.4384   19113295.6324
  18071916.767   -19955071.07349 -15531506.67649  18071917.8284   18071922.8414
  20818054.977    -5080778.85749  -3952190.57449  20818054.0824   20818058.6084
  18483449.942   -11298375.65449  -8794838.02649  18483450.1504   18483455.5084
  21106521.290      903549.45249    702109.44949  21106520.3774   21106525.1874
  20997692.479   -16350756.60949 -12711356.87749  20997690.6814   20997697.0884
 96  4 18 17 17 59.9920000  0  7 16  2 27 31 19 18  7
  22040623.974   -11433490.80449  -8896256.01149  22040622.2294   22040628.5724
  19090689.920   -20110253.14849 -15369175.68249  19090689.4084   19090695.4354
  18048878.849   -20076131.64649 -15625839.59449  18048880.6784   18048885.8534
  20817328.759    -5084592.92449  -3955162.60249  20817327.3124   20817333.8954
  18471972.925   -11358693.50849  -8841838.97649  18471971.9964   18471977.4504
  21109992.831      921801.64849    716331.88349  21109993.8024   21109999.0474
  20960619.146   -16545586.54449 -12863172.36449  20960615.7144   20960621.9334
 96  4 18 17 18 29.9920000  0  7 16  2 27 31 19 18  7
  22031474.444   -11481585.65249  -8933732.55749  22031471.0224   22031476.2544
  19068132.191   -20228797.41249 -15461547.82949  19068131.3814   19068136.8994
  18025895.061   -20196921.82649 -15719961.81849  18025894.9724   18025900.2374
  20816669.440    -5088062.02449  -3957865.81749  20816667.5034   20816673.3484
  18460555.353   -11418693.16449  -8888591.96249  18460554.2544   18460559.8574
  21113487.507      940159.56049    730636.69649  21113486.8184   21113493.9644
  20923565.086   -16740280.80949 -13014882.14749  20923566.6154   20923572.7534
 96  4 18 17 18 59.9920000  0  7 16  2 27 31 19 18  7
  22022371.465   -11529370.97849  -8970967.90649  22022377.2784   22022383.1014
  19045615.123   -20347121.44749 -15553748.37449  19045615.1604   19045620.4434
  18002961.233   -20317444.23749 -15813875.38749  18002960.4764   18002965.5184
  20816073.855    -5091185.74049  -3960299.89749  20816072.9234   20816078.7904
  18449198.794   -11478367.38549  -8935091.36849  18449198.7724   18449204.0974
  21117003.997      958630.25549    745029.39549  21117002.2014   21117007.8194
  20886545.807   -16934839.19749 -13166486.04849  20886543.4744   20886549.7564
 96  4 18 17 19 29.9920000  0  7 16  2 27 31 19 18  7
  22013338.420   -11576865.58349  -9007976.72749  22013339.2754   22013345.1614
  19023135.425   -20465255.22949 -15645800.66149  19023134.8934   19023140.4424
  17980073.059   -20437716.89649 -15907594.34449  17980073.5694   17980078.4274
  20815538.619    -5093995.14049  -3962489.06249  20815538.5314   20815543.9934
  18437897.830   -11537760.84049  -8981371.98449  18437896.8384   18437902.5714
  21120533.758      977183.58249    759486.47849  21120532.5674   21120537.7594
  20849541.727   -17129274.36349 -13317993.93749  20849543.9494   20849550.6324
 96  4 18 17 19 59.9920000  0  7 16  2 27 31 19 18  7
  22004369.185   -11624031.29649  -9044729.24149  22004364.3764   22004369.5214
  19000696.523   -20583176.60849 -15737687.45149  19000695.2074   19000700.9884
  17957239.562   -20557711.46949 -16001096.61349  17957239.3624   17957244.2154
  20815067.459    -5096477.13749  -3964423.10949  20815065.5044   20815072.5394
  18426651.013   -11596860.76649  -9027423.88449  18426650.5274   18426655.9014
  21124085.124      995844.76649    774027.59649  21124083.2654   21124090.8934
  20812570.964   -17323567.26249 -13469390.96549  20812570.7034   20812577.4454
 96  4 18 17 20 29.9920000  0  7 16  2 27 31 19 18  7
  21995455.880   -11670858.60349  -9081218.09449  21995452.3884   21995458.3324
  18978293.969   -20700896.09349 -15829416.91749  18978293.8614   18978299.6194
  17934461.676   -20677416.08749 -16094372.93949  17934460.0784   17934464.9444
  20814658.476    -5098635.73849  -3966105.16349  20814655.7874   20814661.6124
  18415463.086   -11655653.57649  -9073236.47449  18415462.5094   18415467.8204
  21127651.701     1014614.28749    788653.14049  21127655.1794   21127663.0554
  20775625.990   -17517722.06849 -13620680.38149  20775625.0444   20775631.1744
 96  4 18 17 20 59.9920000  0  7 16  2 27 31 19 18  7
  21986607.381   -11717346.82849  -9117442.70049  21986606.0654   21986612.4974
  18955932.303   -20818413.12649 -15920988.62449  18955931.1114   18955937.1204
  17911734.667   -20796836.21049 -16187427.58549  17911735.2774   17911740.6254
  20814304.825    -5100467.11049  -3967532.23149  20814306.2964   20814313.1174
  18404331.032   -11714150.93849  -9118818.83749  18404330.7814   18404336.4694
  21131245.373     1033482.57949    803355.65249  21131244.9494   21131253.0004
  20738704.175   -17711741.50949 -13771864.31549  20738704.0864   20738710.1384
 96  4 18 17 21 29.9910000  0  7 16  2 27 31 19 18  7
  21977813.090   -11763495.98249  -9153403.11749  21977824.0244   21977830.0244
  18933607.559   -20935720.03449 -16012396.60249  18933608.2934   18933614.2764
  17889068.513   -20915956.36349 -16280248.48449  17889067.4634   17889072.5504
  20814025.347    -5101947.08949  -3968685.49949  20814025.1364   20814031.8154
  18393255.316   -11772352.02949  -9164170.34549  18393255.6984   18393261.2834
  21134855.331     1052446.84249    818132.94449  21134854.6944   21134861.1554
  20701812.984   -17905606.17149 -13922927.63949  20701812.6774   20701819.3844
 96  4 18 17 21 59.9910000  0  7 16  2 27 31 19 18  7
  21969090.085   -11809361.47749  -9189142.50149  21969096.2604   21969102.4774
  18911320.869   -21052840.88349 -16103659.60249  18911320.9734   18911326.7214
  17866450.973   -21034808.75149 -16372860.73049  17866450.3664   17866455.6664
  20813809.866    -5103086.68249  -3969573.49949  20813809.0374   20813814.0024
  18382233.819   -11830271.41949  -9209302.34349  18382233.8104   18382239.3734
  21138481.642     1071486.90749    832969.31949  21138478.2024   21138484.4904
  20664941.767   -18099349.96349 -14073896.77949  20664944.5114   20664951.1124
 96  4 18 17 22 29.9910000  0  7 16  2 27 31 19 18  7
  21960422.016   -11854953.93649  -9224669.13549  21960419.6994   21960426.4814
  18889068.497   -21169769.71849 -16194772.97549  18889070.2934   18889076.1154
  17843888.100   -21153374.06249 -16465249.28549  17843888.2814   17843893.7914
  20813659.783    -5103879.93949  -3970191.66949  20813657.3334   20813662.8224
  18371264.375   -11887913.44049  -9254218.21249  18371264.7564   18371270.8384
  21142118.226     1090613.62949    847873.20249  21142117.5134   21142124.1524
  20628104.395   -18292954.88549 -14224757.70949  20628102.0914   20628109.9864
 96  4 18 17 22 59.9910000  0  7 16  2 27 31 19 18  7
  21951785.505   -11900281.94149  -9259989.67849  21951794.4504   21951802.3754
  18866859.951   -21286487.79449 -16285722.12349  18866859.5034   18866865.6594
  17821382.568   -21271646.14749 -16557409.35149  17821381.9614   17821387.1584
  20813572.124    -5104325.17949  -3970538.62749  20813572.3604   20813579.5704
  18360345.804   -11945291.86749  -9298928.69049  18360345.9884   18360351.7804
  21145776.603     1109839.71649    862854.49049  21145776.1894   21145782.9154
  20591289.575   -18486399.59349 -14375493.79949  20591291.8904   20591298.2004
 96  4 18 17 23 29.9910000  0  7 16  2 27 31 19 18  7
  21943213.471   -11945339.98749  -9295099.89449  21943221.0064   21943226.8154
  18844689.368   -21402989.49349 -16376502.67749  18844690.1154   18844696.2564
  17798933.803   -21389614.54449 -16649332.77949  17798933.5374   17798938.6064
  20813553.790    -5104428.10649  -3970618.88249  20813553.0484   20813559.7474
  18349482.473   -12002383.34349  -9343415.56549  18349481.7724   18349487.7504
  21149457.646     1129171.79949    877918.37849  21149455.2454   21149461.7184
  20554513.925   -18679668.44349 -14526092.86149  20554513.1894   20554519.6114
 96  4 18 17 23 59.9910000  0  7 16  2 27 31 19 18  7
  21934692.887   -11990124.25449  -9329996.74949  21934698.2164   21934705.5284
  18822561.599   -21519271.39849 -16467111.94449  18822562.3044   18822568.5644
  17776545.593   -21507268.24949 -16741010.98949  17776544.5554   17776549.8474
  20813591.872    -5104223.91049  -3970459.79649  20813592.0094   20813597.9624
  18338674.861   -12059177.25149  -9387670.56749  18338674.4994   18338680.3674
  21153155.220     1148623.64049    893075.60949  21153155.4534   21153163.2544
  20517769.208   -18872769.45549 -14676561.14649  20517767.9324   20517773.9134
 96  4 18 17 24 29.9910000  0  7 16  2 27 31 19 18  7
  21926230.062   -12034609.44349  -9364660.56649  21926233.7794   21926240.2624
  18800476.289   -21635336.52949 -16557552.30349  18800475.8344   18800481.8404
  17754216.832   -21624595.74249 -16832435.00849  17754217.7384   17754222.9244
  20813687.960    -5103732.54749  -3970076.92249  20813686.2604   20813691.2194
  18327923.977   -12115668.09049  -9431689.41449  18327924.5824   18327930.3824
  21156882.136     1168189.51449    908321.68449  21156880.5314   21156886.1904
  20481057.616   -19065694.74049 -14826892.48449  20481054.9054   20481062.1274
 96  4 18 17 24 59.9910000  0  7 16  2 27 31 19 18  7
  21917828.127   -12078806.84849  -9399100.14249  21917822.9004   21917830.6184
  18778429.178   -21751198.58249 -16647834.42049  18778427.8844   18778433.9564
  17731946.649   -21741627.01549 -16923628.21049  17731947.6194   17731952.9864
  20813826.313    -5102985.74049  -3969495.04349  20813826.3744   20813834.3924
  18317232.289   -12171857.73449  -9475473.56149  18317231.9774   18317238.2224
  21160612.464     1187840.59649    923634.17249  21160618.8904   21160626.7134
  20444374.913   -19258466.09849 -14977103.88649  20444371.5964   20444378.9184
 96  4 18 17 25 29.9910000  0  7 16  2 27 31 19 18  7
  21909462.365   -12122712.58349  -9433312.44549  21909467.8934   21909476.3314
  18756414.645   -21866872.08349 -16737969.61349  18756415.6774   18756422.0834
  17709735.331   -21858360.38149 -17014589.27149  17709734.0364   17709739.0764
  20814020.374    -5101984.81249  -3968715.13549  20814019.4544   20814024.0124
  18306597.279   -12227734.73649  -9519014.08949  18306598.6254   18306604.8344
  21164366.658     1207562.33049    939001.69449  21164372.5444   21164378.9294
  20407714.506   -19451091.07849 -15127201.23449  20407715.5884   20407723.1884
 96  4 18 17 25 59.9910000  0  7 16  2 27 31 19 18  7
  21901157.317   -12166345.58449  -9467312.22849  21901165.4964   21901172.9294
  18734434.246   -21982380.41149 -16827976.09649  18734435.4454   18734441.6544
  17687572.940   -21974809.69249 -17105328.99749  17687574.2864   17687579.8494
  20814257.274    -5100729.41149  -3967736.92549  20814256.2604   20814263.2664
  18296018.049   -12283333.84549  -9562338.08349  18296018.7754   18296024.9544
  21168130.935     1227328.23149    954403.63549  21168133.6444   21168141.2834
  20371086.116   -19643585.80649 -15277197.08049  20371085.6054   20371092.6734
 96  4 18 17 26 29.9910000  0  7 16  2 27 31 19 18  7
  21892917.260   -12209697.21449  -9501092.75149  21892914.7264   21892923.7574
  18712486.978   -22097720.47749 -16917851.46749  18712486.6504   18712493.1664
  17665466.627   -22090979.96849 -17195851.29149  17665467.8634   17665473.2184
  20814551.231    -5099189.57349  -3966537.08949  20814550.6164   20814555.3994
  18285491.483   -12338655.49049  -9605445.87849  18285491.6994   18285497.2694
  21171902.952     1247135.34849    969837.68549  21171903.7724   21171909.5974
  20334482.702   -19835928.44649 -15427074.41649  20334483.3074   20334490.8604
 96  4 18 17 26 59.9910000  0  7 16  2 27 31 19 18  7
  21884695.612   -12252772.93549  -9534658.29449  21884717.4114   21884726.0604
  18690571.508   -22212887.02649 -17007591.62749  18690571.2534   18690577.5284
  17643414.455   -22206870.57349 -17286155.65649  17643414.4964   17643419.8324
  20814899.407    -5097352.88949  -3965105.92449  20814899.8734   20814906.4784
  18275016.805   -12393700.89049  -9648338.41949  18275017.0554   18275022.8974
  21175682.957     1266992.88049    985311.02949  21175681.4424   21175688.8294
  20297913.217   -20028116.40049 -15576831.21849  20297911.5354   20297919.1624
 96  4 18 17 27 29.9910000  0  7 16  2 27 31 19 18  7
  21876574.210   -12295594.30649  -9568025.62549  21876569.2684   21876578.2124
  18668685.654   -22327900.64649 -17097212.62649  18668684.8614   18668691.4004
  17621411.356   -22322497.09349 -17376254.24349  17621411.3794   17621417.0174
  20815303.708    -5095238.31149  -3963458.22649  20815302.1904   20815307.8594
  18264589.952   -12448492.18549  -9691032.94449  18264589.7654   18264596.1744
  21179465.766     1286877.76849   1000805.66849  21179465.9634   21179473.0054
  20261363.803   -20220162.77549 -15726477.70149  20261366.0274   20261373.4004
 96  4 18 17 27 59.9910000  0  7 16  2 27 31 19 18  7
  21868459.773   -12338152.17249  -9601187.64549  21868470.3694   21868478.5934
  18646833.579   -22442726.95349 -17186687.67249  18646834.1964   18646840.6114
  17599460.613   -22437848.02049 -17466138.08049  17599460.9554   17599466.3554
  20815756.718    -5092854.76649  -3961600.93049  20815755.8864   20815761.9864
  18254214.933   -12503016.60849  -9733519.52049  18254214.6714   18254220.6244
  21183260.659     1306807.35349   1016335.15149  21183258.6584   21183264.3874
  20224847.749   -20412059.00549 -15876007.18349  20224849.3874   20224856.4804
 96  4 18 17 28 29.9910000  0  7 16  2 27 31 19 18  7
  21860422.003   -12380440.21549  -9634139.40049  21860423.0184   21860432.4704
  18625024.235   -22557341.06549 -17275997.35749  18625023.8864   18625029.9884
  17577563.311   -22552917.73149 -17555802.78449  17577563.8134   17577569.2084
  20816259.093    -5090217.40649  -3959545.88349  20816257.9564   20816264.2014
  18243892.757   -12557258.17049  -9775785.67449  18243893.0074   18243898.4634
  21187061.673     1326786.11349   1031902.96649  21187060.2814   21187066.6034
  20188365.643   -20603789.54649 -16025407.56149  20188364.4934   20188371.3374
 96  4 18 17 28 59.9910000  0  8 16  2 27 26 31 19 18  7
  21852434.849   -12422451.92749  -9666875.83949  21852429.6064   21852437.2024
  18603257.570   -22671718.96849 -17365122.99649  18603258.6684   18603264.5174
  17555726.803   -22667675.97449 -17645224.79549  17555726.3984   17555731.6054
  22193971.139    -8483905.83959  -6544591.95959  22193976.2764   22193981.9214
  20816808.955    -5087317.11049  -3957285.93949  20816809.4284   20816815.0734
  18233627.898   -12611200.18049  -9817818.42649  18233627.9354   18233633.8944
  21190868.591     1346819.50149   1047513.31649  21190872.5654   21190878.2734
  20151908.874   -20795339.85049 -16174667.51149  20151913.4144   20151920.1534
 96  4 18 17 29 29.9910000  0  9 16  2 27 26 31 19 18 15  7
  21844468.048   -12464210.40949  -9699414.93949  21844483.1274   21844491.1244
  18581537.816   -22785876.75349 -17454077.09149  18581535.1504   18581540.5984
  17533944.503   -22782135.07449 -17734413.69949  17533945.6444   17533950.9114
  22159209.926    -8666547.39849  -6686910.03749  22159220.3794   22159225.7514
  20817411.528    -5084166.14549  -3954830.67249  20817409.4464   20817414.0504
  18223417.765   -12664856.24849  -9859628.34649  18223417.7554   18223423.7184
  21194690.997     1366890.30149   1063152.84949  21194692.3894   21194698.6304
  21908471.030    -3659033.53959  -2427787.12559  21908469.4624   21908477.4004
  20115498.261   -20986728.35949 -16323801.36549  20115494.1284   20115500.3864
 96  4 18 17 29 59.9900000  0  9 16  2 27 26 31 19 18 15  7
  21836589.630   -12505719.18349  -9731759.46349  21836583.7304   21836592.6844
  18559854.510   -22899816.91649 -17542861.62649  18559853.2964   18559858.9094
  17512226.042   -22896272.54849 -17823351.99249  17512225.7764   17512231.2844
  22124493.016    -8848993.58649  -6829075.87049  22124501.4054   22124507.4874
  20818059.238    -5080747.50049  -3952166.80049  20818059.7814   20818065.3344
  18213263.268   -12718221.73549  -9901211.86349  18213263.0194   18213268.4034
  21198522.072     1387014.73549   1078834.15749  21198522.3714   21198527.5234
  21878528.239    -3816382.36449  -2550396.53649  21878528.8264   21878536.2114
  20079105.338   -21177941.53049 -16472798.60549  20079107.0624   20079113.6274
 96  4 18 17 30 29.9900000  0  9 16  2 27 26 31 19 18 15  7
  21828726.274   -12547008.75449  -9763933.19649  21828727.5074   21828735.2284
  18538204.759   -23013591.70049 -17631517.28849  18538202.5134   18538208.3014
  17490563.521   -23010105.85049 -17912053.27249  17490563.8414   17490569.4464
  22089823.962    -9031257.69249  -6971099.83249  22089817.9454   22089824.4334
  20818761.941    -5077059.82149  -3949293.31849  20818762.3504   20818766.2544
  18203159.911   -12771322.39949  -9942589.02649  18203157.9724   18203163.6584
  21202360.399     1407170.81249   1094540.13849  21202357.5794   21202363.5374
  21848614.511    -3973583.14049  -2672890.55049  21848614.1164   21848622.6544
  20042747.395   -21369004.28649 -16621678.63549  20042748.5924   20042755.6624
 96  4 18 17 30 59.9900000  0  9 16  2 27 26 31 19 18 15  7
  21820920.116   -12588074.98149  -9795932.91949  21820912.8634   21820920.7114
  18516584.152   -23127211.22049 -17720051.97749  18516581.2134   18516587.1344
  17468964.483   -23123611.92249 -18000499.56849  17468964.8384   17468969.7614
  22055182.712    -9213308.07649  -7112957.23849  22055175.8474   22055180.5524
  20819516.967    -5073094.63849  -3946203.58449  20819516.4844   20819522.4254
  18193105.107   -12824142.49149  -9983747.55849  18193106.3674   18193111.6754
  21206204.738     1427372.91549   1110281.95149  21206201.8454   21206207.8914
  21818731.315    -4130616.93049  -2795254.53849  21818730.6784   21818739.1764
  20006413.798   -21559920.15449 -16770444.21649  20006418.9324   20006425.6014
 96  4 18 17 31 29.9900000  0  9 16  2 27 26 31 19 18 15  7
  21813147.849   -12628933.09149  -9827770.44849  21813137.4314   21813145.9624
  18494988.005   -23240699.29349 -17808484.23549  18494985.2484   18494991.1234
  17447423.550   -23236811.66849 -18088707.16849  17447423.3794   17447428.5924
  22020572.583    -9395148.83149  -7254651.30949  22020570.9154   22020578.0794
  20820322.125    -5068863.70849  -3942906.78049  20820321.3664   20820326.1104
  18183108.326   -12876684.93649 -10024689.73249  18183108.2514   18183114.2984
  21210055.109     1447619.11149   1126058.15449  21210054.1094   21210061.3364
  21788880.615    -4287486.92549  -2917490.79449  21788880.0004   21788888.5784
  19970119.433   -21750695.38249 -16919100.18949  19970115.4264   19970122.3784
 96  4 18 17 31 59.9900000  0  9 16  2 27 26 31 19 18 15  7
  21805400.527   -12669584.59949  -9859447.00349  21805402.1304   21805410.6594
  18473414.390   -23354059.95849 -17896817.21749  18473413.2684   18473419.2634
  17425939.140   -23349712.48849 -18176681.84349  17425939.1274   17425944.2674
  21986006.595    -9576791.15849  -7396190.73449  21986006.6414   21986012.9134
  20821175.770    -5064384.00249  -3939416.10949  20821174.9914   20821179.4554
  18173163.456   -12928944.80949 -10065411.72549  18173163.4924   18173169.1454
  21213912.824     1467900.62149   1141861.85749  21213913.8474   21213920.0334
  21759060.627    -4444187.96449  -3039595.53949  21759061.0924   21759067.5184
  19933839.077   -21941306.28349 -17067628.12249  19933843.2534   19933850.3154
 96  4 18 17 32 29.9900000  0  9 16  2 27 26 31 19 18 15  7
  21797715.527   -12710006.52849  -9890944.67049  21797710.2664   21797718.2334
  18451872.209   -23467264.14549 -17985028.26949  18451871.5244   18451877.3104
  17404510.580   -23462317.56949 -18264426.06749  17404510.9024   17404516.2384
  21951481.946    -9758221.70349  -7537565.15249  21951480.8984   21951486.4484
  20822071.929    -5059656.90649  -3935732.71149  20822072.4604   20822078.2774
  18163275.254   -12980901.75349 -10105897.65349  18163276.3184   18163282.2304
  21217781.716     1488219.09749   1157694.35549  21217780.0494   21217787.3194
  21729275.774    -4600705.06449  -3161556.71449  21729276.0794   21729280.6544
  19897607.388   -22131724.63649 -17216006.02649  19897608.4694   19897615.4054
 96  4 18 17 32 59.9900000  0  9 16  2 27 26 31 19 18 15  7
  21790057.629   -12750211.03549  -9922272.94149  21790059.7674   21790067.5194
  18430358.398   -23580319.62449 -18073123.44249  18430357.7844   18430363.5694
  17383132.891   -23574663.75149 -18351968.54749  17383132.2294   17383137.3224
  21917001.966    -9939473.05949  -7678799.92949  21916989.5844   21916996.5824
  20823016.558    -5054717.84549  -3931884.11749  20823014.5464   20823019.4004
  18153443.004   -13032572.00549 -10146160.20549  18153443.7794   18153449.5814
  21221647.281     1508557.71849   1173542.55949  21221651.1604   21221656.9894
  21699524.168    -4757055.96849  -3283388.49349  21699525.3954   21699535.0194
  19861406.768   -22321958.04349 -17364239.81649  19861407.5544   19861414.7884
 96  4 18 17 33 29.9900000  0  9 16  2 27 26 31 19 18 15  7
  21782441.531   -12790202.61249  -9953435.26049  21782448.6624   21782457.1274
  18408873.879   -23693213.32349 -18161092.55449  18408874.4234   18408880.7024
  17361801.941   -23686759.25149 -18439315.69349  17361801.4614   17361806.4354
  21882536.121   -10120550.96249  -7819899.56249  21882531.5104   21882538.5494
  20823993.060    -5049566.82549  -3927870.35449  20823992.9364   20823999.2614
  18143666.162   -13083960.94549 -10186203.54249  18143665.1724   18143670.6824
  21225522.596     1528904.88349   1189397.41349  21225522.7484   21225530.3674
  21669803.340    -4913236.62549  -3405087.73249  21669804.0054   21669809.2764
  19825250.256   -22511982.66949 -17512310.91549  19825248.0324   19825254.3494
 96  4 18 17 33 59.9900000  0  9 16  2 27 26 31 19 18 15  7
  21774882.613   -12829964.05249  -9984418.24649  21774881.8534   21774890.2604
  18387432.142   -23805911.00549 -18248908.92549  18387429.1234   18387435.1274
  17340523.314   -23798576.26449 -18526445.83449  17340523.4104   17340528.5514
  21848104.800   -10301440.19549  -7960852.17549  21848109.6324   21848116.3744
  20825019.390    -5044186.92249  -3923678.26449  20825017.5254   20825023.2074
  18133940.971   -13135061.96949 -10226022.52949  18133941.3364   18133946.6484
  21229393.850     1549265.95549   1205263.12049  21229396.3714   21229404.5854
  21640119.934    -5069225.14349  -3526637.25449  21640120.7754   21640129.0784
  19789127.520   -22701783.57349 -17660207.69849  19789129.7744   19789136.1894
 96  4 18 17 34 29.9900000  0  9 16  2 27 26 31 19 18 15  7
  21767362.499   -12869513.29549 -10015235.89449  21767357.0474   21767364.4684
  18366020.710   -23918422.26849 -18336580.03549  18366018.7494   18366024.7154
  17319296.977   -23910117.96849 -18613361.44649  17319297.6634   17319302.7224
  21813714.731   -10482151.07349  -8101665.82049  21813723.0154   21813727.2704
  20826081.835    -5038581.48249  -3919310.41049  20826084.3014   20826090.2064
  18124266.912   -13185897.34949 -10265634.52449  18124267.1754   18124273.2034
  21233260.691     1569616.88049   1221120.91849  21233270.1894   21233276.5874
  21610471.778    -5225033.34449  -3648046.23649  21610471.2674   21610478.8294
  19753049.755   -22891396.27049 -17807957.80849  19753047.2824   19753053.8814
 96  4 18 17 34 59.9900000  0  9 16  2 27 26 31 19 18 15  7
  21759867.112   -12908864.06349 -10045898.88349  21759869.2034   21759877.6014
  18344643.043   -24030760.90249 -18424116.62849  18344641.5724   18344647.4844
  17298129.593   -24021361.46849 -18700044.69349  17298128.6584   17298133.8184
  21779365.112   -10662685.41949  -8242341.92549  21779366.7124   21779372.6624
  20827199.618    -5032739.60649  -3914758.33849  20827196.1794   20827202.3054
  18114644.488   -13236464.13749 -10305037.22049  18114644.8684   18114650.1864
  21237141.503     1589957.75349   1236970.87049  21237140.8974   21237148.2364
  21580853.040    -5380655.27649  -3769309.99549  21580854.5814   21580863.1704
  19716999.976   -23080833.57249 -17955571.26049  19716998.8614   19717006.0074
 96  4 18 17 35 29.9900000  0  9 16  2 27 26 31 19 18 15  7
  21752425.394   -12948029.85449 -10076417.74949  21752416.0114   21752423.6774
  18323297.508   -24142931.67049 -18511522.42049  18323296.1854   18323302.1034
  17277018.974   -24132290.34649 -18786482.78249  17277019.7624   17277024.9074
  21745049.921   -10843039.35949  -8382877.44549  21745048.5344   21745053.6354
  20828354.667    -5026656.47149  -3910018.28849  20828353.5184   20828359.7014
  18105071.109   -13286774.48049 -10344240.09149  18105071.0194   18105077.2674
  21241009.329     1610281.64049   1252807.58749  21241008.6434   21241015.9004
  21551282.263    -5536089.83149  -3890427.71749  21551280.1284   21551285.8554
  19680983.367   -23270106.72949 -18103056.81049  19680980.9884   19680987.6494
 96  4 18 17 35 59.9900000  0  9 16  2 27 26 31 19 18 15  7
  21744999.118   -12987004.63749 -10106787.76749  21744999.6684   21745007.3364
  18301981.439   -24254944.60249 -18598805.22249  18301980.8504   18301986.7094
  17255971.685   -24242898.95449 -18872671.31249  17255971.7364   17255976.6464
  21710759.670   -11023203.88549  -8523265.35949  21710762.4924   21710768.8594
  20829555.053    -5020337.12449  -3905094.13249  20829554.7854   20829562.3664
  18095547.973   -13336826.62849 -10383241.76549  18095546.1704   18095551.6664
  21244872.857     1630592.13149   1268633.86749  21244874.1574   21244880.2594
  21521735.930    -5691335.12849  -4011398.15549  21521737.4264   21521743.6034
  19644995.004   -23459225.76149 -18250422.25749  19644992.7894   19645000.2024
 96  4 18 17 36 29.9900000  0  9 16  2 27 26 31 19 18 15  7
  21737622.223   -13025776.35949 -10136999.53049  21737620.3824   21737630.2884
  18280692.064   -24366816.28449 -18685977.95849  18280692.5264   18280698.3734
  17234986.293   -24353181.78949 -18958605.98749  17234985.4354   17234990.5674
  21676515.888   -11203161.74349  -8663492.25049  21676518.6504   21676524.3784
  20830803.321    -5013794.90149  -3899996.32549  20830800.6424   20830806.9184
  18086074.549   -13386600.44149 -10422026.56949  18086074.5244   18086080.6084
  21248734.505     1650890.52649   1284450.73149  21248736.0744   21248743.3774
  21492232.833    -5846387.55749  -4132218.15149  21492231.4464   21492237.0494
  19609036.536   -23648187.35949 -18397665.02749  19609034.4714   19609042.3094
 96  4 18 17 36 59.9900000  0  9 16  2 27 26 31 19 18 15  7
  21730280.985   -13064342.63649 -10167051.24949  21730282.6974   21730290.5494
  18259432.865   -24478537.73149 -18773033.63049  18259432.2714   18259438.0844
  17214060.814   -24463143.15549 -19044290.17249  17214060.5244   17214065.4204
  21642314.720   -11382909.48249  -8803555.39949  21642313.8644   21642320.3754
  20832086.888    -5007044.47349  -3894736.33049  20832085.1354   20832091.2444
  18076654.467   -13436094.75649 -10460593.58949  18076655.6544   18076661.8184
  21252598.502     1671187.61649   1300266.56249  21252599.3144   21252606.0134
  21462762.511    -6001242.31449  -4252884.14149  21462762.6164   21462772.9984
  19573108.021   -23836981.75449 -18544777.51449  19573108.1704   19573114.4784
 96  4 18 17 37 29.9900000  0  9 16  2 27 26 31 19 18 15  7
  21722984.150   -13102679.85449 -10196924.43949  21722986.8354   21722994.3374
  18238207.635   -24590069.22849 -18859941.28649  18238208.5174   18238214.4244
  17193198.485   -24572771.91749 -19129715.18349  17193198.9844   17193203.9624
  21608158.578   -11562417.50949  -8943431.76049  21608154.2734   21608160.3564
  20833408.132    -5000085.00949  -3889313.42149  20833409.1334   20833416.1704
  18067294.819   -13485293.97849 -10498930.66249  18067293.9904   18067299.8864
  21256466.590     1691499.37849   1316093.82549  21256463.2114   21256470.8054
  21433338.665    -6155880.98249  -4373381.84849  21433336.8284   21433343.8174
  19537218.159   -24025580.08749 -18691737.22649  19537219.6264   19537226.1674
 96  4 18 17 37 59.9900000  0  9 16  2 27 26 31 19 18 15  7
  21715739.553   -13140784.54449 -10226616.44449  21715736.3244   21715743.1724
  18217022.018   -24701405.37149 -18946696.72149  18217021.9414   18217028.0274
  17172401.181   -24682062.78249 -19214876.89449  17172401.5174   17172406.6354
  21574047.228   -11741677.54249  -9083114.89149  21574042.5864   21574048.2434
  20834777.124    -4992917.11649  -3883728.08749  20834774.0124   20834779.8394
  18057991.680   -13534180.21249 -10537023.84349  18057991.1524   18057996.4974
  21260336.274     1711820.84849   1331928.65049  21260331.4644   21260338.2304
  21403949.660    -6310298.14049  -4493706.83749  21403954.1784   21403954.0674
  19501370.666   -24213969.26249 -18838533.95349  19501369.8554   19501376.7114
 96  4 18 17 38 29.9890000  0  9 16  2 27 26 31 19 18 15  7
  21708523.915   -13178670.10949 -10256137.69749  21708525.8654   21708535.2824
  18195880.045   -24812515.19749 -19033275.80249  18195878.7334   18195884.5234
  17151671.483   -24790996.68149 -19299760.45149  17151672.1544   17151676.9874
  21539984.978   -11920671.79249  -9222590.91749  21539980.8774   21539986.6624
  20836181.581    -4985529.23149  -3877971.28849  20836179.7504   20836185.8334
  18048751.646   -13582733.25349 -10574857.38249  18048751.5824   18048757.5764
  21264199.771     1732166.85849   1347782.61349  21264202.4444   21264209.3844
  21374611.678    -6464473.18949  -4613843.13549  21374612.8974   21374621.7024
  19465567.250   -24402114.86449 -18985140.88349  19465567.2154   19465574.2304
 96  4 18 17 38 59.9890000  0  9 16  2 27 26 31 19 18 15  7
  21701356.836   -13216380.91049 -10285522.79349  21701351.1914   21701358.7564
  18174773.958   -24923427.95749 -19119701.33249  18174772.8874   18174778.8344
  17131003.730   -24899609.45549 -19384393.78349  17131003.8264   17131008.9724
  21505960.971   -12099446.61649  -9361895.95449  21505960.4514   21505967.0294
  20837624.677    -4977945.29949  -3872061.78649  20837623.4244   20837629.9444
  18039567.487   -13630996.02349 -10612464.75049  18039567.3404   18039573.2014
  21268080.144     1752529.14849   1363649.27249  21268077.9024   21268084.5904
  21345312.929    -6618441.64349  -4733818.56849  21345312.2204   21345319.8924
  19429806.147   -24590043.59049 -19131578.81549  19429805.3904   19429812.4444
 96  4 18 17 39 29.9890000  0  8  2 27 26 31 19 18 15  7
  18153702.034   -25034152.73949 -19205980.38049  18153702.5284   18153708.7074
  17110402.899   -25007871.42249 -19468753.76449  17110401.9914   17110407.3114
  21471995.338   -12277966.74349  -9501002.52649  21471991.0594   21471995.0094
  20839106.921    -4970144.17049  -3865983.01949  20839107.7564   20839112.7944
  18030441.365   -13678951.40049 -10649832.58349  18030441.7544   18030447.9404
  21271962.280     1772917.80349   1379536.45849  21271958.2774   21271964.8384
  21316059.621    -6772177.99049  -4853613.04449  21316058.0084   21316064.3454
  19394091.818   -24777723.06449 -19277822.52249  19394091.1084   19394098.7294
 96  4 18 17 39 59.9890000  0  8  2 27 26 31 19 18 15  7
  18132661.432   -25144722.04149 -19292138.27849  18132662.2354   18132668.0484
  17089866.467   -25115788.77749 -19552845.21249  17089866.0904   17089871.3814
  21438067.910   -12456240.25749  -9639916.92049  21438065.1134   21438071.6654
  20840634.799    -4962125.29449  -3859734.56749  20840633.3174   20840640.3314
  18021374.362   -13726604.17549 -10686964.64049  18021373.5784   18021379.3424
  21275840.335     1793332.21049   1395443.72249  21275842.0604   21275850.1524
  21286848.687    -6925682.45049  -4973226.83449  21286848.9684   21286856.5964
  19358423.764   -24965153.92849 -19423872.50949  19358423.8964   19358431.4014
 96  4 18 17 40 29.9890000  0  8  2 27 26 31 19 18 15  7
  18111650.029   -25255131.38049 -19378171.52849  18111651.9204   18111657.9804
  17069396.854   -25223355.14449 -19636663.17249  17069397.0704   17069402.1444
  21404183.144   -12634256.33149  -9778630.74849  21404190.1744   21404195.3224
  20842200.519    -4953886.14149  -3853314.46749  20842201.3584   20842208.0214
  18012363.740   -13773948.98249 -10723856.72749  18012364.2294   18012370.0324
  21279723.704     1813797.03849   1411390.26949  21279736.5944   21279744.5464
  21257684.159    -7078933.86749  -5092643.56949  21257684.8324   21257692.0554
  19322808.543   -25152323.36849 -19569718.79549  19322807.0154   19322813.8674
 96  4 18 17 40 59.9890000  0  8  2 27 26 31 19 18 15  7
  18090666.464   -25365411.84749 -19464104.35849  18090666.1164   18090672.0674
  17048991.554   -25330583.41149 -19720217.67449  17048992.2364   17048997.2154
  21370349.669   -12812030.47149  -9917156.03549  21370360.7424   21370366.6504
  20843810.934    -4945438.54749  -3846731.97649  20843809.1754   20843815.3074
  18003408.698   -13821018.41549 -10760534.22349  18003407.0574   18003413.1934
  21283629.563     1834276.36349   1427348.12349  21283633.5884   21283641.8844
  21228569.364    -7231940.93049  -5211869.83149  21228574.3684   21228575.6084
  19287237.695   -25339255.68449 -19715380.30949  19287234.8714   19287241.8544
 96  4 18 17 41 29.9890000  0  8  2 27 26 31 19 18 15  7
  18069705.414   -25475552.46149 -19549928.21349  18069707.0154   18069712.9254
  17028653.179   -25437462.54649 -19803500.12349  17028653.7724   17028658.8174
  21336575.971   -12989547.10249 -10055480.67049  21336580.5154   21336586.9484
  20845458.605    -4936771.23649  -3839978.27749  20845458.2404   20845463.6974
  17994504.868   -13867793.26749 -10796982.17749  17994506.3684   17994512.1044
  21287534.464     1854756.25149   1443306.37949  21287531.3754   21287539.3264
  21199500.804    -7384687.65859                                  21199503.0484
  19251710.135   -25525944.73649 -19860852.26249  19251709.3214   19251715.7384
 96  4 18 17 41 59.9890000  0  8  2 27 26 31 19 18 15  7
  18048775.502   -25585550.31949 -19635640.83049  18048775.0364   18048781.1544
  17008378.204   -25544017.86049 -19886530.24649  17008377.1874   17008381.9154
  21302841.537   -13166837.83449 -10193629.26249  21302843.5554   21302849.4804
  20847145.141    -4927909.71249  -3833073.24249  20847143.9504   20847151.0554
  17985658.917   -13914283.89549 -10833208.65649  17985659.3324   17985665.8544
  21291423.243     1875205.82749   1459241.04449  21291422.2064   21291429.1624
  21170485.544    -7537196.79059  -5449731.49059  21170484.8754   21170487.9204
  19216224.971   -25712421.78849 -20006159.02049  19216224.1224   19216230.6294
 96  4 18 17 42 29.9890000  0  8  2 27 26 31 19 18 15  7
  18027880.281   -25695350.02749 -19721199.05249  18027880.7144   18027886.9854
  16988167.813   -25650213.10049 -19969279.78649  16988168.9394   16988173.6144
  21269159.817   -13343857.83949 -10331566.91749  21269157.3364   21269163.9204
  20848875.220    -4918826.30849  -3825995.31849  20848873.1564   20848880.4964
  17976872.599   -13960460.32749 -10869190.32249  17976873.2784   17976878.7004
  21295312.964     1895638.50649   1475162.53249  21295311.0144   21295319.1164
  21141511.693    -7689440.47959  -5568362.77059  21141510.9384   21141515.0734
  19180786.371   -25898654.01349 -20151275.01949  19180785.5314   19180791.1424
 96  4 18 17 42 59.9890000  0  8  2 27 26 31 19 18 15  7
  18007024.494   -25804953.58849 -19806604.42749  18007024.0114   18007030.2134
  16968027.692   -25756062.00149 -20051759.46049  16968026.4984   16968031.3054
  21235526.181   -13520602.80649 -10469290.23349  21235523.9104   21235529.6824
  20850642.000    -4909534.41749  -3818754.91249  20850641.8514   20850646.7994
  17968143.713   -14006328.37649 -10904931.67949  17968143.7544   17968150.3314
  21299187.928     1916028.99449   1491051.15049  21299192.7154   21299198.6144
  21112585.315    -7841434.71849  -5686799.79949  21112584.9834   21112594.5994
  19145392.526   -26084646.57849 -20296204.25849  19145391.9214   19145398.0094
 96  4 18 17 43 29.9890000  0  8  2 27 26 31 19 18 15  7
  17986207.901   -25914348.36549 -19891847.10949  17986207.0554   17986212.8584
  16947949.239   -25861569.96949 -20133973.45949  16947948.7944   16947953.7154
  21201946.738   -13697071.55149 -10606798.31549  21201942.8814   21201948.3864
  20852448.285    -4900048.41749  -3811363.25849  20852446.9934   20852452.0124
  17959478.204   -14051874.43349 -10940422.12649  17959477.5154   17959483.0544
  21303061.491     1936388.74449   1506915.81949  21303066.0084   21303072.8244
  21083707.673    -7993178.50449  -5805041.75349  21083710.4884   21083716.3994
  19110043.504   -26270387.75949 -20440937.61949  19110046.4984   19110052.7034
 96  4 18 17 43 59.9890000  0  8  2 27 26 31 19 18 15  7
  17965432.930   -26023518.58549 -19976914.81549  17965432.4644   17965438.1514
  16927940.317   -25966717.72349 -20215906.77849  16927939.6854   16927944.9634
  21168418.970   -13873249.59349 -10744079.88849  21168417.0824   21168423.3374
  20854289.696    -4890365.63449  -3803818.26849  20854289.1674   20854295.8044
  17950870.588   -14097102.59949 -10975664.87349  17950870.6184   17950876.5194
  21306936.305     1956724.82549   1522762.02949  21306935.0084   21306942.6784
  21054885.148    -8144658.20049  -5923077.82549  21054883.4164   21054890.5974
  19074753.623   -26455868.86449 -20585468.31349  19074750.7684   19074757.1044
 96  4 18 17 44 29.9890000  0  8  2 27 26 31 19 18 15  7
  17944699.222   -26132478.12649 -20061818.35449  17944698.3164   17944704.2204
  16908000.331   -26071505.36049 -20297559.48449  16907999.4244   16908004.5004
  21134948.043   -14049132.74349 -10881131.66149  21134947.4564   21134954.2434
  20856167.830    -4880490.61749  -3796123.50049  20856168.6204   20856174.5084
  17942322.035   -14142028.58349 -11010672.15449  17942321.7234   17942326.9334
  21310809.466     1977044.53149   1538595.48149  21310803.1954   21310810.0434
  21026113.051    -8295864.99649  -6040901.25149  21026112.0114   21026119.0994
  19039507.360   -26641083.69849 -20729791.53649  19039505.8124   19039511.2324
 96  4 18 17 44 59.9890000  0  8  2 27 26 31 19 18 15  7
  17923997.725   -26241261.92549 -20146584.95949  17923997.4094   17924003.2814
  16888126.557   -26175944.51649 -20378940.65349  16888125.4444   16888130.4184
  21101523.058   -14224760.29949 -11017984.28449  21101527.2054   21101532.9944
  20858080.555    -4870444.63649  -3788295.49949  20858079.5934   20858086.2684
  17933826.076   -14186668.46149 -11045456.49649  17933827.2684   17933832.8444
  21314665.837     1997336.56549   1554407.36649  21314664.2944   21314669.5724
  20997387.836    -8446804.30149  -6158516.23849  20997386.8014   20997395.4474
  19004308.605   -26826063.62549 -20873931.71149  19004305.1184   19004310.7954
 96  4 18 17 45 29.9890000  0  8  2 27 26 31 19 18 15  7
  17903330.919   -26349877.38949 -20231220.39149  17903328.8084   17903334.3074
  16868320.570   -26280026.18149 -20460043.25049  16868319.5054   16868324.1004
  21068142.443   -14400149.57649 -11154651.21149  21068150.8024   21068157.6224
  20860026.034    -4860228.23749  -3780334.73549  20860024.4614   20860030.1764
  17925386.277   -14231028.05849 -11080022.44049  17925385.4094   17925390.9604
  21318515.147     2017599.33449   1570196.48949  21318519.6514   21318526.2064
  20968717.031    -8597472.15649  -6275919.81649  20968715.4824   20968724.7864
  18969145.969   -27010827.21249 -21017903.31349  18969146.0734   18969151.3684
 96  4 18 17 45 59.9890000  0  8  2 27 26 31 19 18 15  7
  17882692.952   -26458326.12349 -20315725.90049  17882691.7294   17882697.2254
  16848582.981   -26383739.76949 -20540859.03249  16848582.9684   16848587.8494
  21034827.869   -14575284.40649 -11291119.87949  21034824.1494   21034831.1854
  20862006.212    -4849826.78349  -3772229.74349  20862004.6974   20862009.7694
  17916999.257   -14275102.04649 -11114365.83249  17916998.6954   17917004.8604
  21322368.202     2037843.31149   1585970.94449  21322372.6214   21322378.2194
  20940098.983    -8747862.19049  -6393106.93849  20940098.1434   20940104.7304
  18934024.476   -27195379.46449 -21161710.24449  18934026.1224   18934032.6754
 96  4 18 17 46 29.9890000  0  8  2 27 26 31 19 18 15  7
  17862085.468   -26566621.90749 -20400112.22749  17862083.7134   17862089.2774
  16828914.040   -26487102.78449 -20621401.64249  16828914.0374   16828918.9804
  21001548.257   -14750167.97449 -11427392.76349  21001545.7364   21001550.9414
  20864016.850    -4839241.63049  -3763981.61949  20864017.6204   20864024.2114
  17908670.203   -14318876.46349 -11148475.78849  17908668.5324   17908674.2724
  21326220.800     2058071.26149   1601732.90449  21326220.7614   21326227.9924
  20911532.037    -8897978.70049  -6510080.80549  20911531.6994   20911539.3304
  18898948.955   -27379715.58449 -21305348.75349  18898947.8124   18898954.8474
 96  4 18 17 46 59.9880000  0  8  2 27 26 31 19 18 15  7
  17841508.311   -26674749.12749 -20484367.20749  17841507.5344   17841513.4304
  16809313.717   -26590105.66149 -20701663.62249  16809313.0904   16809318.1504
  20968324.780   -14924782.16849 -11563455.75849  20968316.7534   20968323.6224
  20866070.549    -4828473.02949  -3755590.56449  20866068.0454   20866071.6414
  17900399.887   -14362330.44149 -11182336.04549  17900399.2684   17900405.6954
  21330071.255     2078280.90449   1617480.59049  21330066.9974   21330073.5014
  20883019.990    -9047810.19349  -6626832.55949  20883018.7744   20883027.3774
  18863913.582   -27563815.83049 -21448803.46549  18863914.8514   18863921.9204
 96  4 18 17 47 29.9880000  0  8  2 27 26 31 19 18 15  7
  17820966.415   -26782703.91949 -20568487.82049  17820964.4184   17820970.5474
  16789780.098   -26692753.35349 -20781648.84149  16789780.0034   16789784.9604
  20935148.443   -15099107.29349 -11699293.50049  20935143.9114   20935150.1504
  20868152.907    -4817513.94849  -3747051.03849  20868152.7584   20868157.4324
  17892191.287   -14405463.78649 -11215946.46749  17892191.6624   17892197.3594
  21333913.839     2098478.31149   1633218.75149  21333911.4294   21333917.0914
  20854561.680    -9197360.19849  -6743364.95549  20854560.9954   20854568.8014
  18828930.304   -27747662.51049 -21592060.59549  18828930.1114   18828936.7174
 96  4 18 17 47 59.9880000  0  8  2 27 26 31 19 18 15  7
  17800452.736   -26890491.59349 -20652478.21449  17800453.0904   17800459.2274
  16770315.694   -26795042.61749 -20861354.75949  16770314.8914   16770319.8794
  20902024.132   -15273134.97549 -11834899.47749  20902027.7174   20902033.8644
  20870273.074    -4806369.65549  -3738367.19549  20870272.9794   20870279.3794
  17884042.817   -14448283.08349 -11249312.16149  17884042.9284   17884049.6794
  21337743.440     2118644.51949   1648932.61949  21337748.2834   21337755.5864
  20826158.662    -9346625.37049  -6859675.37049  20826157.5374   20826163.2194
  18793997.276   -27931231.21349 -21735101.11649  18793997.4754   18794005.0584
 96  4 18 17 48 29.9880000  0  8  2 27 26 31 19 18 15  7
  17779974.975   -26998118.41549 -20736343.27849  17779972.5184   17779978.3414
  16750917.368   -26896980.25949 -20940786.69149  16750916.8524   16750922.0694
  20868963.048   -15446880.33849 -11970285.46649  20868965.2684   20868970.9234
  20872426.169    -4795057.87149  -3729552.84649  20872425.3264   20872432.0544
  17875951.807   -14490799.11349 -11282441.56849  17875952.5254   17875958.4304
  21341569.040     2138756.10949   1664603.90749  21341574.7054   21341582.5374
  20797807.205    -9495604.35849  -6975762.87249  20797807.5774   20797815.5254
  18759126.967   -28114508.54949 -21877914.59549  18759121.3134   18759128.5444
 96  4 18 17 48 59.9880000  0  8  2 27 26 31 19 18 15  7
  17759524.189   -27105583.62149 -20820082.40249  17759522.7424   17759528.6554
  16731587.968   -26998550.99249 -21019932.72049  16731588.6314   16731593.8794
  20835961.102   -15620339.93849 -12105448.76949  20835956.5184   20835963.3914
  20874609.469    -4783588.75549  -3720615.92349  20874608.9354   20874614.4134
  17867918.182   -14533026.99949 -11315346.42349  17867916.8724   17867923.1204
  21345395.269     2158812.74549   1680232.36049  21345392.5964   21345399.3214
  20769513.393    -9644291.91449  -7091623.34449  20769513.9004   20769520.3424
  18724301.760   -28297491.73149 -22020498.86349  18724300.7554   18724307.9614
 96  4 18 17 49 29.9880000  0  8  2 27 26 31 19 18 15  7
  17739103.033   -27212891.38049 -20903698.84149  17739102.5394   17739108.6294
  16712332.552   -27099743.73449 -21098784.21049  16712332.0724   16712337.2884
  20802994.791   -15793502.73849 -12240380.80249  20803005.1544   20803011.6674
  20876822.185    -4771952.92049  -3711549.05849  20876822.0634   20876827.8564
  17859935.299   -14574969.33349 -11348028.79049  17859935.8554   17859942.0934
  21349198.570     2178819.93149   1695822.28549  21349199.3264   21349206.4474
  20741275.762    -9792683.59449  -7207253.21749  20741275.5324   20741283.4334
  18689542.523   -28480166.23849 -22162842.60849  18689538.6874   18689545.9614
 96  4 18 17 49 59.9880000  0  8  2 27 26 31 19 18 15  7
  17718713.310   -27320035.56649 -20987187.81749  17718713.8454   17718719.5884
  16693147.293   -27200552.86749 -21177336.78849  16693148.8334   16693154.0654
  20770105.108   -15966365.97449 -12375079.42249  20770110.2064   20770116.8454
  20879067.588    -4760150.69849  -3702352.57049  20879068.7314   20879075.6764
  17852011.466   -14616612.41149 -11380477.95349  17852011.6934   17852017.4054
  21353003.648     2198787.14749   1711381.07349  21352998.6434   21353007.0034
  20713095.413    -9940773.93649  -7322648.21449  20713095.0044   20713101.4054
  18654834.468   -28662526.42249 -22304941.42649  18654836.4434   18654843.8714
 96  4 18 17 50 29.9880000  0  8  2 27 26 31 19 18 15  7
  17698360.359   -27427005.43049 -21070540.96049  17698358.0774   17698363.8954
  16674037.616   -27300982.87449 -21255593.94249  16674037.7304   16674042.9704
  20737276.667   -16138912.52449 -12509531.26349  20737275.9334   20737282.5134
  20881344.176    -4748188.84649  -3693031.68849  20881343.5974   20881352.1594
  17844148.105   -14657944.45349 -11412684.76649  17844146.0524   17844152.1764
  21356797.774     2218728.04649   1726919.36049  21356793.4934   21356801.4814
  20684974.631   -10088559.36749  -7437805.61349  20684972.6534   20684979.8884
  18620189.932   -28844576.53249 -22446798.63349  18620194.1544   18620201.3964
 96  4 18 17 50 59.9880000  0  7  2 27 26 31 19 15  7
  17678037.901   -27533798.21249 -21153756.11449  17678035.9784   17678042.0294
  16654999.999   -27401029.89949 -21333552.66549  16654999.4024   16655004.3674
  20704504.923   -16311137.50349 -12643732.53449  20704502.0354   20704508.0734
  20883655.621    -4736061.87949  -3683582.15649  20883652.7384   20883659.4524
  17836342.006   -14698953.91849 -11444640.23549  17836342.7064   17836347.6154
  20656906.094   -10236038.06349  -7552724.03349  20656907.2464   20656915.0804
  18585609.084   -29026322.60849 -22588418.92449  18585608.5734   18585615.6504
 96  4 18 17 51 29.9880000  0  7  2 27 26 31 19 15  7
  17657751.049   -27640396.85449 -21236819.99449  17657750.8064   17657756.7694
  16636032.507   -27500699.51049 -21411217.29349  16636033.0814   16636037.9434
  20671791.125   -16483048.10849 -12777688.82149  20671789.2154   20671795.1394
  20885995.462    -4723757.30249  -3673994.22649  20885994.2624   20886000.9974
  17828603.016   -14739628.72149 -11476334.88149  17828602.2274   17828608.3494
  20628905.061   -10383203.92349  -7667398.70149  20628904.2634   20628910.6674
  18551080.671   -29207762.41149 -22729800.56549  18551081.8994   18551089.0994
 96  4 18 17 51 59.9880000  0  7  2 27 26 31 19 15  7
  17637505.933   -27746790.76449 -21319724.34149  17637504.8074   17637510.7354
  16617135.857   -27599998.63049 -21488593.23149  16617136.9284   16617141.9144
  20639137.044   -16654663.05149 -12911414.75249  20639132.1694   20639138.3424
  20888366.951    -4711290.68849  -3664280.03849  20888366.0414   20888373.5374
  17820925.080   -14779972.69249 -11507771.77249  17820924.9324   17820931.1984
  20600959.096   -10530054.19349  -7781827.39949  20600958.4014   20600964.8164
  18516607.382   -29388930.12649 -22870970.19049  18516606.9164   18516613.2174
 96  4 18 17 52 29.9880000  0  7  2 27 26 31 19 15  7
  17617295.719   -27852988.76249 -21402476.03149  17617295.9484   17617302.1414
  16598309.030   -27698937.46149 -21565688.42749  16598309.3534   16598314.4834
  20606531.561   -16825990.83249 -13044916.90849  20606529.7644   20606534.8174
  20890769.083    -4698672.24849  -3654447.52449  20890768.3344   20890774.6274
  17813308.868   -14819998.39149 -11538960.65449  17813308.0854   17813315.1234
  20573073.882   -10676587.53649  -7896009.20249  20573074.2354   20573080.1464
  18482181.938   -29569842.91249 -23011941.16849  18482180.2644   18482187.0934
 96  4 18 17 52 59.9880000  0  7  2 27 26 31 19 15  7
  17597122.475   -27959000.84349 -21485082.84349  17597122.3974   17597128.5424
  16579552.467   -27797509.61349 -21642497.89449  16579551.7864   16579556.8374
  20573976.167   -16997044.29549 -13178205.31049  20573978.9044   20573984.2864
  20893196.772    -4685910.82949  -3644503.58349  20893197.1214   20893202.3634
  17805749.066   -14859722.49949 -11569914.52749  17805748.9454   17805755.2684
  20545252.354   -10822801.68349  -8009942.33249  20545249.9824   20545256.8994
  18447802.373   -29750501.15349 -23152713.79349  18447802.2254   18447808.7824
 96  4 18 17 53 29.9880000  0  7  2 27 26 31 19 15  7
  17576984.733   -28064829.72749 -21567546.91349  17576984.0294   17576989.9764
  16560865.336   -27895702.10149 -21719011.52449  16560866.1434   16560871.6424
  20541484.014   -17167803.46049 -13311264.39249  20541485.1394   20541489.6634
  20895649.165    -4673018.69849  -3634457.81249  20895649.7674   20895655.6974
  17798246.232   -14899148.41249 -11600636.02649  17798246.4874   17798252.7894
  20517487.440   -10968689.93149  -8123621.43849  20517487.6814   20517495.5994
  18413469.336   -29930910.20149 -23293292.25849  18413471.6444   18413478.0184
 96  4 18 17 53 59.9880000  0  7  2 27 26 31 19 15  7
  17556874.327   -28170499.87449 -21649887.29349  17556875.6194   17556881.6744
  16542253.399   -27993511.09149 -21795226.32749  16542254.1174   16542259.2314
  20509048.269   -17338250.79649 -13444080.47749  20509049.7644   20509054.4974
  20898125.449    -4660009.75349  -3624321.02249  20898124.5524   20898131.4694
  17790800.447   -14938283.33749 -11631130.79749  17790799.5254   17790805.8044
  20489789.266   -11114254.09949  -8237047.98549  20489788.5074   20489795.0304
  18379188.644   -30111065.35549 -23433672.88049  18379189.8424   18379195.6874
 96  4 18 17 54 29.9880000  0  6  2 27 26 19 15  7
  17536794.641   -28276024.63049 -21732114.37449  17536795.0074   17536801.1444
  16523717.335   -28090919.12649 -21871128.69449  16523718.1164   16523723.0144
  20476680.740   -17508361.14649 -13576633.97949  20476678.4274   20476683.6684
  17783409.308   -14977121.12149 -11661394.02749  17783409.1454   17783415.2054
  20462150.502   -11259487.50649  -8350216.83549  20462150.5324   20462159.1804
  18344962.094   -30290933.53449 -23573829.87849  18344961.5934   18344968.1594
 96  4 18 17 54 59.9880000  0  6  2 27 26 19 15  7
  17516742.481   -28381406.80749 -21814230.35749  17516741.5534   17516747.5564
  16505262.479   -28187901.40149 -21946699.30849  16505262.9454   16505267.7814
  20444378.838   -17678123.05449 -13708915.98249  20444374.5004   20444380.0974
  17776077.331   -15015647.08549 -11691414.26849  17776077.6774   17776084.2864
  20434578.907   -11404382.88949  -8463122.34349  20434578.8234   20434585.5764
  18310791.146   -30470501.75549 -23713753.14549  18310791.0164   18310797.1114
 96  4 18 17 55 29.9870000  0  6  2 27 26 19 15  7
  17496713.685   -28486653.51449 -21896240.77749  17496713.7154   17496719.6834
  16486886.896   -28284465.19449 -22021943.82849  16486887.2084   16486892.3754
  20412136.530   -17847536.36949 -13840926.33449  20412135.0084   20412140.9084
  17768806.546   -15053859.24249 -11721190.00749  17768806.0024   17768812.6384
  20407073.318   -11548937.93849  -8575762.61149  20407070.0894   20407078.0524
  18276679.449   -30649764.27049 -23853438.20449  18276678.3724   18276685.3024
 96  4 18 17 55 59.9870000  0  6  2 27 26 19 15  7
  17476712.388   -28591761.89449 -21978143.41049  17476712.1774   17476718.2874
  16468590.890   -28380612.13049 -22096863.52849  16468591.1624   16468596.3374
  20379961.808   -18016616.84849 -13972677.33449  20379960.4104   20379967.0384
  17761594.991   -15091753.16749 -11750717.74149  17761595.4444   17761601.4664
  20379628.672   -11693150.93149  -8688136.26749  20379627.3224   20379635.0254
  18242626.067   -30828705.96849 -23992873.27549  18242626.5614   18242633.2484
 96  4 18 17 56 29.9870000  0  6  2 27 26 19 15  7
  17456739.711   -28696720.66349 -22059929.46449  17456739.1804   17456745.2574
  16450373.323   -28476347.74949 -22171462.71649  16450373.3154   16450378.3274
  20347847.198   -18185370.95349 -14104174.01649  20347847.9764   20347853.2344
  17754444.247   -15129332.02149 -11779999.98849  17754444.2814   17754450.5914
  20352250.338   -11837018.57049  -8800240.86449  20352251.0604   20352258.4334
  18208633.701   -31007327.27349 -24132058.69049  18208636.4654   18208642.7064
 96  4 18 17 56 59.9870000  0  6  2 27 26 19 15  7
  17436797.898   -28801516.39849 -22141588.47949  17436797.1604   17436803.3484
  16432228.124   -28571697.19049 -22245760.98349  16432228.8084   16432234.1434
  20315793.379   -18353807.69349 -14235423.40249  20315796.3764   20315800.4584
  17747349.629   -15166607.45149 -11809045.80149  17747350.8604   17747357.5274
  20324940.885   -11980543.69049  -8912078.63249  20324939.6124   20324945.6204
  18174706.488   -31185628.00149 -24270994.29749  18174706.2484   18174713.3824
 96  4 18 17 57 29.9870000  0  6  2 27 26 19 15  7
  17416888.731   -28906126.77549 -22223103.06049  17416890.4634   17416896.7454
  16414155.706   -28666672.16149 -22319767.46649  16414155.8474   16414161.0184
  20283802.457   -18521918.24349 -14366418.62749  20283805.0424   20283810.7024
  17740314.470   -15203592.50849 -11837865.34849  17740313.3204   17740319.4574
  20297692.165   -12123721.01249  -9023645.36049  20297693.4614   20297700.1034
  18140839.108   -31363600.86149 -24409674.43049  18140839.4614   18140845.7104
 96  4 18 17 57 59.9870000  0  6  2 27 26 19 15  7
  17397022.214   -29010533.98149 -22304459.31649  17397022.4104   17397028.5324
  16396151.548   -28761276.29249 -22393484.97049  16396152.9754   16396158.4064
  20251875.928   -18689681.99549 -14497143.59449  20251880.1364   20251885.7224
  17733330.532   -15240281.32349 -11866454.06049  17733331.0304   17733337.2364
  20270512.781   -12266545.15649  -9134936.84149  20270513.8394   20270520.8654
  18107038.091   -31541242.00149 -24548096.07749  18107034.9234   18107041.8904
 96  4 18 17 58 29.9870000  0  6  2 27 26 19 15  7
  17377193.961   -29114740.58349 -22385659.26449  17377192.6674   17377198.7444
  16378218.261   -28855518.01149 -22466920.08649  16378219.4104   16378224.8804
  20220029.974   -18857086.63149 -14627588.75549  20220025.1784   20220030.8044
  17726403.003   -15276684.45649 -11894820.16749  17726404.1444   17726410.2014
  20243401.828   -12409020.12049  -9245956.23849  20243402.0124   20243408.9614
  18073291.575   -31718557.85649 -24686264.25249  18073293.4514   18073299.8134
 96  4 18 17 58 59.9870000  0  6  2 27 26 19 15  7
  17357399.418   -29218759.40949 -22466712.88949  17357398.1784   17357404.5324
  16360356.525   -28949392.21449 -22540068.82149  16360355.7754   16360361.3054
  20188231.162   -19024135.80849 -14757756.93049  20188235.8704   20188240.8294
  17719531.036   -15312802.99649 -11922964.51249  17719530.9794   17719537.2704
  20216356.899   -12551148.81049  -9356705.86649  20216356.4474   20216363.3814
  18039611.274   -31895553.14149 -24824182.62749  18039612.0404   18039618.9034
 96  4 18 17 59 29.9870000  0  6  2 27 26 19 15  7
  17337636.771   -29322611.27349 -22547636.42849  17337636.0004   17337642.2394
  16342564.244   -29042877.27249 -22612914.32849  16342566.0794   16342571.6194
  20156510.556   -19190834.45049 -14887651.95849  20156515.2134   20156519.8754
  17712713.641   -15348624.39549 -11950877.32249  17712714.2324   17712719.9114
  20189376.072   -12692930.51849  -9467185.14549  20189375.8234   20189382.2424
  18005989.486   -32072240.26449 -24961860.88749  18005989.4334   18005996.2424
 96  4 18 17 59 59.9870000  0  6  2 27 26 19 15  7
  17317905.241   -29426304.66049 -22628436.47149  17317903.8014   17317910.1804
  16324852.170   -29135952.47649 -22685440.46349  16324854.5004   16324859.9534
  20124864.274   -19357175.54249 -15017268.38249  20124860.4454   20124866.1264
  17705958.525   -15384122.80549 -11978538.44749  17705959.1834   17705965.6494
  20162462.256   -12834356.92849  -9577387.49249  20162463.6254   20162470.1934
  17972428.745   -32248613.91149 -25099294.87149  17972426.3524   17972433.8674
 96  4 18 18  0 29.9870000  0  6  2 27 26 19 15  7
  17298198.536   -29529856.21549 -22709125.99249  17298198.5584   17298204.9914
  16307223.038   -29228605.40249 -22757637.55149  16307223.2934   16307228.6564
  20093267.389   -19523179.06849 -15146621.76149  20093270.6444   20093276.0864
  17699265.776   -15419296.28149 -12005946.36949  17699265.9934   17699271.9504
  20135617.691   -12975425.60649  -9687311.07949  20135618.9624   20135625.8624
  17938920.271   -32424687.33749 -25236494.92249  17938920.6704   17938927.9704
 96  4 18 18  0 59.9870000  0  6  2 27 26 19 15  7
  17278518.117   -29633282.89349 -22789718.21149  17278517.2934   17278523.4444
  16289672.723   -29320840.25549 -22829508.87249  16289671.6664   16289677.1334
  20061738.554   -19688866.90849 -15275729.16149  20061741.8444   20061747.5134
  17692634.655   -15454142.18549 -12033099.04249  17692634.9194   17692640.8344
  20108842.291   -13116138.54049  -9796957.46349  20108842.5034   20108849.5404
  17905467.785   -32600485.38549 -25373480.38349  17905467.8614   17905474.8494
 96  4 18 18  1 29.9870000  0  6  2 27 26 19 15  7
  17258859.161   -29736585.60249 -22870213.82449  17258859.5104   17258865.5474
  16272196.379   -29412668.18949 -22901063.10849  16272197.4304   16272202.8674
  20030272.230   -19854240.39949 -15404591.60449  20030271.8604   20030277.5784
  17686065.209   -15488668.22949 -12060002.47549  17686065.0284   17686071.1614
  20082132.787   -13256493.10049  -9906324.62649  20082133.0894   20082140.4334
  17872067.013   -32776010.97049 -25510253.54049  17872066.5184   17872073.2734
 96  4 18 18  1 59.9870000  0  6  2 27 26 19 15  7
  17239227.666   -29839752.22749 -22950603.40049  17239227.7744   17239233.6184
  16254798.082   -29504102.59949 -22972310.70649  16254798.0644   16254803.0454
  19998860.472   -20019299.65749 -15533209.20549  19998862.9474   19998868.6004
  17679553.107   -15522887.20149 -12086666.64949  17679553.5164   17679559.4414
  20055492.383   -13396484.00049 -10015408.43049  20055493.4984   20055499.9894
  17838720.176   -32951251.54749 -25646804.61549  17838719.5054   17838725.8164
 96  4 18 18  2 29.9870000  0  6  2 27 26 19 15  7
  17219622.874   -29942775.69349 -23030881.42249  17219622.8054   17219628.9924
  16237473.090   -29595143.58449 -23043251.73149  16237473.4774   16237478.5634
  19967510.109   -20184047.86349 -15661584.41249  19967512.0074   19967518.0544
  17673097.950   -15556814.19249 -12113103.28749  17673097.8534   17673103.1494
  20028924.128   -13536104.11449 -10124203.36849  20028924.9104   20028931.5244
  17805429.264   -33126187.56349 -25783118.37549  17805430.4964   17805436.5924
 96  4 18 18  2 59.9870000  0  6  2 27 26 19 15  7
  17200047.327   -30045646.12049 -23111040.19749  17200047.0414   17200053.4414
  16220222.137   -29685796.77149 -23113890.58249  16220222.6154   16220227.8684
  19936224.183   -20348479.39649 -15789712.86249  19936221.8154   19936227.9754
  17666694.582   -15590459.31349 -12139320.27949  17666694.9234   17666700.4904
  20002426.424   -13675355.48449 -10232710.89649  20002427.0524   20002433.9234
  17772207.682   -33300784.75849 -25919168.11549  17772205.0824   17772211.5334
 96  4 18 18  3 29.9870000  0  6  2 27 26 19 15  7
  17180503.036   -30148352.53549 -23191071.17149  17180502.6574   17180508.9614
  16203047.185   -29776053.30849 -23184220.35849  16203047.5344   16203052.8954
  19904990.763   -20512581.12249 -15917584.32349  19904994.1624   19905000.2414
  17660345.904   -15623826.86649 -12165321.01049  17660345.5724   17660350.9324
  19975996.724   -13814238.99649 -10340931.78049  19975997.6684   19976005.6594
  17739049.483   -33475019.50449 -26054935.42749  17739049.6414   17739055.9384
 96  4 18 18  3 59.9860000  0  6  2 27 26 19 15  7
  17160990.387   -30250895.54849 -23270974.81949  17160989.5954   17160995.3894
  16185948.931   -29865910.26449 -23254238.76949  16185948.2224   16185953.5074
  19873829.874   -20676334.58049 -16045184.40349  19873832.9714   19873838.6604
  17654049.878   -15656910.87349 -12191100.78549  17654049.7514   17654055.1954
  19949639.567   -13952751.34549 -10448863.47449  19949639.6204   19949646.7674
  17705964.692   -33648884.58349 -26190414.68849  17705963.8244   17705970.5804
 96  4 18 18  4 29.9860000  0  6  2 27 26 19 15  7
  17141507.085   -30353277.00649 -23350752.57749  17141506.8854   17141512.8674
  16168925.947   -29955364.24149 -23323943.16849  16168925.7944   16168930.7264
  19842738.140   -20839732.25449 -16172507.26349  19842739.6244   19842745.0074
  17647808.491   -15689705.45649 -12216655.02349  17647809.1084   17647815.2384
  19923351.196   -14090898.17549 -10556510.32949  19923351.2934   19923358.2994
  17672946.401   -33822401.20149 -26325622.42449  17672945.5114   17672951.7714
 96  4 18 18  4 59.9860000  0  6  2 27 26 19 15  7
  17122057.404   -30455493.54649 -23430401.82849  17122055.8404   17122061.7114
  16151978.982   -30044419.03849 -23393336.52549  16151979.0634   16151984.2674
  19811717.457   -21002751.90849 -16299535.56049  19811718.1644   19811724.1454
  17641627.979   -15722193.49849 -12241970.40149  17641626.8864   17641632.7684
  19897133.991   -14228672.30349 -10663866.75449  19897133.3394   19897140.1124
  17639991.202   -33995580.10549 -26460567.00549  17639990.6494   17639996.8784
 96  4 18 18  5 29.9860000  0  6  2 27 26 19 15  7
  17102635.308   -30557555.97149 -23509930.99549  17102633.9484   17102639.7074
  16135107.340   -30133078.27149 -23462421.64449  16135107.7474   16135113.1004
  19780766.505   -21165385.18149 -16426262.77049  19780768.8914   19780775.5504
  17635502.600   -15754377.73849 -12267049.05049  17635502.6884   17635508.4794
  19870988.478   -14366071.44449 -10770930.99249  19870987.9544   19870995.1994
  17607095.465   -34168448.22549 -26595269.42049  17607094.8354   17607100.9544
 96  4 18 18  5 59.9860000  0  6  2 27 26 19 15  7
  17083241.757   -30659469.12349 -23589343.84149  17083240.6014   17083246.3014
  16118310.280   -30221353.10449 -23531207.23149  16118309.9434   16118314.8674
  19749897.481   -21327636.90249 -16552692.66849  19749894.8494   19749899.7774
  17629434.152   -15786266.42549 -12291897.39949  17629434.2464   17629439.8004
  19844914.710   -14503094.85149 -10877702.49649  19844913.5374   19844919.0534
  17574261.488   -34341007.52749 -26729731.19449  17574257.9444   17574263.8734
 96  4 18 18  6 29.9860000  0  6  2 27 26 19 15  7
  17063876.985   -30761226.91549 -23668635.62849  17063876.7904   17063882.6524
  16101586.762   -30309234.62949 -23599686.34849  16101586.6544   16101591.5754
  19719093.158   -21489512.42449 -16678829.42249  19719090.4204   19719096.2524
  17623422.362   -15817864.67849 -12316519.44349  17623421.5484   17623427.7184
  19818909.393   -14639736.97549 -10984176.83449  19818910.6844   19818918.2904
  17541481.372   -34513249.90549 -26863946.01549  17541481.1234   17541487.1474
 96  4 18 18  6 59.9860000  0  6  2 27 26 19 15  7
  17044542.407   -30862833.25849 -23747809.40149  17044541.7124   17044547.5554
  16084942.740   -30396700.34449 -23667841.45649  16084942.4974   16084947.3604
  19688357.093   -21651002.52249 -16804665.83549  19688359.8384   19688365.9384
  17617466.471   -15849162.12749 -12340907.09249  17617465.9454   17617471.8434
  19792984.871   -14775979.82549 -11090340.02349  19792984.1344   19792991.7864
  17508768.332   -34685156.06149 -26997898.83949  17508768.2514   17508774.4524
 96  4 18 18  7 29.9860000  0  6  2 27 26 19 15  7
  17025235.011   -30964295.63749 -23826870.99549  17025234.1444   17025239.7824
  16068382.052   -30483729.06849 -23735656.05349  16068381.4134   16068386.5364
  19657705.703   -21812107.11749 -16930201.86549  19657703.2074   19657707.5504
  17611565.751   -15880165.11049 -12365065.29549  17611565.8994   17611571.9744
  19767135.698   -14911817.12349 -11196187.21449  19767136.6424   19767143.0384
  17476122.994   -34856712.94449 -27131579.50549  17476122.0464   17476128.1824
 96  4 18 18  7 59.9860000  0  6  2 27 26 19 15  7
  17005953.629   -31065622.01049 -23905826.60849  17005952.2284   17005958.0164
  16051906.090   -30570309.62549 -23803121.42149  16051905.6634   16051910.8354
  19627116.383   -21972833.30249 -17055443.00649  19627117.3924   19627122.8664
  17605721.691   -15910870.94549 -12388991.95149  17605722.9094   17605728.5634
  19741364.692   -15047245.74049 -11301715.99849  19741363.8464   19741370.5314
  17443543.856   -35027907.49549 -27264977.83549  17443544.6954   17443550.8024
 96  4 18 18  8 29.9860000  0  6  2 27 26 19 15  7
  16986696.653   -31166818.40449 -23984680.94449  16986695.3414   16986701.1784
  16035518.698   -30656429.97849 -23870228.19249  16035517.2534   16035522.0114
  19596601.419   -22133171.11749 -17180381.54549  19596606.2214   19596611.4594
  17599938.119   -15941270.07249 -12412679.60949  17599938.1274   17599943.9104
  19715673.160   -15182258.15049 -11406920.42249  19715672.5724   19715679.1164
  17411035.407   -35198741.87649 -27398095.51449  17411036.3284   17411042.4804
 96  4 18 18  8 59.9860000  0  6  2 27 26 19 15  7
  16967462.344   -31267888.04149 -24063436.51049  16967462.4674   16967468.2234
  16019216.936   -30742094.60249 -23936979.85749  16019216.0274   16019220.9914
  19566167.647   -22293120.08049 -17305017.09349  19566168.4794   19566174.9734
  17594210.593   -15971368.78449 -12436133.17049  17594210.2434   17594216.2274
  19690061.390   -15316851.64749 -11511798.45549  19690061.1774   19690067.5394
  17378597.513   -35369210.11149 -27530927.88749  17378597.3454   17378603.1734
 96  4 18 18  9 29.9860000  0  6  2 27 26 19 15  7
  16948258.470   -31368807.68949 -24142075.20049  16948257.9444   16948263.8494
  16002999.400   -30827311.26349 -24003382.45349  16002999.7614   16003004.8944
  19535806.679   -22452680.50649 -17429349.87649  19535805.5044   19535811.3154
  17588543.004   -16001158.80949 -12459346.20549  17588542.1234   17588547.6464
  19664529.045   -15451026.84249 -11616350.49949  19664527.6794   19664533.6114
  17346231.962   -35539298.02849 -27663463.90349  17346230.3514   17346236.6124
 96  4 18 18  9 59.9860000  0  6  2 27 26 19 15  7
  16929087.269   -31469559.73849 -24220583.29349  16929085.6634   16929091.4154
  15986868.271   -30912086.16449 -24069440.81949  15986867.6274   15986872.7944
  19505514.189   -22611851.14449 -17553378.93349  19505515.7304   19505521.9884
  17582934.715   -16030634.68149 -12482314.44549  17582933.1884   17582938.7474
  19639074.098   -15584778.82549 -11720572.76849  19639074.9254   19639082.6164
  17313935.696   -35709007.18849 -27795704.78649  17313935.5484   17313941.7894
 96  4 18 18 10 29.9860000  0  6  2 27 26 19 15  7
  16909947.925   -31570137.11149 -24298955.27649  16909946.4934   16909952.0214
  15970816.897   -30996437.40149 -24135169.06049  15970816.0734   15970821.2444
  19475296.886   -22770632.17949 -17677104.40349  19475300.8714   19475306.7734
  17577383.992   -16059800.00449 -12505040.68149  17577383.0934   17577388.0824
  19613703.967   -15718113.78549 -11824470.10049  19613702.5494   19613709.4964
  17281707.462   -35878352.48149 -27927662.13949  17281710.4244   17281716.6974
 96  4 18 18 10 59.9860000  0  6  2 27 26 19 15  7
  16890843.622   -31670529.60549 -24377183.19949  16890842.4194   16890847.9334
  15954843.507   -31080368.61849 -24200570.00849  15954844.3384   15954849.9554
  19445155.879   -22929032.26749 -17800533.02749  19445158.2684   19445164.9954
  17571892.030   -16088651.98149 -12527522.77249  17571892.6644   17571898.5064
  19588408.765   -15851034.30049 -11928044.48249  19588409.5044   19588415.4294
  17249556.251   -36047330.67649 -28059333.43749  17249554.7474   17249561.3914
 96  4 18 18 11 29.9860000  0  6  2 27 26 19 15  7
  16871774.476   -31770729.70549 -24455261.19849  16871774.7684   16871780.5074
  15938953.287   -31163880.25649 -24265644.01849  15938952.8434   15938958.1384
  19415090.034   -23087045.49249 -17923660.20949  19415090.2974   19415095.4744
  17566465.046   -16117175.31449 -12549748.77649  17566464.6284   17566470.3424
  19563195.582   -15983540.09449 -12031295.73249  19563193.9774   19563200.4954
  17217468.077   -36215950.81349 -28190725.73149  17217467.4964   17217473.8854
 96  4 18 18 11 59.9860000  0  6  2 27 26 19 15  7
  16852739.736   -31870756.65749 -24533204.28249  16852740.4294   16852745.8494
  15923138.709   -31246987.68849 -24330403.06249  15923138.0494   15923142.9484
  19385090.208   -23244674.81549 -18046488.24549  19385094.3254   19385099.2274
  17561095.464   -16145387.71049 -12571732.48749  17561096.0454   17561101.7284
  19538055.677   -16115635.11149 -12134226.89549  19538056.3254   19538063.4534
  17185444.108   -36384237.73249 -28321858.38049  17185443.6414   17185449.6664
 96  4 18 18 12 29.9850000  0  6  2 27 26 19 15  7
  16833739.756   -31970607.49249 -24611010.12249  16833739.0384   16833745.0784
  15907396.719   -31329700.69849 -24394854.75749  15907398.2374   15907403.3664
  19355176.218   -23401908.39849 -18169007.91949  19355173.6644   19355179.0104
  17555784.629   -16173300.38849 -12593482.65449  17555784.6984   17555790.4234
  19512998.166   -16247314.18849 -12236833.89249  19512998.3724   19513005.9994
  17153485.606   -36552175.85049 -28452719.23149  17153485.9584   17153492.1934
 96  4 18 18 12 59.9850000  0  6  2 27 26 19 15  7
  16814770.197   -32070298.57849 -24688691.48349  16814768.7664   16814774.6044
  15891733.708   -31412021.33849 -24459000.71449  15891733.2454   15891738.4304
  19325326.750   -23558755.60449 -18291226.49549  19325326.1474   19325332.5154
  17550526.276   -16200928.35449 -12615010.96949  17550526.7694   17550533.6694
  19488017.856   -16378583.82649 -12339121.90449  19488018.8634   19488026.0644
  17121593.298   -36719773.95649 -28583315.13849  17121593.1134   17121599.3104
 96  4 18 18 13 29.9850000  0  6  2 27 26 19 15  7
  16795822.569   -32169860.67549 -24766272.33949  16795822.7184   16795828.6074
  15876140.463   -31493966.38549 -24522854.00349  15876139.8224   15876144.9374
  19295552.798   -23715219.15549 -18413146.12649  19295551.9424   19295557.6994
  17545319.109   -16228297.11149 -12636337.30249  17545319.2534   17545325.1394
  19463117.746   -16509442.93649 -12441090.03749  19463117.5264   19463123.7694
  17089764.363   -36887031.22349 -28713645.45949  17089765.5204   17089771.3864
 96  4 18 18 13 59.9850000  0  6  2 27 26 19 15  7
  16776898.130   -32269310.65749 -24843765.82849  16776898.1234   16776904.0084
  15860619.681   -31575520.67749 -24586402.80649  15860620.2094   15860625.6784
  19265849.881   -23871296.62549 -18534764.92649  19265852.3074   19265857.2384
  17540158.656   -16255414.38949 -12657467.66149  17540158.9184   17540164.8904
  19438295.648   -16639881.38749 -12542730.31849  19438295.7934   19438302.4844
  17058005.037   -37053929.76049 -28843696.24749  17058005.3074   17058011.8954
 96  4 18 18 14 29.9850000  0  6  2 27 26 19 15  7
  16757993.452   -32368656.40349 -24921178.10049  16757992.8534   16757998.9874
  15845178.577   -31656665.02949 -24649632.18749  15845179.2314   15845184.4764
  19236225.494   -24026989.83349 -18656084.30649  19236225.2484   19236230.5844
  17535047.795   -16282275.60249 -12678398.50349  17535047.0474   17535052.9084
  19413554.110   -16769896.77049 -12644040.98949  19413554.6994   19413561.7384
  17026313.993   -37220452.28949 -28973454.04449  17026317.1414   17026323.5384
 96  4 18 18 14 59.9850000  0  6  2 27 26 19 15  7
  16739105.473   -32467914.89949 -24998522.38449  16739104.8654   16739110.7344
  15829819.417   -31737385.40049 -24712531.18649  15829818.6074   15829824.0334
  19206665.243   -24182306.57649 -18777110.34049  19206668.4454   19206673.8104
  17529988.022   -16308860.79549 -12699114.27149  17529988.1524   17529994.6834
  19388894.936   -16899488.56749 -12745021.57849  19388894.1984   19388901.6214
  16994700.345   -37386599.60649 -29102919.47049  16994700.3494   16994706.9474
 96  4 18 18 15 29.9850000  0  6  2 27 26 19 15  7
  16720235.481   -32567079.26449 -25075793.31549  16720234.3424   16720240.2444
  15814539.454   -31817672.85849 -24775092.85149  15814540.2264   15814545.6434
  19177184.067   -24337239.67749 -18897837.41849  19177186.1784   19177191.6414
  17524984.738   -16335159.72549 -12719606.98749  17524983.8904   17524989.9824
  19364313.684   -17028654.30349 -12845670.15549  19364314.6244   19364321.9964
  16963156.630   -37552361.19749 -29232084.32849  16963156.8784   16963163.3514
 96  4 18 18 15 59.9850000  0  6  2 27 26 19 15  7
  16701390.935   -32666108.37949 -25152958.85849  16701390.0704   16701395.9074
  15799348.777   -31897501.99249 -24837297.38049  15799349.2994   15799354.6094
  19147780.539   -24491763.04749 -19018245.23849  19147780.8394   19147786.2274
  17520036.919   -16361153.35449 -12739861.79849  17520037.1204   17520043.3474
  19339817.934   -17157383.61949 -12945978.72149  19339818.4224   19339825.6854
  16931685.651   -37717736.94749 -29360948.53449  16931687.0634   16931693.2894
 96  4 18 18 16 29.9850000  0  6  2 27 26 19 15  7
  16682574.486   -32764979.01149 -25230000.91949  16682575.2654   16682581.4974
  15784244.312   -31976875.84649 -24899147.13949  15784245.0254   15784250.5734
  19118457.998   -24645861.15549 -19138321.69049  19118457.5614   19118462.1084
  17515151.177   -16386825.61349 -12759866.18049  17515152.1294   17515158.1174
  19315407.131   -17285670.75149 -13045942.70449  19315406.1064   19315413.6984
  16900291.157   -37882730.33049 -29489514.78849  16900290.0044   16900295.9484
 96  4 18 18 16 59.9850000  0  6  2 27 26 19 15  7
  16663814.228   -32863573.79549 -25306828.02849  16663813.3974   16663819.4894
  15769245.042   -32055705.31949 -24960572.71249  15769244.4104   15769249.6714
  19089235.554   -24799430.28249 -19257985.94949  19089233.7644   19089239.3624
  17510345.245   -16412086.40649 -12779549.94249  17510345.3114   17510351.0194
  19291095.858   -17413415.73749 -13145484.21649  19291097.3944   19291103.5074
  16868981.388   -38047248.21549 -29617710.53249  16868983.4674   16868989.3404
 96  4 18 18 17 29.9850000  0  6  2 27 26 19 15  7
  16645088.626   -32961967.83649 -25383498.71249  16645089.8194   16645095.4524
  15754330.125   -32134081.94549 -25021645.41549  15754330.1354   15754335.2374
  19060097.689   -24952554.51249 -19377303.52849  19060095.8694   19060100.4314
  17505596.508   -16437042.38949 -12798996.18549  17505596.0814   17505601.9184
  19266873.028   -17540704.80649 -13244670.50749  19266874.0474   19266881.8564
  16837745.891   -38211395.21049 -29745617.26049  16837747.0164   16837752.9604
 96  4 18 18 17 59.9850000  0  6  2 27 26 19 15  7
  16626376.291   -33060306.14149 -25460125.96249  16626376.5654   16626382.4244
  15739473.615   -32212145.17249 -25082473.91049  15739474.9954   15739480.2084
  19031011.665   -25105378.16349 -19496386.87449  19031013.4984   19031019.4124
  17500879.051   -16461825.40249 -12818307.64949  17500880.0134   17500885.7544
  19242714.772   -17667669.53749 -13343604.04249  19242713.1654   19242721.4514
  16806554.302   -38375318.21949 -29873349.45749  16806553.8584   16806559.7564
 96  4 18 18 18 29.9850000  0  6  2 27 26 19 15  7
  16607694.304   -33158481.14549 -25536625.96049  16607694.1404   16607700.0794
  15724702.201   -32289774.29749 -25142964.13949  15724702.5274   15724707.8464
  19002010.233   -25257796.49049 -19615154.38349  19002009.7934   19002015.4194
  17496219.154   -16486319.72949 -12837394.15749  17496218.5914   17496225.3284
  19218636.911   -17794185.47049 -13442187.85749  19218637.6994   19218646.2274
  16775426.925   -38538884.88149 -30000803.98149  16775427.5854   16775433.8664
 96  4 18 18 18 59.9850000  0  6  2 27 26 19 15  7
  16589045.709   -33256481.11049 -25612989.57249  16589045.4924   16589051.7794
  15710016.249   -32366945.43449 -25203097.49649  15710017.1984   15710022.6614
  18973081.873   -25409803.72949 -19733601.57149  18973084.0454   18973088.8534
  17491614.068   -16510516.88549 -12856249.10349  17491614.1764   17491620.3604
  19194652.869   -17920231.89549 -13540405.85049  19194652.0574   19194660.3104
  16744375.669   -38702069.86749 -30127961.09849  16744374.6754   16744380.8444
 96  4 18 18 19 29.9850000  0  6  2 27 26 19 15  7
  16570424.551   -33354334.73949 -25689239.15349  16570424.4514   16570430.5724
  15695420.312   -32443652.67749 -25262869.37649  15695419.9354   15695425.8884
  18944237.039   -25561405.63549 -19851732.92449  18944234.3674   18944239.9894
  17487065.303   -16534417.92449 -12874873.30649  17487065.9624   17487072.2094
  19170756.145   -18045812.03949 -13638260.44149  19170755.3904   19170763.5764
  16713395.172   -38864872.43149 -30254820.22249  16713394.2184   16713400.9294
 96  4 18 18 19 59.9850000  0  6  2 27 26 19 15  7
  16551835.428   -33452020.42249 -25765357.86749  16551835.7754   16551841.6874
  15680918.064   -32519863.34349 -25322254.31549  15680917.8174   15680923.7464
  18915467.227   -25712575.37149 -19969527.50849  18915467.9984   18915474.3304
  17482581.115   -16557984.16049 -12893236.64149  17482581.4844   17482587.8994
  19146952.692   -18170897.47349 -13735729.62349  19146951.5644   19146958.8014
  16682495.326   -39027244.06349 -30381343.55449  16682495.7344   16682502.8434
 96  4 18 18 20 29.9850000  0  6  2 27 26 19 15  7
  16533276.423   -33549547.58349 -25841353.05849  16533276.8724   16533283.0784
  15666506.845   -32595596.58949 -25381267.24749  15666506.6394   15666512.3544
  18886783.865   -25863311.09149 -20086983.90149  18886783.6524   18886790.0234
  17478155.447   -16581240.45649 -12911358.45449  17478156.0294   17478162.1224
  19123239.745   -18295502.62949 -13832824.51949  19123239.6984   19123248.4824
  16651679.004   -39189182.83649 -30507529.59849  16651680.0774   16651686.5194
 96  4 18 18 20 59.9840000  0  6  2 27 26 19 15  7
  16514743.680   -33646942.03349 -25917244.83549  16514743.3924   16514749.4914
  15652180.216   -32670870.92449 -25439922.58049  15652182.0384   15652187.8554
  18858186.013   -26013604.71649 -20204095.81049  18858184.6254   18858189.5384
  17473790.232   -16604184.51849 -12929236.96449  17473790.4484   17473796.8584
  19099619.731   -18419637.55149 -13929553.02249  19099619.4104   19099626.2274
  16620944.115   -39350701.33449 -30633388.14549  16620943.7104   16620950.3744
 96  4 18 18 21 29.9840000  0  6  2 27 26 19 15  7
  16496231.966   -33744225.20749 -25993049.90949  16496230.7344   16496237.1424
  15637942.639   -32745700.87949 -25498231.64849  15637942.7384   15637948.1904
  18829667.664   -26163458.71649 -20320865.15049  18829668.2554   18829673.1214
  17469481.708   -16626818.81149 -12946874.10649  17469482.9154   17469489.6374
  19076083.376   -18543314.68949 -14025924.79949  19076083.8164   19076092.0474
  16590282.331   -39511823.64549 -30758937.98149  16590283.4014   16590289.8224
 96  4 18 18 21 59.9840000  0  6  2 27 26 19 15  7
  16477739.802   -33841393.93249 -26068765.80449  16477740.0574   16477746.4294
  15623783.557   -32820107.08349 -25556210.51249  15623783.5794   15623789.3824
  18801239.021   -26312867.70549 -20437287.73449  18801236.5264   18801242.2944
  17465233.385   -16649149.77449 -12964274.87749  17465233.6964   17465240.2274
  19052636.247   -18666533.16849 -14121939.17449  19052635.6134   19052644.3674
  16559696.990   -39672555.44649 -30884183.52349  16559697.2064   16559703.5774
 96  4 18 18 22 29.9840000  0  6  2 27 26 19 15  7
  16459267.277   -33938471.67249 -26144410.79949  16459266.7024   16459273.1694
  15609701.552   -32894106.14249 -25613872.13049  15609702.0284   15609707.7764
  18772888.247   -26461835.04049 -20553366.17149  18772888.9124   18772894.3864
  17461035.849   -16671198.54649 -12981455.76849  17461037.5444   17461044.8684
  19029273.630   -18789300.47549 -14217601.98449  19029274.5614   19029281.8164
  16529184.325   -39832913.04749 -31009137.47549  16529182.2514   16529188.5524
 96  4 18 18 22 59.9840000  0  6  2 27 26 19 15  7
  16440810.539   -34035456.24749 -26219983.19049  16440811.2444   16440817.4044
  15595699.382   -32967687.94349 -25671208.60249  15595700.1124   15595705.6284
  18744622.309   -26610368.24949 -20669106.32649  18744624.0204   18744630.0294
  17456894.240   -16692966.39749 -12998417.75049  17456895.5164   17456902.4424
  19005997.681   -18911616.97149 -14312913.53449  19005998.1514   19006005.7494
  16498733.300   -39992906.86349 -31133807.96149  16498736.0434   16498742.6794
 96  4 18 18 23 29.9840000  0  6  2 27 26 19 15  7
  16422375.710   -34132335.60949 -26295473.59749  16422376.0224   16422382.1724
  15581774.368   -33040859.70349 -25728225.56449  15581775.9784   15581781.7034
  18716433.674   -26758486.22049 -20784522.92249  18716437.6844   18716443.5254
  17452799.506   -16714485.84649 -13015186.17649  17452800.1524   17452806.7924
  18982805.539   -19033492.24049 -14407881.24849  18982806.7524   18982813.7744
  16468357.663   -40152538.49049 -31258196.22049  16468359.0244   16468365.7044
 96  4 18 18 23 59.9840000  0  6  2 27 26 19 15  7
  16403963.094   -34229092.27049 -26370868.39649  16403963.8674   16403970.1924
  15567929.528   -33113619.56749 -25784921.55849  15567930.0824   15567935.7654
  18688331.558   -26906188.42249 -20899615.53449  18688331.5434   18688337.0194
  17448749.781   -16735766.00849 -13031768.14749  17448750.5834   17448757.3824
  18959697.810   -19154924.44649 -14502503.75049  18959698.4314   18959705.2844
  16438056.224   -40311786.99649 -31382285.95149  16438055.2014   16438061.8794
 96  4 18 18 24 29.9840000  0  6  2 27 26 19 15  7
  16385577.891   -34325713.05449 -26446157.31349  16385577.2694   16385583.6674
  15554163.813   -33185957.08749 -25841288.46049  15554164.5094   15554170.4154
  18660302.164   -27053480.45949 -21014388.54049  18660301.7424   18660308.3364
  17444744.670   -16756812.10149 -13048167.73449  17444746.1434   17444753.0504
  18936672.184   -19275915.25649 -14596782.28049  18936674.5424   18936681.8534
  16407824.436   -40470644.08949 -31506070.68349  16407825.9374   16407832.0464
 96  4 18 18 24 59.9840000  0  6  2 27 26 19 15  7
  16367218.965   -34422182.72949 -26521328.49049  16367219.6714   16367226.1504
  15540476.604   -33257879.90049 -25897332.22449  15540478.1994   15540483.9664
  18632350.234   -27200369.20549 -21128847.29049  18632349.3824   18632356.5444
  17440783.386   -16777631.74249 -13064390.86449  17440784.1984   17440790.8284
  18913733.481   -19396463.37049 -14690715.89049  18913735.0134   18913742.1094
  16377670.450   -40629104.98749 -31629546.68549  16377671.6724   16377678.1254
 96  4 18 18 25 29.9840000  0  6  2 27 26 19 15  7
  16348890.158   -34518509.00349 -26596387.92549  16348889.5064   16348896.0964
  15526867.737   -33329398.10449 -25953060.70149  15526868.4464   15526874.2944
  18604467.782   -27346860.99049 -21242996.71449  18604473.6134   18604479.7984
  17436865.337   -16798227.36749 -13080439.42949  17436864.9264   17436870.9884
  18890879.298   -19516566.31749 -14784302.56049  18890880.1464   18890887.8004
  16347594.142   -40787160.31949 -31752706.67049  16347594.7714   16347601.1084
 96  4 18 18 25 59.9840000  0  6  2 27 26 19 15  7
  16330583.947   -34614698.51849 -26671340.79549  16330585.3944   16330591.5594
  15513334.391   -33400510.12849 -26008472.67449  15513336.3374   15513342.2374
  18576673.129   -27492944.20849 -21356827.78949  18576674.9084   18576680.6174
  17432990.749   -16818589.95049 -13096306.41949  17432990.4894   17432996.6544
  18868111.202   -19636217.76249 -14877537.49149  18868110.7544   18868118.5344
  16317591.279   -40944821.35249 -31875559.40549  16317592.7264   16317599.0964
 96  4 18 18 26 29.9840000  0  6  2 27 26 19 15  7
  16312304.590   -34710760.50949 -26746194.30149  16312305.4834   16312311.4914
  15499882.234   -33471211.21449 -26063564.43549  15499882.5594   15499888.1024
  18548953.552   -27638626.79149 -21470346.67849  18548952.3184   18548958.5054
  17429160.177   -16838711.34349 -13111985.45949  17429161.7454   17429167.8694
  18845426.634   -19755414.83249 -14970418.26849  18845429.0314   18845436.5104
  16287661.867   -41102111.15249 -31998122.87049  16287661.3614   16287668.2034
 96  4 18 18 26 59.9840000  0  6  2 27 26 19 15  7
  16294047.445   -34806706.26049 -26820957.21949  16294047.4964   16294053.6854
  15486508.125   -33541494.28849 -26118330.46649  15486508.1784   15486513.7834
  18521304.441   -27783913.81649 -21583557.33949  18521305.9084   18521311.4194
  17425380.469   -16858583.87249 -13127470.58349  17425380.4904   17425386.0614
  18822833.876   -19874158.67549 -15062945.91849  18822832.7564   18822839.5984
  16257797.707   -41259046.55949 -32120410.18049  16257797.7044   16257803.8354
 96  4 18 18 27 29.9840000  0  6  2 27 26 19 15  7
  16275811.057   -34902534.21549 -26895628.34649  16275811.9414   16275818.0514
  15473216.214   -33611339.73749 -26172755.49149  15473217.0194   15473222.5604
  18493734.842   -27928802.42549 -21696457.54749  18493733.7694   18493740.2414
  17421648.633   -16878185.12049 -13142744.31449  17421649.9224   17421656.3074
  18800322.089   -19992447.99849 -15155119.41549  18800323.7304   18800329.5044
  16227998.195   -41415642.43649 -32242432.92049  16227998.4454   16228004.9214
 96  4 18 18 27 59.9840000  0  6  2 27 26 19 15  7
  16257605.973   -34998207.43549 -26970178.90949  16257606.0424   16257612.1444
  15460015.529   -33680709.07049 -26226809.53649  15460016.4064   15460022.1964
  18466244.698   -28073260.54749 -21809022.30949  18466244.7214   18466250.3704
  17417977.283   -16897476.40549 -13157776.51149  17417978.6244   17417984.9174
  18777906.111   -20110251.69449 -15246914.47849  18777904.8384   18777913.5424
  16198268.048   -41571881.53249 -32364177.65749  16198266.9254   16198273.5604
 96  4 18 18 28 29.9840000  0  6  2 27 26 19 15  7
  16239428.998   -35093730.12749 -27044612.18049  16239428.7104   16239434.6164
  15446907.267   -33749588.23449 -26280481.62749  15446908.9164   15446914.6884
  18438833.617   -28217291.45149 -21921254.16849  18438836.0744   18438841.9084
  17414368.840   -16916451.70849 -13172562.50249  17414367.6654   17414374.3224
  18755581.232   -20227563.97049 -15338326.59949  18755581.7774   18755588.1504
  16168605.698   -41727747.03149 -32485631.27749  16168607.1264   16168613.4164
 96  4 18 18 28 59.9830000  0  6  2 27 26 19 15  7
  16221275.702   -35189127.79549 -27118948.02149  16221275.3594   16221281.1504
  15433892.648   -33817995.81749 -26333786.24749  15433891.7934   15433896.7484
  18411505.884   -28360893.75349 -22033152.06649  18411509.7874   18411515.0534
  17410813.388   -16935127.86749 -13187115.38949  17410814.1844   17410819.6714
  18733350.041   -20344394.00649 -15429362.98849  18733349.8334   18733356.7524
  16139018.038   -41883235.88049 -32606791.40249  16139018.4974   16139024.4584
 96  4 18 18 29 29.9830000  0  6  2 27 26 19 15  7
  16203147.773   -35284400.31849 -27193186.35849  16203145.5464   16203151.5794
  15420964.048   -33885929.93949 -26386721.95049  15420964.1934   15420969.7084
  18384269.425   -28504034.90549 -22144690.63649  18384271.2234   18384275.9734
  17407319.823   -16953490.31149 -13201423.82549  17407319.8684   17407325.3894
  18711213.030   -20460720.88749 -15520007.28949  18711212.1604   18711220.7384
  16109508.158   -42038321.26249 -32727637.13949  16109507.0484   16109512.9534
 96  4 18 18 29 59.9830000  0  6  2 27 26 19 15  7
  16185037.664   -35379566.02749 -27267341.45949  16185036.0224   16185042.1834
  15408124.062   -33953406.24749 -26439300.90049  15408123.9524   15408129.1784
  18357119.271   -28646694.19249 -22255853.70749  18357123.6594   18357129.1824
  17403883.442   -16971558.86149 -13215503.24549  17403881.3994   17403887.6964
  18689174.372   -20576540.08349 -15610256.01649  18689174.4424   18689181.3054
  16080079.943   -42192976.23849 -32848147.49249  16080076.9394   16080082.9924
 96  4 18 18 30 29.9830000  0  6  2 27 26 19 15  7
  16166944.422   -35474639.77749 -27341424.90549  16166944.2504   16166950.1434
  15395366.825   -34020437.69249 -26491533.22249  15395368.0934   15395373.5814
  18330070.495   -28788850.84349 -22366625.12249  18330072.2224   18330077.6504
  17400498.750   -16989340.01849 -13229358.71549  17400498.2024   17400503.9694
  18667232.033   -20691849.59149 -15700107.54149  18667231.3744   18667238.6564
  16050733.203   -42347182.65649 -32968308.32149  16050732.3724   16050738.6044
 96  4 18 18 30 59.9830000  0  6  2 27 26 19 15  7
  16148872.192   -35569605.20249 -27415423.94449  16148872.7844   16148878.5684
  15382697.301   -34087030.66449 -26543423.87449  15382696.0904   15382701.2044
  18303120.462   -28930483.71749 -22476988.39849  18303120.5734   18303126.0914
  17397169.704   -17006832.13949 -13242988.97949  17397169.6204   17397175.0544
  18645386.454   -20806641.12249 -15789555.48449  18645387.3634   18645393.5724
  16021474.253   -42500933.15549 -33088113.88949  16021474.3964   16021480.5054
 96  4 18 18 31 29.9830000  0  6  2 27 26 19 15  7
  16130827.057   -35664439.91149 -27489321.12249  16130826.2564   16130832.2614
  15370107.086   -34153190.98649 -26594977.37849  15370106.3794   15370111.6894
  18276266.940   -29071601.65349 -22586950.41349  18276266.7344   18276272.6134
  17393892.587   -17024047.84749 -13256403.85249  17393893.0974   17393898.9014
  18623642.940   -20920915.88749 -15878600.73049  18623641.8694   18623648.7924
  15992306.054   -42654221.46449 -33207559.31049  15992304.9854   15992311.0334
 96  4 18 18 31 59.9830000  0  6  2 27 26 19 15  7
  16112809.709   -35759123.61749 -27563100.63849  16112808.6174   16112814.1234
  15357601.137   -34218910.09949 -26646187.08749  15357600.6244   15357605.5804
  18249507.999   -29212225.60049 -22696527.50849  18249505.8094   18249511.8054
  17390666.203   -17040999.85649 -13269613.24649  17390667.1594   17390672.9654
  18601992.797   -21034674.86149 -15967244.12349  18601993.4084   18602000.5694
  15963222.220   -42807044.20949 -33326641.94549  15963223.8754   15963230.0014
 96  4 18 18 32 29.9830000  0  6  2 27 26 19 15  7
  16094825.236   -35853633.81749 -27636744.95149  16094823.9374   16094829.6524
  15345179.911   -34284176.61849 -26697044.12149  15345180.8874   15345185.8264
  18222834.450   -29352386.30249 -22805743.62449  18222834.7804   18222840.7884
  17387492.859   -17057690.40649 -13282618.90249  17387491.0714   17387496.7864
  18580447.383   -21147917.86849 -16055485.39349  18580445.4204   18580451.8514
  15934230.111   -42959414.89049 -33445372.32449  15934228.5694   15934234.7024
 96  4 18 18 32 59.9830000  0  6  2 27 26 19 15  7
  16076878.019   -35947948.83149 -27710237.17249  16076876.7974   16076882.2884
  15332850.944   -34348970.04049 -26747532.50549  15332850.8784   15332855.8204
  18196246.997   -29492102.56549 -22914613.44249  18196248.5304   18196253.5134
  17384365.755   -17074120.92249 -13295421.94349  17384364.1654   17384370.4434
  18558992.606   -21260642.04349 -16143322.42449  18558993.5124   18559000.8604
  15905319.544   -43111330.78249 -33563748.33049  15905319.8384   15905326.0674
 96  4 18 18 33 29.9830000  0  6  2 27 26 19 15  7
  16058966.891   -36042065.90449 -27783575.15549  16058966.7084   16058972.3144
  15320613.877   -34413278.94349 -26797643.35449  15320613.4744   15320618.4094
  18169746.492   -29631383.36349 -23023143.93749  18169743.6144   18169749.1264
  17381289.742   -17090280.01949 -13308013.50249  17381290.5204   17381295.6984
  18537644.122   -21372843.05949 -16230751.75349  18537642.1994   18537649.6064
  15876499.925   -43262787.56349 -33681766.58249  15876498.4104   15876504.7784
 96  4 18 18 33 59.9830000  0  6  2 27 26 19 15  7
  16041095.247   -36135985.25649 -27856759.06749  16041094.1934   16041100.2334
  15308471.284   -34477083.47549 -26847361.18349  15308471.7204   15308477.0914
  18143326.693   -29770199.09949 -23131312.03549  18143327.9954   18143333.6084
  17378272.118   -17106134.32349 -13320367.54849  17378272.7414   17378279.1904
  18516392.511   -21484504.94549 -16317761.05249  18516394.2954   18516401.2784
  15847764.437   -43413784.98149 -33799426.89249  15847764.5554   15847770.9074
 96  4 18 18 34 29.9830000  0  6  2 27 26 19 15  7
  16023257.951   -36229719.86749 -27929799.03049  16023257.1934   16023263.3454
  15296424.735   -34540396.36249 -26896695.90749  15296423.7344   15296428.9784
  18117003.085   -29908531.50149 -23239103.52349  18117004.2604   18117009.5954
  17375316.633   -17121675.77849 -13332477.81549  17375315.9824   17375321.9654
  18495249.017   -21595628.36349 -16404350.70149  18495247.8054   18495255.8424
  15819117.678   -43564330.06449 -33916734.73049  15819116.7544   15819122.9924
 96  4 18 18 34 59.9830000  0  6  2 27 26 19 15  7
  16005451.921   -36323288.56649 -28002709.70849  16005451.7204   16005457.8534
  15284467.874   -34603222.87349 -26945651.63749  15284468.1614   15284473.6894
  18090776.619   -30046357.23949 -23346500.19449  18090776.8364   18090782.2244
  17372419.600   -17136896.06349 -13344337.81449  17372419.8304   17372425.2514
  18474204.433   -21706211.45949 -16490519.34649  18474204.5464   18474210.8854
  15790553.672   -43714425.07849 -34033691.86349  15790554.6774   15790560.9114
 96  4 18 18 35 29.9830000  0  6  2 27 26 19 15  7
  15987674.400   -36416708.21749 -28075504.24549  15987674.5204   15987680.5024
  15272603.632   -34665573.20849 -26994236.31449  15272603.2374   15272608.6104
  18064642.129   -30183668.68349 -23453496.12249  18064647.2114   18064653.0714
  17369582.687   -17151796.79149 -13355948.78549  17369583.8324   17369590.4254
  18453265.279   -21816254.04249 -16576266.79249  18453265.4714   18453271.8854
  15762073.762   -43864095.70149 -34150318.30749  15762073.3944   15762079.4174
 96  4 18 18 35 59.9830000  0  6  2 27 26 19 15  7
  15969924.712   -36509983.40449 -28148186.21049  15969925.1014   15969931.0214
  15260827.086   -34727446.05249 -27042448.93149  15260829.3364   15260834.5674
  18038614.176   -30320465.87349 -23560091.33049  18038615.9454   18038621.3714
  17366804.997   -17166400.51749 -13367328.33449  17366804.6074   17366811.3784
  18432424.491   -21925762.81049 -16661598.30249  18432425.1104   18432431.0834
  15733670.644   -44013350.96149 -34266621.09349  15733670.7384   15733677.3144
 96  4 18 18 36 29.9830000  0  6  2 27 26 19 15  7
  15952202.396   -36603111.15549 -28220753.28849  15952203.3734   15952209.4344
  15249148.182   -34788832.74149 -27090282.72549  15249147.7444   15249153.5744
  18012680.372   -30456757.93349 -23666292.92749  18012679.8494   18012686.4654
  17364079.704   -17180723.05449 -13378488.78449  17364079.2054   17364085.9024
  18411690.393   -22034735.90549 -16746512.41149  18411689.0524   18411695.9744
  15705348.773   -44162178.05749 -34382590.24149  15705350.1314   15705356.5484
 96  4 18 18 36 59.9830000  0  6  2 27 26 19 15  7
  15934508.303   -36696101.89449 -28293213.60649  15934507.7164   15934513.6874
  15237558.833   -34849730.65049 -27137735.66249  15237559.2224   15237564.6244
  17986841.612   -30592546.60649 -23772102.27249  17986840.3584   17986846.2044
  17361407.692   -17194767.28449 -13389432.37749  17361407.0924   17361413.1774
  18391052.752   -22143180.85949 -16831014.98849  18391052.7194   18391058.8484
  15677108.649   -44310585.90149 -34498232.70649  15677108.8264   15677115.3854
 96  4 18 18 37 29.9820000  0  6  2 27 26 19 15  7
  15916841.916   -36788938.51949 -28365553.83449  15916841.3154   15916847.7454
  15226064.718   -34910134.05649 -27184803.26149  15226064.7744   15226070.4714
  17961097.731   -30727826.63349 -23877515.26949  17961097.2144   17961103.6304
  17358785.638   -17208536.85549 -13400161.95549  17358786.4834   17358793.3164
  18370517.172   -22251091.51649 -16915101.18749  18370517.5684   18370524.7844
  15648950.281   -44458557.09549 -34613534.92149  15648950.7804   15648957.2244
 96  4 18 18 37 59.9820000  0  6  2 27 26 19 15  7
  15899202.527   -36881633.86749 -28437783.97849  15899201.9154   15899208.2524
  15214661.882   -34970057.40449 -27231496.80249  15214662.1104   15214667.7074
  17935451.323   -30862607.14149 -23982539.04449  17935449.5184   17935455.6884
  17356219.975   -17222028.81649 -13410675.21549  17356219.3734   17356226.1694
  18350081.407   -22358476.18949 -16998777.56749  18350082.8044   18350089.3954
  15620878.541   -44606069.39249 -34728479.56249  15620880.3054   15620886.7614
 96  4 18 18 38 29.9820000  0  6  2 27 26 19 15  7
  15881587.706   -36974198.76649 -28509912.47349  15881587.4544   15881593.6684
  15203347.975   -35029512.17949 -27277825.20249  15203348.0474   15203353.5834
  17909896.020   -30996894.83149 -24087178.79649  17909895.7844   17909901.0834
  17353703.404   -17235234.74649 -13420965.58149  17353705.9364   17353712.7354
  18329750.340   -22465332.16749 -17082041.95349  18329748.8614   18329756.3094
  15592898.711   -44753119.85049 -34843064.32049  15592897.3544   15592903.9134
 96  4 18 18 38 59.9820000  0  6  2 27 26 19 15  7
  15863996.719   -37066636.02349 -28581941.51249  15863997.4334   15864003.5354
  15192121.272   -35088508.79649 -27323796.60249  15192121.5854   15192127.0594
  17884433.924   -31130705.35549 -24191446.74849  17884432.8714   17884437.8144
  17351245.355   -17248165.38049 -13431041.44149  17351245.5674   17351251.6774
  18309514.951   -22571666.79249 -17164900.11749  18309515.4884   18309521.8744
  15564999.856   -44899719.40149 -34957297.72649  15565000.7864   15565007.1264
 96  4 18 18 39 29.9820000  0  6  2 27 26 19 15  7
  15846433.025   -37158938.13849 -28653865.23849  15846433.1084   15846438.7454
  15180979.724   -35147055.13349 -27369417.13949  15180980.4834   15180985.8764
  17859057.419   -31264061.68649 -24295360.77149  17859055.0124   17859060.5114
  17348833.220   -17260838.27249 -13440916.45649  17348834.0134   17348840.8704
  18289374.575   -22677478.57149 -17247350.82749  18289377.2094   18289385.8514
  15537190.966   -45045865.40749 -35071177.71349  15537190.1844   15537196.3014
 96  4 18 18 39 59.9820000  0  6  2 27 26 19 15  7
  15828891.996   -37251117.30249 -28725693.15949  15828891.6544   15828898.0034
  15169922.648   -35205163.26849 -27414696.21149  15169922.4714   15169928.0884
  17833762.060   -31396959.29549 -24398917.34149  17833765.5984   17833772.0774
  17346469.961   -17273257.72249 -13450593.98749  17346470.3984   17346477.4724
  18269344.076   -22782770.15549 -17329396.24249  18269342.6434   18269348.4324
  15509462.956   -45191567.87349 -35184712.09049  15509463.7874   15509469.7444
 96  4 18 18 40 29.9820000  0  6  2 27 26 19 15  7
  15811376.396   -37343162.09049 -28797416.37249  15811376.3754   15811382.2924
  15158949.424   -35262825.91349 -27459628.15249  15158949.9144   15158955.2854
  17808567.053   -31529388.91149 -24502109.25349  17808564.8354   17808570.9094
  17344152.106   -17285442.69749 -13460088.80649  17344151.6924   17344158.3644
  18249404.814   -22887543.06549 -17411037.45949  18249405.6294   18249410.6724
  15481815.298   -45336855.65049 -35297923.33349  15481816.2684   15481822.2044
 96  4 18 18 40 59.9820000  0  6  2 27 26 19 15  7
  15793886.250   -37435071.34349 -28869033.97149  15793886.7274   15793892.4944
  15148062.906   -35320035.72649 -27504207.23649  15148063.1884   15148068.5814
  17783455.791   -31661335.88849 -24604925.07849  17783456.3434   17783462.1454
  17341876.207   -17297401.28849 -13469407.22749  17341876.4994   17341882.5934
  18229565.315   -22991799.10549 -17492275.88949  18229565.1104   18229572.8914
  15454249.035   -45481728.05049 -35410810.89949  15454247.9224   15454253.9334
 96  4 18 18 41 29.9820000  0  6  2 27 26 19 15  7
  15776420.693   -37526857.66149 -28940555.78049  15776419.9804   15776426.2044
  15137260.031   -35376803.92149 -27548442.19449  15137260.4024   15137266.1704
  17758441.067   -31792788.30449 -24707355.52549  17758441.4834   17758447.2324
  17339644.608   -17309125.25149 -13478542.83049  17339645.4124   17339652.0674
  18209825.427   -23095541.55849 -17573114.21249  18209824.5114   18209830.7504
  15426756.744   -45626192.91849 -35523380.91549  15426757.0314   15426763.1674
 96  4 18 18 41 59.9820000  0  6  2 27 26 19 15  7
  15758976.282   -37618527.87449 -29011987.11749  15758975.9274   15758981.9394
  15126544.542   -35433118.60949 -27592323.78549  15126544.5094   15126550.0874
  17733521.009   -31923738.95749 -24809395.00549  17733522.5054   17733528.7534
  17337459.621   -17320604.16449 -13487487.47749  17337461.3414   17337467.5014
  18190179.881   -23198769.66949 -17653551.62049  18190179.6164   18190188.0114
  15399344.204   -45770246.26249 -35635630.25649  15399344.4344   15399350.6314
 96  4 18 18 42 29.9820000  0  6  2 27 26 19 15  7
  15741554.041   -37710082.62349 -29083328.47949  15741553.5624   15741559.6564
  15115912.509   -35488986.27549 -27635857.05349  15115912.8854   15115918.8394
  17708693.721   -32054216.41449 -24911065.73749  17708693.5154   17708699.6484
  17335320.421   -17331858.17149 -13496256.87449  17335320.4124   17335326.8384
  18170631.825   -23301495.37249 -17733597.66149  18170631.6754   18170639.9204
  15372009.693   -45913891.81849 -35747561.84149  15372009.6564   15372016.0634
 96  4 18 18 42 59.9820000  0  6  2 27 26 19 15  7
  15724150.697   -37801530.07649 -29154586.22949  15724151.7744   15724157.7074
  15105364.046   -35544419.71549 -27679051.95849  15105364.7374   15105370.1104
  17683948.367   -32184246.25849 -25012387.68749  17683949.1754   17683956.0394
  17333222.551   -17342870.06749 -13504837.60949  17333223.9254   17333230.9294
  18151180.969   -23403717.32949 -17813251.08649  18151181.6504   18151186.7834
  15344754.324   -46057114.27149 -35859163.73449  15344755.2244   15344761.9094
 96  4 18 18 43 29.9820000  0  6  2 27 26 19 15  7
  15706771.156   -37892869.07849 -29225759.47049  15706770.5194   15706776.2904
  15094892.694   -35599440.41649 -27721925.24749  15094894.2844   15094899.8354
  17659283.812   -32313848.52349 -25113376.45349  17659286.4624   17659293.9024
  17331173.538   -17353640.52349 -13513230.20349  17331173.8094   17331181.8394
  18131821.513   -23505438.49949 -17892514.34549  18131822.3074   18131831.1874
  15317579.937   -46199922.59849 -35970442.93749  15317579.7034   15317586.2644
 96  4 18 18 43 59.9820000  0  6  2 27 26 19 15  7
  15689412.555   -37984086.68649 -29296838.12249  15689412.5374   15689418.5034
  15084503.181   -35654045.79249 -27764474.89649  15084503.4854   15084508.7134
  17634709.083   -32443023.14449 -25214031.99949  17634705.7264   17634712.9394
  17329168.532   -17364174.99949 -13521438.91349  17329169.7884   17329177.5454
  18112562.589   -23606655.73949 -17971384.91549  18112562.8494   18112568.9724
  15290485.187   -46342305.64649 -36081390.74949  15290485.3254   15290491.7664
 96  4 18 18 44 29.9820000  0  6  2 27 26 19 15  7
  15672077.593   -38075181.62149 -29367821.18649  15672077.5744   15672083.4044
  15074188.005   -35708249.29549 -27806711.40249  15074188.6324   15074194.5174
  17610207.131   -32571769.31349 -25314353.69649  17610206.3484   17610212.3144
  17327208.647   -17374475.14649 -13529465.05249  17327209.3074   17327216.5704
  18093399.539   -23707368.14649 -18049862.08649  18093397.3944   18093404.5704
  15263472.331   -46484268.54249 -36192011.16749  15263470.5194   15263477.0414
 96  4 18 18 44 59.9820000  0  6  2 27 26 19 15  7
  15654766.451   -38166155.09849 -29438709.60649  15654766.0594   15654772.0274
  15063952.720   -35762041.15949 -27848627.14049  15063952.6064   15063957.9954
  17585791.625   -32700068.63049 -25414327.18849  17585792.0794   17585798.3864
  17325296.276   -17384518.76649 -13537291.26849  17325298.1444   17325305.2584
  18074327.560   -23807563.31949 -18127936.24949  18074329.6174   18074338.1624
  15236534.695   -46625805.97349 -36302300.05749  15236536.7694   15236543.2434
 96  4 18 18 45 29.9820000  0  6  2 27 26 19 15  7
  15637477.705   -38257007.99749 -29509504.07549  15637477.1444   15637483.2584
  15053796.034   -35815402.91749 -27890207.74549  15053797.8164   15053803.5304
  17561470.731   -32827898.42649 -25513934.81549  17561466.5134   17561473.0464
  17323432.909   -17394326.50749 -13544933.70149  17323432.5454   17323438.9854
  18055364.419   -23907241.19249 -18205607.30249  18055363.6434   18055369.3374
  15209682.974   -46766922.37849 -36412260.87749  15209683.1914   15209689.6254
 96  4 18 18 45 59.9810000  0  6  2 27 26 19 15  7
  15620208.676   -38347754.01049 -29580215.25149  15620208.5804   15620214.7864
  15043728.581   -35868324.23149 -27931445.14749  15043727.6814   15043732.9334
  17537231.706   -32955243.21449 -25613164.49749  17537233.9044   17537239.7274
  17321605.299   -17403924.09149 -13552412.37849  17321606.1934   17321612.4374
  18036493.311   -24006403.55549 -18282876.62449  18036492.8994   18036500.0604
  15182909.214   -46907621.99349 -36521896.92249  15182908.8974   15182915.1284
 96  4 18 18 46 29.9810000  0  6  2 27 26 19 15  7
  15602961.425   -38438392.19849 -29650842.41149  15602960.8914   15602966.6014
  15033744.712   -35920783.58849 -27972322.59149  15033744.4444   15033749.8444
  17513094.753   -33082096.28249 -25712011.03649  17513094.0684   17513100.2404
  17319821.139   -17413300.46649 -13559718.66749  17319821.4204   17319827.8504
  18017722.495   -24105037.53049 -18359734.27149  18017722.0024   18017730.3844
  15156214.641   -47047903.11649 -36631206.87349  15156214.5404   15156220.6694
 96  4 18 18 46 59.9810000  0  6  2 27 26 19 15  7
  15585737.125   -38528905.70549 -29721372.42249  15585736.7834   15585742.5794
  15023857.191   -35972745.60849 -28012812.49549  15023856.6874   15023862.0154
  17489055.270   -33208421.65449 -25810446.37949  17489055.0274   17489061.4234
  17318081.477   -17422450.81749 -13566848.85449  17318080.8964   17318086.1914
  17999059.190   -24203124.02449 -18436165.31149  17999058.5824   17999063.9064
  15129603.907   -47187744.71449 -36740174.34049  15129603.8554   15129609.7954
 96  4 18 18 47 29.9810000  0  6  2 27 26 19 15  7
  15568540.191   -38619276.82949 -29791791.48149  15568539.6674   15568545.6454
  15014064.521   -36024203.28949 -28052909.39449  15014064.7604   15014070.4304
  17465120.891   -33334202.14449 -25908457.14949  17465120.3964   17465125.8164
  17316380.778   -17431375.58949 -13573803.27949  17316382.3564   17316388.2384
  17980498.387   -24300652.70549 -18512161.65549  17980499.5864   17980506.0354
  15103078.970   -47327136.13849 -36848791.02449  15103078.5264   15103084.3754
 96  4 18 18 47 59.9810000  0  6  2 27 26 19 15  7
  15551372.586   -38709498.67449 -29862094.21849  15551371.0804   15551376.6984
  15004364.623   -36075173.76649 -28092626.67049  15004365.3994   15004370.7624
  17441286.540   -33459445.82249 -26006049.62849  17441287.5364   17441293.6334
  17314732.093   -17440051.31049 -13580563.61549  17314731.4634   17314738.1524
  17962046.371   -24397622.07549 -18587722.16249  17962045.7194   17962051.9174
  15076640.606   -47466064.11949 -36957046.58249  15076641.3294   15076647.2394
 96  4 18 18 48 29.9810000  0  6  2 27 26 19 15  7
  15534233.539   -38799559.29249 -29932271.32149  15534233.2224   15534238.7384
  14994759.484   -36125659.54849 -28131966.24349  14994758.4104   14994763.6444
  17417560.758   -33584154.03249 -26103224.85849  17417556.5094   17417562.4874
  17313133.934   -17448446.35049 -13587105.24149  17313133.9374   17313140.5354
  17943703.487   -24494019.80649 -18662837.30149  17943702.4384   17943709.9844
  15050299.044   -47604497.49249 -37064916.73349  15050298.4464   15050304.4264
 96  4 18 18 48 59.9810000  0  6  2 27 26 19 15  7
  15517125.565   -38889469.34149 -30002331.10349  15517123.9184   15517129.7084
  14985237.834   -36175691.05149 -28170951.84749  14985237.5524   14985242.9464
  17393923.139   -33708347.87749 -26199999.28449  17393922.8514   17393929.1374
  17311585.998   -17456576.06249 -13593440.12049  17311587.4394   17311593.5494
  17925465.500   -24589864.87149 -18737521.75549  17925464.5154   17925470.0364
  15024048.229   -47742450.75549 -37172412.77249  15024046.6064   15024052.4544
 96  4 18 18 49 29.9810000  0  6  2 27 26 19 15  7
  15500043.743   -38979227.09749 -30072272.21449  15500043.6474   15500049.3834
  14975800.099   -36225286.69849 -28209597.83249  14975800.1744   14975804.9304
  17370384.710   -33832043.73649 -26296385.66649  17370384.3214   17370389.9694
  17310095.121   -17464426.02649 -13599557.01949  17310093.3184   17310100.2924
  17907329.445   -24685154.15549 -18811773.09849  17907329.6524   17907337.8524
  14997888.316   -47879920.22349 -37279531.82849  14997887.1694   14997893.2484
 96  4 18 18 49 59.9810000  0  6  2 27 26 19 15  7
  15482990.671   -39068841.76249 -30142101.82449  15482990.4814   15482996.3544
  14966448.347   -36274436.72949 -28247896.57049  14966447.3224   14966452.3374
  17346936.777   -33955256.07949 -26392395.28449  17346938.7064   17346943.5294
  17308653.334   -17471998.13749 -13605457.40649  17308652.0504   17308659.6154
  17889303.032   -24779885.06449 -18885589.43449  17889303.8634   17889310.2534
  14971817.641   -48016911.62749 -37386278.36949  14971818.5314   14971824.5044
 96  4 18 18 50 29.9810000  0  6  2 27 26 19 15  7
  15465964.661   -39158322.92549 -30211827.40849  15465962.8554   15465968.4034
  14957180.368   -36323134.94349 -28285843.23649  14957180.0574   14957185.3964
  17323582.317   -34077987.62649 -26488030.25649  17323583.0354   17323589.5364
  17307258.094   -17479320.79349 -13611163.42049  17307259.6434   17307265.7564
  17871385.865   -24874055.34249 -18958968.85949  17871385.4934   17871390.1194
  14945837.072   -48153443.13249 -37492666.54149  14945837.2344   14945843.2934
 96  4 18 18 50 59.9810000  0  6  2 27 26 19 15  7
  15448963.869   -39247655.59949 -30281437.29049  15448963.3724   15448969.0154
  14948003.280   -36371364.18949 -28323424.48649  14948002.2564   14948007.7984
  17300318.655   -34200226.90549 -26583281.65249  17300322.0554   17300327.5914
  17305912.318   -17486392.34249 -13616673.75549  17305913.4704   17305920.0484
  17853572.970   -24967658.42749 -19031906.28349  17853572.4504   17853579.1234
  14919941.625   -48289527.02749 -37598705.93149  14919941.1204   14919947.1524
 96  4 18 18 51 29.9810000  0  6  2 27 26 19 15  7
  15431992.777   -39336845.20749 -30350935.68749  15431991.2644   15431996.8824
  14938915.392   -36419117.63649 -28360634.98149  14938915.5594   14938920.3094
  17277155.041   -34321968.44849 -26678145.18949  17277154.4454   17277160.3474
  17304617.326   -17493208.39349 -13621985.00749  17304617.2514   17304622.5334
  17835869.523   -25060692.95449 -19104400.72749  17835868.4314   17835875.0194
  14894131.004   -48425164.97749 -37704397.82849  14894130.0614   14894136.1804
 96  4 18 18 51 59.9810000  0  6  2 27 26 19 15  7
  15415052.193   -39425862.53249 -30420299.83749  15415051.7854   15415057.2484
  14929926.623   -36466358.26649 -28397445.88549  14929925.7594   14929930.8774
  17254090.265   -34443176.70149 -26772593.18549  17254090.5784   17254094.8884
  17303371.661   -17499752.63749 -13627084.46049  17303371.4964   17303377.0944
  17818278.621   -25153136.34449 -19176434.53749  17818276.6644   17818282.5614
  14868408.744   -48560324.15549 -37809716.66449  14868410.4064   14868416.2694
 96  4 18 18 52 29.9810000  0  6  2 27 26 19 15  7
  15398145.705   -39514710.54549 -30489532.05749  15398144.5214   15398150.3014
  14921032.173   -36513098.99349 -28433867.27149  14921031.5034   14921036.5164
  17231134.076   -34563832.31749 -26866610.56049  17231129.7794   17231135.5224
  17302176.787   -17506023.53749 -13631970.90549  17302176.2774   17302183.1364
  17800794.497   -25244997.47849 -19248014.62049  17800796.7534   17800802.0734
  14842783.425   -48695001.53749 -37914660.06249  14842782.5814   14842788.1284
 96  4 18 18 52 59.9810000  0  6  2 27 26 19 15  7
  15381273.859   -39603370.33549 -30558617.60649  15381273.1574   15381278.9564
  14912233.787   -36559332.10549 -28469893.09549  14912233.2494   14912238.6654
  17208280.258   -34683915.09349 -26960181.55849  17208278.9354   17208283.9114
  17301039.815   -17512001.31549 -13636628.94449  17301040.1094   17301045.7774
  17783427.936   -25336273.05249 -19319138.44649  17783427.0264   17783433.5234
  14817249.148   -48829184.76349 -38019218.40449  14817248.4514   14817253.9194
 96  4 18 18 53 29.9810000  0  6  2 27 26 19 15  7
  15364437.524   -39691846.36349 -30627559.96749  15364436.9404   15364442.2694
  14903534.024   -36605048.36449 -28505516.17249  14903533.7914   14903538.9104
  17185536.174   -34803416.23949 -27053299.33949  17185538.8644   17185543.6494
  17299954.511   -17517695.96049 -13641066.38949  17299955.2974   17299962.1244
  17766169.821   -25426960.89649 -19389804.29949  17766169.0624   17766175.8754
  14791809.311   -48962867.77049 -38123386.97049  14791809.1794   14791814.7804
 96  4 18 18 53 59.9800000  0  6  2 27 26 19 15  7
  15347635.390   -39780139.10549 -30696359.50449  15347635.2784   15347640.9444
  14894934.892   -36650239.49549 -28540730.05449  14894934.3454   14894939.4614
  17162910.647   -34922331.74549 -27145960.76949  17162909.9954   17162914.9754
  17298923.386   -17523126.40849 -13645297.94749  17298923.4564   17298929.8454
  17749025.353   -25517053.98549 -19460006.70649  17749025.8944   17749032.5894
  14766465.719   -49096048.03149 -38227163.77849  14766465.6004   14766471.3394
 96  4 18 18 54 29.9800000  0  6  2 27 26 19 15  7
  15330873.698   -39868224.58349 -30764997.54149  15330873.4994   15330878.7894
  14886440.024   -36694884.61749 -28575518.47249  14886439.2424   14886444.0654
  17140396.780   -35040646.08249 -27238153.76449  17140396.0754   17140400.7224
  17297946.133   -17528259.44449 -13649297.75049  17297946.4064   17297952.7804
  17732000.400   -25606523.87849 -19529723.48449  17732000.9724   17732005.9814
  14741220.679   -49228718.51249 -38330543.35949  14741219.5194   14741224.9904
 96  4 18 18 54 59.9800000  0  6  2 27 26 19 15  7
  15314153.209   -39956088.25649 -30833462.74249  15314153.1394   15314158.8314
  14878049.096   -36738975.93149 -28609875.36649  14878048.4674   14878053.1524
  17117992.065   -35158377.71149 -27329892.69949  17117992.1614   17117996.6954
  17297028.122   -17533100.64149 -13653070.17549  17297025.0194   17297031.8714
  17715093.196   -25695364.05249 -19598949.60049  17715094.0904   17715100.5874
  14716071.381   -49360870.43349 -38433518.86949  14716071.5514   14716077.0094
 96  4 18 18 55 29.9800000  0  6  2 27 26 19 15  7
  15297472.924   -40043748.00349 -30901769.04149  15297472.3114   15297477.7224
  14869762.568   -36782520.85549 -28643806.49049  14869762.2314   14869767.0544
  17095694.627   -35275544.41049 -27421191.43149  17095696.6134   17095700.9664
  17296158.798   -17537650.86149 -13656615.84749  17296159.2624   17296165.6424
  17698308.468   -25783575.60749 -19667685.89049  17698307.8674   17698315.7284
  14691025.988   -49492494.35649 -38536082.95449  14691024.5804   14691030.0874
 96  4 18 18 55 59.9800000  0  6  2 27 26 19 15  7
  15280831.286   -40131202.47649 -30969915.38949  15280830.1624   15280835.5064
  14861575.331   -36825542.44549 -28677329.81649  14861575.4684   14861580.9584
  17073504.251   -35392148.00949 -27512051.37849  17073506.4754   17073512.0884
  17295350.346   -17541906.43849 -13659931.93149  17295349.7184   17295356.2344
  17681642.471   -25871159.45349 -19735933.01749  17681642.3044   17681648.1154
  14666079.502   -49623580.65249 -38638228.10549  14666079.4254   14666085.0164
 96  4 18 18 56 29.9800000  0  6  2 27 26 19 15  7
  15264227.665   -40218445.25849 -31037896.78249  15264228.3714   15264234.0434
  14853484.865   -36868058.46249 -28710459.19849  14853485.0974   14853490.4004
  17051422.127   -35508191.01949 -27602474.50349  17051424.6084   17051429.9634
  17294597.521   -17545854.43149 -13663008.31449  17294598.3444   17294604.6294
  17665095.319   -25958118.99049 -19803693.72049  17665093.9384   17665100.1684
  14641238.306   -49754122.78049 -38739949.23749  14641237.9434   14641243.7424
 96  4 18 18 56 59.9800000  0  6  2 27 26 19 15  7
  15247667.904   -40305477.66049 -31105714.24249  15247666.6584   15247672.2484
  14845490.268   -36910070.65549 -28743195.99349  14845490.0374   14845495.4864
  17029451.368   -35623659.06749 -27692449.60949  17029452.3164   17029457.4304
  17293905.663   -17549497.01949 -13665846.76049  17293904.7124   17293911.0464
  17648666.430   -26044449.18849 -19870963.99749  17648666.4264   17648671.4844
  14616503.094   -49884107.92149 -38841236.34749  14616502.5744   14616508.2984
 96  4 18 18 57 29.9800000  0  6  2 27 26 19 15  7
  15231139.255   -40392325.82549 -31173388.15049  15231139.7874   15231145.6674
  14837589.426   -36951591.00249 -28775549.53349  14837589.1934   14837594.8134
  17007589.719   -35738537.09149 -27781964.95949  17007590.7534   17007596.5364
  17293268.300   -17552843.14649 -13668454.16349  17293268.0654   17293274.9774
  17632356.943   -26130156.69949 -19937749.06349  17632356.0244   17632361.9114
  14591868.091   -50013560.81849 -38942108.73249  14591868.3814   14591874.3884
 96  4 18 18 57 59.9800000  0  6  2 27 26 19 15  7
  15214649.232   -40478981.87649 -31240912.35149  15214649.4134   15214655.3204
  14829780.602   -36992620.48549 -28807520.57549  14829781.0934   14829787.1394
  16985847.353   -35852820.39749 -27871016.90049  16985843.6554   16985848.5624
  17292687.046   -17555899.94749 -13670836.14849  17292686.2814   17292693.1844
  17616164.756   -26215245.10449 -20004051.72349  17616165.2294   17616171.3364
  14567331.101   -50142504.38749 -39042584.22549  14567331.0304   14567337.3844
 96  4 18 18 58 29.9800000  0  6  2 27 26 19 15  7
  15198196.475   -40565447.60649 -31308288.25049  15198195.5964   15198201.4634
  14822066.137   -37033157.04149 -28839107.51249  14822067.0984   14822073.3414
  16964208.195   -35966523.71449 -27959616.89849  16964206.8094   16964211.9124
  17292157.905   -17558681.42849 -13673003.57249  17292157.6144   17292164.5554
  17600086.516   -26299724.67549 -20069879.95849  17600087.9324   17600094.0854
  14542886.183   -50270958.33049 -39142678.20649  14542887.1764   14542893.3724
 96  4 18 18 58 59.9800000  0  6  2 27 26 19 15  7
  15181776.901   -40651730.64849 -31375521.79249  15181776.4264   15181782.3784
  14814444.718   -37073202.63449 -28870311.88049  14814446.3214   14814452.4734
  16942682.172   -36079649.72549 -28047767.04349  16942679.6484   16942684.7144
  17291678.469   -17561201.52049 -13674967.34349  17291678.1024   17291684.2364
  17584124.381   -26383603.74749 -20135240.29749  17584126.7674   17584133.6494
  14518531.503   -50398946.16249 -39242408.97649  14518531.8414   14518537.9994
 96  4 18 18 59 29.9800000  0  6  2 27 26 19 15  7
  15165393.506   -40737829.02049 -31442611.43549  15165392.7954   15165398.6434
  14806922.625   -37112742.81249 -28901122.42749  14806922.6764   14806928.4654
  16921259.277   -36192213.32049 -28135478.95149  16921259.2944   16921263.7904
  17291243.873   -17563471.83849 -13676736.46949  17291246.2124   17291251.3914
  17568277.348   -26466887.65949 -20200136.85849  17568277.5804   17568283.6164
  14494265.439   -50526468.41049 -39341776.95549  14494265.0154   14494271.0474
 96  4 18 18 59 59.9800000  0  6  2 27 26 19 15  7
  15149046.103   -40823730.29449 -31509547.49549  15149046.3204   15149052.0874
  14799491.234   -37151783.34749 -28931543.65549  14799493.4864   14799499.2414
  16899938.467   -36304244.34049 -28222775.85649  16899940.3124   16899946.0834
  17290857.434   -17565506.62949 -13678322.07949  17290858.9644   17290865.7274
  17552540.201   -26549583.46949 -20264575.16349  17552540.9784   17552549.3364
  14470088.810   -50653522.00949 -39440779.75049  14470087.6134   14470093.9454
 96  4 18 19  0 29.9800000  0  6  2 27 26 19 15  7
  15132734.160   -40909454.17049 -31576345.32449  15132733.4164   15132739.4054
  14792156.229   -37190338.03649 -28961586.29449  14792156.5994   14792162.9654
  16878717.612   -36415757.65449 -28309669.35249  16878719.5794   16878725.6494
  17290515.357   -17567317.58249 -13679733.26149  17290514.2514   17290520.8624
  17536914.946   -26631700.74549 -20328562.66949  17536914.7244   17536921.6064
  14445999.614   -50780104.53349 -39539415.47749  14445999.9904   14446006.1864
 96  4 18 19  0 59.9800000  0  6  2 27 26 19 15  7
  15116448.754   -40995027.12549 -31643025.55649  15116449.4004   15116455.4094
  14784912.958   -37228402.57649 -28991246.99949  14784913.4034   14784919.1684
  16857597.177   -36526757.93249 -28396163.08449  16857597.3044   16857602.9094
  17290213.976   -17568895.47249 -13680962.84849  17290213.5804   17290221.2884
  17521397.655   -26713247.52949 -20392105.61549  17521397.7744   17521404.0744
  14422000.855   -50906212.39249 -39637681.33649  14422002.4444   14422008.8324
 96  4 18 19  1 29.9800000  0  6  2 27 26 19 15  7
  15100192.102   -41080463.49449 -31709599.34849  15100191.5524   15100197.7964
  14777761.744   -37265982.47349 -29020530.04949  14777762.4334   14777768.3234
  16836567.871   -36637272.58749 -28482278.40349  16836567.5564   16836573.0754
  17289957.610   -17570247.85949 -13682016.72049  17289956.2934   17289963.6904
  17505986.704   -26794236.87549 -20455214.21049  17505985.9754   17505992.5404
  14398099.086   -51031827.78449 -39735563.44549  14398098.5444   14398104.6674
 96  4 18 19  1 59.9800000  0  6  2 27 26 19 15  7
  15083958.001   -41165773.33249 -31776074.54749  15083957.6584   15083963.5634
  14770696.027   -37303112.97049 -29049462.91849  14770696.5684   14770702.1534
  16815630.970   -36747308.77849 -28568020.89849  16815628.4764   16815633.4174
  17289744.619   -17571363.90049 -13682886.39449  17289745.0074   17289750.9774
  17490679.732   -26874676.41349 -20517894.38049  17490679.3164   17490685.0014
  14374289.352   -51156947.38849 -39833059.23049  14374288.9434   14374295.0044
 96  4 18 19  2 29.9790000  0  6  2 27 26 19 15  7
  15067747.757   -41250957.24949 -31842451.63149  15067747.7144   15067753.8214
  14763717.389   -37339788.81749 -29078041.51449  14763717.4894   14763722.6804
  16794785.748   -36856848.92849 -28653376.86649  16794782.8744   16794788.5354
  17289580.380   -17572228.06449 -13683559.84349  17289578.8354   17289586.3244
  17475478.809   -26954555.94349 -20580138.17649  17475478.3624   17475484.0754
  14350577.632   -51281551.69749 -39930153.48749  14350577.5344   14350583.5934
 96  4 18 19  2 59.9790000  0  6  2 27 26 19 15  7
  15051563.478   -41336007.49049 -31908724.53849  15051563.2904   15051569.1764
  14756825.031   -37376010.43049 -29106266.17449  14756825.0044   14756830.2584
  16774034.176   -36965888.70449 -28738342.92449  16774033.4254   16774039.0284
  17289462.112   -17572850.66149 -13684045.03549  17289461.8774   17289467.1854
  17460381.393   -27033876.14349 -20641946.14849  17460383.3124   17460389.5234
  14326961.725   -51405650.62049 -40026853.93249  14326962.6194   14326968.4924
 96  4 18 19  3 29.9790000  0  6  2 27 26 19 15  7
  15035406.189   -41420918.83749 -31974889.22549  15035405.1774   15035410.6484
  14750012.669   -37411811.34249 -29134163.01049  14750012.2164   14750017.4184
  16753380.298   -37074429.64249 -28822920.27949  16753379.6334   16753384.5904
  17289381.598   -17573263.66049 -13684366.90749  17289382.3194   17289388.1134
  17445395.357   -27112642.97949 -20703322.88949  17445395.5224   17445401.2604
  14303439.264   -51529270.04149 -40123180.74249  14303438.4714   14303444.5814
 96  4 18 19  3 59.9790000  0  6  2 27 26 19 15  7
  15019272.763   -41505694.49649 -32040948.17749  15019273.1184   15019278.8794
  14743278.539   -37447200.79049 -29161739.22549  14743278.0414   14743282.9284
  16732825.515   -37182446.45749 -28907089.23449  16732824.7794   16732829.9524
  17289343.611   -17573480.98549 -13684536.31049  17289342.2654   17289348.7284
  17430512.714   -27190856.70649 -20764268.66649  17430510.7074   17430518.7064
  14279997.544   -51652451.00249 -40219165.89749  14279997.9684   14280003.7994
 96  4 18 19  4 29.9790000  0  6  2 27 26 19 15  7
  15003168.233   -41590327.75649 -32106896.18149  15003168.0124   15003173.3764
  14736627.530   -37482150.80549 -29188973.03549  14736627.1804   14736632.2924
  16712368.636   -37289918.47049 -28990833.65249  16712372.9394   16712378.7144
  17289334.336   -17573516.55549 -13684564.05549  17289335.3684   17289342.7504
  17415735.379   -27268510.05049 -20824777.80249  17415734.7354   17415740.8324
  14256638.227   -51775210.63549 -40314822.74549  14256637.6964   14256643.4534
 96  4 18 19  4 59.9790000  0  6  2 27 26 19 15  7
  14987106.182   -41674728.12449 -32172662.70149  14987106.6254   14987112.4624
  14730076.662   -37516573.37649 -29215795.83549  14730076.6514   14730081.8164
  16692038.948   -37396755.84349 -29074083.56249  16692042.5794   16692047.7274
  17289377.097   -17573288.14649 -13684386.15349  17289378.6134   17289385.0844
  17401079.370   -27345519.35949 -20884785.05149  17401079.2794   17401086.7874
  14233372.938   -51897470.50249 -40410090.16749  14233372.2974   14233378.1284
 96  4 18 19  5 29.9790000  0  6  2 27 26 19 15  7
  14971058.463   -41759067.70449 -32238381.85649  14971057.7944   14971063.4134
  14723595.715   -37550630.63349 -29242333.97349  14723595.7634   14723600.8434
  16671799.277   -37503141.49249 -29156981.47949  16671797.3064   16671803.0234
  17289440.806   -17572951.01049 -13684123.50849  17289443.5344   17289448.6424
  17386516.897   -27422054.03549 -20944422.48349  17386516.2244   17386522.7184
  14210171.527   -52019395.82849 -40505096.90649  14210170.7324   14210176.5604
 96  4 18 19  5 59.9790000  0  6  2 27 26 19 15  7
  14955034.979   -41843268.16149 -32303992.60849  14955034.8664   14955040.4514
  14717204.108   -37584224.62249 -29268511.14049  14717203.0854   14717207.9464
  16651654.409   -37609006.16349 -29239473.42749  16651652.6184   16651658.1324
  17289541.273   -17572422.06549 -13683711.39949  17289543.2354   17289550.8674
  17372057.414   -27498031.63049 -21003625.80649  17372057.7534   17372064.1544
  14187052.314   -52140882.41049 -40599761.76949  14187052.5194   14187058.6114
 96  4 18 19  6 29.9790000  0  6  2 27 26 19 15  7
  14939039.372   -41927327.80449 -32369493.62549  14939038.8394   14939044.2314
  14710900.262   -37617352.25949 -29294324.88349  14710899.3654   14710904.1784
  16631605.268   -37714361.93149 -29321568.83749  16631604.1624   16631609.2364
  17289683.089   -17571693.77549 -13683143.95649  17289682.7814   17289689.3734
  17357707.061   -27573447.14649 -21062391.14849  17357706.6124   17357712.1234
  14164023.622   -52261899.69749 -40694060.94449  14164023.6314   14164029.6884
 96  4 18 19  6 59.9790000  0  6  2 27 26 19 15  7
  14923069.366   -42011252.85949 -32434889.76649  14923068.2754   14923073.8674
  14704680.930   -37650032.50749 -29319790.02649  14704680.1954   14704685.7744
  16611651.226   -37819218.16049 -29403274.99649  16611650.3774   16611655.7984
  17289860.118   -17570763.78449 -13682419.35049  17289858.9754   17289864.8874
  17343464.539   -27648302.18649 -21120719.74249  17343462.6784   17343469.4804
  14141087.540   -52382437.70249 -40787986.65349  14141086.0174   14141091.7724
 96  4 18 19  7 29.9790000  0  6  2 27 26 19 15  7
  14907123.236   -42095052.20249 -32500187.95149  14907121.9604   14907127.2694
  14698543.899   -37682277.58749 -29344916.09849  14698544.4394   14698549.4884
  16591791.204   -37923570.76549 -29484588.72449  16591792.8104   16591798.6304
  17290073.392   -17569644.32549 -13681547.11449  17290072.1284   17290079.3854
  17329324.890   -27722596.42249 -21178611.37949  17329324.3914   17329331.1024
  14118239.974   -52502495.03349 -40881537.81249  14118239.7024   14118245.4954
 96  4 18 19  7 59.9790000  0  6  2 27 26 19 15  7
  14891198.752   -42178726.92849 -32565389.04249  14891199.3864   14891204.6194
  14692487.255   -37714107.52649 -29369718.68149  14692487.3444   14692492.4054
  16572030.740   -38027404.70749 -29565498.28649  16572033.7374   16572038.9414
  17290318.364   -17568347.64449 -13680536.76549  17290318.9014   17290325.8314
  17315295.052   -27796331.70849 -21236067.44449  17315293.4824   17315299.8584
  14095483.889   -52622080.97649 -40974721.65649  14095483.4044   14095489.3234
 96  4 18 19  8 29.9790000  0  6  2 27 26 19 15  7
  14875305.762   -42262254.09549 -32630475.14449  14875304.5164   14875309.7624
  14686508.551   -37745524.52749 -29394199.47749  14686508.7984   14686514.1734
  16552373.950   -38130703.21849 -29645990.63349  16552376.7334   16552381.9044
  17290601.549   -17566848.72849 -13679368.81549  17290603.2054   17290611.4694
  17301370.736   -27869496.91649 -21293079.29349  17301370.5264   17301376.9044
  14072814.204   -52741202.38849 -41067543.52549  14072815.3114   14072821.1644
 96  4 18 19  8 59.9790000  0  6  2 27 26 19 15  7
  14859440.769   -42345622.17149 -32695437.28049  14859440.0464   14859445.4494
  14680609.600   -37776520.08849 -29418351.86949  14680610.1884   14680615.8924
  16532817.418   -38233465.31649 -29726065.00349  16532821.5064   16532826.7164
  17290929.731   -17565139.14349 -13678036.72449  17290930.2134   17290935.5364
  17287557.404   -27942087.38449 -21349643.31049  17287556.9824   17287563.3194
  14050234.639   -52859863.92749 -41160007.05049  14050234.7544   14050240.8774
 96  4 18 19  9 29.9790000  0  7  4  2 27 26 19 15  7
  18308773.884   -10408446.21859  -5768723.35659  18308773.7294   18308781.9284
  14843608.994   -42428819.35049 -32760266.25749  14843608.1604   14843613.7684
  14674795.624   -37807070.85249 -29442157.68349  14674796.8224   14674802.5174
  16513370.193   -38335689.17649 -29805719.97649  16513369.4884   16513374.4604
  17291297.574   -17563204.17849 -13676529.02549  17291297.2424   17291304.7284
  17273854.467   -28014094.94649 -21405753.09149  17273853.9654   17273861.1344
  14027741.633   -52978064.26949 -41252111.20749  14027741.9824   14027748.0624
 96  4 18 19  9 59.9790000  0  7  4  2 27 26 19 15  7
  18271379.689   -10604928.04449  -5921825.96549  18271385.0144   18271392.1904
  14827810.616   -42511836.54749 -32824954.98449  14827810.4274   14827816.2454
  14669071.544   -37837161.13649 -29465604.67749  14669071.1094   14669076.4004
  16494015.855   -38437386.67749 -29884964.77949  16494017.8604   16494023.0944
  17291708.144   -17561032.50749 -13674836.84949  17291710.8864   17291718.2084
  17260263.018   -28085521.90749 -21461410.47049  17260262.4834   17260268.7154
  14005336.739   -53095797.78649 -41343851.60149  14005337.9054   14005344.2754
 96  4 18 19 10 29.9780000  0  7  4  2 27 26 19 15  7
  18233984.058   -10801447.40249  -6074957.87049  18233988.7934   18233996.3974
  14812044.984   -42594687.11549 -32889513.87049  14812044.2164   14812050.6224
  14663437.560   -37866765.67849 -29488673.15949  14663437.4494   14663443.0514
  16474760.172   -38538559.98849 -29963801.12649  16474764.1344   16474770.1404
  17292169.179   -17558622.64149 -13672959.07249  17292170.7484   17292176.8584
  17246780.203   -28156366.70249 -21516614.19049  17246780.3934   17246787.5954
  13983026.054   -53213045.50149 -41435213.44749  13983026.4584   13983032.6694
 96  4 18 19 10 59.9780000  0  7  4  2 27 26 19 15  7
  18196583.897   -10998016.56649  -6228128.57149  18196582.5404   18196590.3384
  14796305.686   -42677396.38049 -32953962.64649  14796305.2734   14796311.4294
  14657898.372   -37895873.44349 -29511354.54349  14657897.8994   14657903.8874
  16455606.198   -38639217.88049 -30042235.84749  16455609.4464   16455615.6484
  17292667.115   -17555996.11549 -13670912.48949  17292667.9084   17292676.6074
  17233407.204   -28226644.29549 -21571375.97449  17233407.3664   17233414.5584
  13960808.566   -53329799.63449 -41526190.67949  13960808.9234   13960815.0724
 96  4 18 19 11 29.9780000  0  7  4  2 27 26 19 15  7
  18159164.620   -11194641.20149  -6381342.50649  18159167.2274   18159174.2564
  14780592.823   -42759966.10249 -33018302.69449  14780592.7644   14780598.9144
  14652453.968   -37924485.19449 -29533649.43349  14652453.8064   14652459.4934
  16436555.095   -38739351.58049 -30120262.10649  16436554.9384   16436560.8544
  17293206.306   -17553172.14949 -13668712.06449  17293207.8544   17293214.8624
  17220140.975   -28296357.95549 -21625698.31749  17220141.6154   17220148.7134
  13938684.832   -53446054.38549 -41616778.78949  13938686.3904   13938692.4744
 96  4 18 19 11 59.9780000  0  7  4  2 27 26 19 15  7
  18121740.507   -11391309.53049  -6534590.47649  18121742.3184   18121748.5074
  14764907.714   -42842386.52349 -33082526.40049  14764908.6444   14764914.7304
  14647103.254   -37952602.24949 -29555558.83549  14647103.1034   14647109.3114
  16417602.069   -38838944.74149 -30197867.17149  16417602.8644   16417608.7374
  17293781.297   -17550145.23449 -13666353.46649  17293781.8504   17293791.4114
  17206984.754   -28365497.71249 -21679573.46249  17206984.9554   17206991.8154
  13916660.904   -53561797.41149 -41706968.14649  13916661.1754   13916667.3674
 96  4 18 19 12 29.9780000  0  7  4  2 27 26 19 15  7
  18084307.194   -11588041.73849  -6687888.21749  18084304.1234   18084311.3974
  14749251.543   -42924667.49449 -33146641.44449  14749251.2084   14749257.4524
  14641841.278   -37980251.81149 -29577103.95149  14641841.6344   14641847.7564
  16398753.118   -38938003.34649 -30275055.69649  16398752.7624   16398758.3354
  17294391.974   -17546929.05149 -13663847.39749  17294395.0544   17294402.6394
  17193933.975   -28434075.28049 -21733010.51149  17193934.3354   17193941.8974
  13894727.502   -53677058.02549 -41796781.60149  13894727.6544   13894734.1524
 96  4 18 19 12 59.9780000  0  7  4  2 27 26 19 15  7
  18046847.103   -11784873.73749  -6841263.72949  18046850.1734   18046856.8274
  14733621.457   -43006803.55349 -33210643.57449  14733621.1944   14733627.6644
  14636659.920   -38007478.75749 -29598319.79149  14636660.1014   14636666.2344
  16380001.215   -39036537.43749 -30351835.51249  16380002.2064   16380007.8454
  17295037.950   -17543540.62449 -13661207.13849  17295039.1214   17295046.2664
  17180989.608   -28502104.77349 -21786020.50349  17180988.9874   17180996.2364
  13872879.657   -53791867.36949 -41886243.41449  13872879.8504   13872886.5804
 96  4 18 19 13 29.9780000  0  7  4  2 27 26 19 15  7
  18009369.925   -11981819.78249  -6994728.10249  18009371.3324   18009378.5074
  14718016.897   -43088801.18649 -33274537.84149  14718017.4704   14718023.8684
  14631549.416   -38034325.14149 -29619239.05849  14631551.3594   14631557.6574
  16361347.159   -39134568.75149 -30428223.56149  16361347.4714   16361352.8794
  17295715.776   -17539985.33749 -13658436.85149  17295716.9314   17295724.9364
  17168145.207   -28569597.62449 -21838612.34249  17168145.7624   17168151.2394
  13851110.758   -53906259.10049 -41975379.82349  13851111.7014   13851118.4614
 96  4 18 19 13 59.9780000  0  7  4  2 27 26 19 15  7
  17971871.701   -12178881.60549  -7148282.69149  17971872.1254   17971879.0404
  14702441.815   -43170651.64849 -33338317.42949  14702441.7344   14702448.0574
  14626512.697   -38060796.77849 -29639866.33549  14626514.0834   14626520.2904
  16342789.909   -39232097.74049 -30504220.17449  16342788.0084   16342794.7224
  17296430.061   -17536238.15149 -13655517.01549  17296430.1294   17296437.7724
  17155405.034   -28636548.35349 -21890781.73649  17155404.7444   17155412.8274
  13829421.852   -54020233.41149 -42064190.96749  13829423.5624   13829430.0164
 96  4 18 19 14 29.9780000  0  7  4  2 27 26 19 15  7
  17934346.651   -12376060.07549  -7301928.17749  17934350.2714   17934358.1894
  14686893.159   -43252361.53549 -33401987.47249  14686892.9684   14686899.0834
  14621545.896   -38086902.73849 -29660208.66649  14621546.5104   14621552.5954
  16324324.244   -39329133.69149 -30579832.58749  16324322.6354   16324328.9164
  17297172.810   -17532319.43949 -13652463.56049  17297174.9544   17297182.2514
  17142766.552   -28702962.59349 -21942533.10749  17142766.6334   17142773.6044
  13807812.229   -54133793.40149 -42152679.26249  13807813.7014   13807820.1834
 96  4 18 19 14 59.9780000  0  7  4  2 27 26 19 15  7
  17896809.418   -12573333.77449  -7455647.84949  17896809.4484   17896817.5064
  14671372.436   -43333924.78549 -33465543.25949  14671372.0884   14671378.0734
  14616653.992   -38112615.02849 -29680244.23949  14616653.6264   14616659.8494
  16305950.549   -39425675.92349 -30655060.31949  16305951.6974   16305957.9624
  17297951.811   -17528233.53549 -13649279.79449  17297952.0294   17297961.5564
  17130231.831   -28768831.57849 -21993859.58249  17130232.7934   17130239.0564
  13786285.883   -54246923.77949 -42240832.79149  13786285.7524   13786292.1684
 96  4 18 19 15 29.9780000  0  7  4  2 27 26 19 15  7
  17859249.972   -12770702.27749  -7609441.41349  17859251.8444   17859258.6134
  14655877.917   -43415347.97049 -33528989.89649  14655877.6844   14655883.7374
  14611838.792   -38137916.02949 -29699959.32449  14611838.6874   14611845.1294
  16287666.320   -39521752.30949 -30729925.03649  16287669.2174   16287674.8394
  17298758.569   -17523987.75749 -13645971.42149  17298759.8864   17298769.0364
  17117798.670   -28834165.95249 -22044769.49449  17117800.3134   17117806.8654
  13764835.138   -54359638.84349 -42328662.70149  13764836.6694   13764842.8754
 96  4 18 19 15 59.9780000  0  7  4  2 27 26 19 15  7
  17821678.720   -12968149.67849  -7763296.42349  17821678.3074   17821686.6604
  14640409.163   -43496633.21149 -33592329.04449  14640409.2394   14640415.6344
  14607105.865   -38162784.11049 -29719337.06349  14607106.9574   14607112.9124
  16269475.017   -39617348.90049 -30804415.88749  16269477.1294   16269484.3094
  17299596.660   -17519591.96249 -13642546.19949  17299597.0454   17299604.6714
  17105471.340   -28898958.63349 -22095257.30449  17105470.9614   17105477.1934
  13743469.059   -54471917.94449 -42416152.89449  13743470.7544   13743477.0884
 96  4 18 19 16 29.9780000  0  7  4  2 27 26 19 15  7
  17784084.232   -13165670.86149  -7917208.94149  17784091.5074   17784099.4504
  14624962.754   -43577802.28849 -33655577.68449  14624963.7134   14624969.8634
  14602453.518   -38187233.74349 -29738388.75049  14602454.5404   14602460.3344
  16251369.483   -39712490.18049 -30878551.95749  16251372.6104   16251378.9094
  17300455.103   -17515084.04449 -13639033.61349  17300455.6804   17300462.7874
  17093238.784   -28963231.76449 -22145340.26649  17093240.2494   17093246.8304
  13722187.505   -54583763.90249 -42503305.58349  13722187.1754   13722193.5864
 96  4 18 19 16 59.9780000  0  7  4  2 27 26 19 15  7
  17746497.048   -13363241.61549  -8071160.08249  17746494.5144   17746501.5514
  14609546.249   -43658825.44449 -33718712.60849  14609545.5634   14609551.7354
  14597885.654   -38211237.23449 -29757092.79349  14597886.7954   14597892.6374
  16233357.151   -39807143.55649 -30952307.83549  16233360.2684   16233366.7024
  17301340.242   -17510426.50949 -13635404.43849  17301341.6364   17301347.3724
  17081111.315   -29026963.32649 -22195001.21749  17081112.2474   17081119.0674
  13700990.273   -54695142.23449 -42590093.88349  13700992.2324   13700998.8554
 96  4 18 19 17 29.9780000  0  7  4  2 27 26 19 15  7
  17708888.439   -13560850.78149  -8225141.17549  17708891.4704   17708897.9834
  14594153.072   -43739710.02049 -33781739.55449  14594153.4854   14594159.9124
  14593398.300   -38234821.03449 -29775469.79849  14593398.7024   14593404.9024
  16215441.207   -39901297.23049 -31025674.34049  16215443.9074   16215449.9134
  17302258.812   -17505608.94549 -13631650.54249  17302258.9464   17302267.2294
  17069085.444   -29090152.35049 -22244239.42949  17069086.6004   17069094.1304
  13679889.162   -54806035.75549 -42676504.40849  13679890.2654   13679896.6964
 96  4 18 19 17 59.9780000  0  7  4  2 27 26 19 15  7
  17671274.697   -13758486.44849  -8379142.88649  17671282.2064   17671290.2354
  14578784.881   -43820473.87649 -33844672.43349  14578784.8484   14578791.0824
  14588988.163   -38257999.13349 -29793530.67949  14588988.5114   14588994.0414
  16197626.802   -39994923.65749 -31098630.00549  16197627.3594   16197634.2054
  17303204.741   -17500638.05249 -13627777.15249  17303204.2944   17303212.1774
  17057166.009   -29152795.73249 -22293052.48149  17057166.6884   17057173.8204
  13658883.079   -54916424.60549 -42762521.68449  13658883.7214   13658889.9264
 96  4 18 19 18 29.9780000  0  7  4  2 27 26 19 15  7
  17633666.235   -13956152.92249  -8533168.61849  17633666.8744   17633674.2574
  14563438.964   -43901117.17449 -33907511.37149  14563438.9644   14563445.0934
  14584655.550   -38280767.48149 -29811272.27749  14584656.0624   14584661.6944
  16179915.441   -40088020.47049 -31171172.98349  16179911.5234   16179917.5414
  17304178.814   -17495506.94449 -13623778.96149  17304180.6264   17304188.8634
  17045349.481   -29214895.80849 -22341442.15349  17045349.4514   17045356.4144
  13637966.699   -55026337.24549 -42848167.88849  13637967.9054   13637974.2914
 96  4 18 19 18 59.9770000  0  7  4  2 27 26 19 15  7
  17596046.510   -14153856.65649  -8687223.38649  17596045.1684   17596053.1924
  14548116.273   -43981638.01849 -33970254.89349  14548116.3404   14548122.2474
  14580401.342   -38303123.88549 -29828692.87049  14580401.3324   14580407.5364
  16162299.213   -40180573.01649 -31243291.85649  16162299.7854   16162306.0674
  17305185.845   -17490212.82749 -13619653.71449  17305188.2684   17305195.6364
  17033635.627   -29276447.05149 -22389404.15349  17033637.1334   17033643.4194
  13617135.995   -55135810.63949 -42933471.82549  13617135.8764   13617142.5644
 96  4 18 19 19 29.9770000  0  7  4  2 27 26 19 15  7
  17558403.734   -14351639.08249  -8841339.47149  17558407.9444   17558416.2634
  14532810.111   -44062066.66649 -34032926.56449  14532810.7734   14532817.2664
  14576218.251   -38325098.96449 -29845816.31549  14576219.5054   14576225.7974
  16144778.591   -40272619.75049 -31315016.58049  16144782.7624   16144789.9694
  17306219.415   -17484789.42749 -13615427.78949  17306219.3134   17306227.6364
  17022022.199   -29337477.88949 -22436960.66749  17022022.7494   17022030.2124
  13596374.637   -55244909.86249 -43018484.19849  13596375.2234   13596381.5714
 96  4 18 19 19 59.9770000  0  8  4  2 27 26 19  9 15  7
  17520756.381   -14549485.71649  -8995505.61049  17520759.6544   17520767.0514
  14517529.804   -44142371.72949 -34095501.94049  14517529.4254   14517535.7224
  14572114.277   -38346661.19249 -29862618.07349  14572115.8274   14572122.5664
  16127364.396   -40364152.23649 -31386340.60249  16127365.3354   16127371.3454
  17307279.617   -17479229.35549 -13611095.31249  17307277.8874   17307284.5904
  18003670.261    -8111381.09159  -6283918.40659  18003672.6064   18003679.2104
  17010510.910   -29397971.20149 -22484098.33449  17010511.8054   17010517.9564
  13575684.147   -55353638.87449 -43103208.09349  13575684.8264   13575690.8764
 96  4 18 19 20 29.9770000  0  8  4  2 27 26 19  9 15  7
  17483102.469   -14747399.90749  -9149724.38349  17483097.3364   17483105.2124
  14502275.960   -44222531.79549 -34157964.33949  14502275.6334   14502281.8824
  14568091.680   -38367810.14349 -29879097.81249  14568091.9014   14568098.4994
  16110041.715   -40455190.48349 -31457279.50649  16110041.5194   16110047.7974
  17308364.385   -17473514.78349 -13606642.51149  17308364.0554   17308374.3204
  17966669.329    -8305848.46749  -6435451.37549  17966667.0424   17966673.1904
  16999099.391   -29457929.52649 -22530819.10949  16999100.7714   16999109.3724
  13555061.432   -55462006.28149 -43187650.22449  13555062.8894   13555069.3614
 96  4 18 19 20 59.9770000  0  8  4  2 27 26 19  9 15  7
  17445421.614   -14945378.24549  -9303993.13549  17445423.6514   17445431.0024
  14487051.910   -44302529.33249 -34220300.07549  14487052.5204   14487058.7304
  14564142.636   -38388559.52149 -29895266.16449  14564143.2834   14564149.6174
  16092807.458   -40545740.30749 -31527837.80649  16092810.3104   16092816.7484
  17309484.901   -17467637.50349 -13602062.87949  17309485.6134   17309492.7054
  17929657.169    -8500312.54449  -6586981.77549  17929662.1684   17929668.2394
  16987794.050   -29517349.57849 -22577120.49849  16987794.2754   16987801.9534
  13534516.161   -55569971.56549 -43271779.00949  13534517.7214   13534524.2064
 96  4 18 19 21 29.9770000  0  8  4  2 27 26 19  9 15  7
  17407741.195   -15143381.34049  -9458281.17449  17407745.2684   17407751.4844
  14471861.945   -44382353.86649 -34282501.01349  14471862.7084   14471868.7224
  14560272.473   -38408896.33849 -29911113.05749  14560273.4654   14560279.3104
  16075671.686   -40635799.86449 -31598014.09649  16075672.5394   16075678.8614
  17310637.184   -17461580.91649 -13597343.52349  17310637.4004   17310644.4984
  17892660.965    -8694759.80249  -6738499.05849  17892658.6004   17892665.9964
  16976591.564   -29576221.48849 -22622994.72549  16976592.3264   16976597.9344
  13514058.735   -55677480.56049 -43355552.24849  13514059.5634   13514066.0264
 96  4 18 19 21 59.9770000  0  8  4  2 27 26 19  9 15  7
  17370062.279   -15341400.03149  -9612581.37549  17370062.3074   17370070.3464
  14456699.859   -44462034.01749 -34344589.44049  14456699.8104   14456705.8664
  14556480.262   -38428827.37149 -29926643.76249  14556480.3084   14556486.6544
  16058622.115   -40725392.11749 -31667826.24349  16058624.0314   16058630.8594
  17311818.443   -17455362.27549 -13592497.90149  17311820.3584   17311829.8064
  17855654.845    -8889202.94749  -6890013.16249  17855657.7734   17855665.0944
  16965490.404   -29634562.09149 -22668454.94249  16965490.2764   16965497.3264
  13493689.483   -55784521.65049 -43438960.87649  13493690.5024   13493696.8504
 96  4 18 19 22 29.9770000  0  8  4  2 27 26 19  9 15  7
  17332376.617   -15539422.41449  -9766884.45749  17332380.5434   17332387.8834
  14441566.086   -44541561.38949 -34406558.82149  14441566.3394   14441572.6424
  14552763.483   -38448348.40649 -29941854.97749  14552765.5924   14552772.0564
  16041666.882   -40814501.74949 -31737262.32049  16041666.4584   16041673.0694
  17313037.485   -17448969.38149 -13587516.48949  17313037.9154   17313044.5044
  17818661.458    -9083631.79249  -7041516.11349  17818659.0224   17818666.0194
  16954489.330   -29692366.33549 -22713497.20749  16954490.3354   16954497.3504
  13473414.099   -55891073.35849 -43521988.17049  13473414.2884   13473420.6314
 96  4 18 19 22 59.9770000  0  8  4  2 27 26 19  9 15  7
  17294688.718   -15737453.92549  -9921194.63549  17294697.0314   17294703.5594
  14426458.497   -44620945.72649 -34468416.74549  14426459.6754   14426466.3804
  14549126.524   -38467461.41749 -29956748.26249  14549128.7714   14549135.1684
  16024798.922   -40903137.36549 -31806329.03849  16024800.2014   16024806.7744
  17314276.376   -17442440.95049 -13582429.48349  17314278.5184   17314288.0664
  17781658.268    -9278047.63749  -7193008.94149  17781663.5304   17781669.8724
  16943588.963   -29749643.38749 -22758128.67449  16943589.0644   16943597.9214
  13453227.590   -55997147.47749 -43604643.31649  13453228.8354   13453235.2694
 96  4 18 19 23 29.9770000  0  8  4  2 27 26 19  9 15  7
  17257007.515   -15935499.67749 -10075515.90549  17257008.2344   17257017.3584
  14411376.923   -44700208.94749 -34530180.29649  14411376.5604   14411383.0704
  14545567.328   -38486173.11249 -29971328.81149  14545568.3574   14545574.7724
  16008023.025   -40991308.64349 -31875033.93849  16008022.1244   16008028.0894
  17315544.354   -17435803.50849 -13577257.52549  17315544.7234   17315549.3414
  17744667.014    -9472465.53749  -7344503.38149  17744665.9044   17744673.3334
  16932785.531   -29806409.73249 -22802362.22349  16932787.4284   16932795.0384
  13433125.984   -56102786.19049 -43686959.17749  13433126.6044   13433132.8414
 96  4 18 19 23 59.9770000  0  8  4  2 27 26 19  9 15  7
  17219318.224   -16133572.61849 -10229858.36649  17219316.9134   17219325.0874
  14396320.067   -44779331.87449 -34591834.52549  14396320.0844   14396326.4024
  14542082.958   -38504481.51849 -29985595.11249  14542083.8864   14542090.7784
  15991340.036   -41078989.28249 -31943356.51049  15991336.6364   15991343.1624
  17316825.778   -17429040.94749 -13571988.08649  17316828.0894   17316836.2034
  17707664.522    -9666863.30949  -7495982.12949  17707673.4214   17707680.3894
  16922082.014   -29862649.77149 -22846185.66849  16922084.5724   16922092.7234
  13413107.557   -56207986.40449 -43768933.36249  13413107.8034   13413113.8014
 96  4 18 19 24 29.9770000  0  8  4  2 27 26 19  9 15  7
  17181617.900   -16331705.37149 -10384247.44549  17181613.7164   17181620.6484
  14381291.140   -44858308.67949 -34653374.89149  14381290.9474   14381297.3154
  14538671.899   -38522410.80849 -29999566.01749  14538672.8614   14538678.7404
  15974743.276   -41166189.96349 -32011305.10049  15974742.6944   15974749.2004
  17318140.333   -17422161.00049 -13566627.14649  17318139.4894   17318146.7224
  17670688.461    -9861253.19649  -7647454.72149  17670682.2044   17670689.4494
  16911481.550   -29918374.98049 -22889607.92849  16911481.5174   16911489.0084
  13393168.773   -56312759.49549 -43850574.71949  13393169.8494   13393176.3334
 96  4 18 19 24 59.9770000  0  8  4  2 27 26 19  9 15  7
  17143897.279   -16529894.71749 -10538680.62249  17143900.2044   17143905.9664
  14366283.539   -44937170.50249 -34714825.66649  14366284.3254   14366290.3004
  14535327.588   -38539983.59549 -30013259.13349  14535328.6444   14535335.0204
  15958239.916   -41252926.36749 -32078891.92249  15958237.5354   15958243.5834
  17319465.290   -17415184.07649 -13561190.63649  17319466.7404   17319475.9574
  17633687.249   -10055646.59549  -7798930.05449  17633690.5644   17633698.0914
  16900973.849   -29973596.92949 -22932638.05149  16900973.0344   16900981.3824
  13373309.014   -56417119.22549 -43931893.98049  13373310.9184   13373317.4194
 96  4 18 19 25 29.9770000  0  8  4  2 27 26 19  9 15  7
  17106177.998   -16728130.02249 -10693149.58349  17106176.0284   17106184.7464
  14351297.367   -45015926.77449 -34776194.18849  14351297.5644   14351303.7724
  14532050.464   -38557210.71949 -30026682.90049  14532050.3574   14532056.5064
  15941818.291   -41339191.91249 -32146111.82949  15941821.7374   15941828.2374
  17320814.483   -17408090.57149 -13555663.32649  17320814.5024   17320823.0134
  17596699.413   -10250047.01049  -7950410.85249  17596697.9154   17596704.3914
  16890560.561   -30028318.27149 -22975278.08449  16890559.7014   16890568.1314
  13353530.073   -56521062.84449 -44012888.99949  13353531.1934   13353537.6914
 96  4 18 19 25 59.9770000  0  8  4  2 27 26 19  9 15  7
  17068443.394   -16926405.79749 -10847650.12349  17068445.3214   17068452.8464
  14336330.911   -45094574.17949 -34837477.88449  14336331.5174   14336337.5904
  14528837.251   -38574089.78749 -30039835.44749  14528838.3644   14528844.4804
  15925491.618   -41424995.67549 -32212971.90349  15925493.7124   15925500.1094
  17322188.103   -17400879.62449 -13550044.47549  17322187.9294   17322196.5264
  17559708.881   -10444449.95549  -8101893.60949  17559703.8924   17559710.8174
  16880241.511   -30082538.17049 -23017527.36949  16880241.7994   16880249.9934
  13333833.180   -56624575.33049 -44093548.06849  13333833.4294   13333839.6844
 96  4 18 19 26 29.9770000  0  8  4  2 27 26 19  9 15  7
  17030711.277   -17124703.04949 -11002167.35549  17030711.4194   17030718.0004
  14321385.248   -45173112.41449 -34898676.51049  14321386.1214   14321392.3934
  14525693.536   -38590612.82749 -30052710.58049  14525694.2104   14525700.2894
  15909249.936   -41510355.54949 -32279486.10049  15909250.9314   15909257.5784
  17323578.554   -17393565.20549 -13544345.00849  17323580.0344   17323589.7654
  17522707.765   -10638853.95149  -8253377.21849  17522709.9734   17522717.3544
  16870020.236   -30136260.50249 -23059388.92449  16870019.9714   16870026.6974
  13314213.621   -56727670.96549 -44173882.31749  13314214.9024   13314221.4644
 96  4 18 19 26 59.9770000  0  8  4  2 27 26 19  9 15  7
  16992973.599   -17323004.89749 -11156688.19349  16992975.5154   16992982.7664
  14306459.883   -45251549.01249 -34959795.93649  14306460.2634   14306466.2584
  14522616.765   -38606776.85249 -30065305.96649  14522618.4464   14522624.7394
  15893099.159   -41595254.10349 -32345640.82449  15893095.0814   15893101.5164
  17324991.435   -17386147.79349 -13538565.26649  17324991.0144   17324998.6454
  17485711.950   -10833240.75649  -8404847.40949  17485719.4434   17485726.7054
  16859890.608   -30189483.20649 -23100861.19949  16859890.7704   16859900.4204
  13294673.875   -56830357.96749 -44253898.15049  13294674.4094   13294680.6924
 96  4 18 19 27 29.9760000  0  8  4  2 27 26 19  9 15  7
  16955236.149   -17521303.09349 -11311206.17949  16955241.0524   16955246.5844
  14291559.462   -45329852.74749 -35020811.83649  14291559.5214   14291566.0404
  14519613.736   -38622558.13549 -30077603.09749  14519615.1364   14519621.4634
  15877029.226   -41679678.42549 -32411426.01349  15877029.1544   15877036.0324
  17326422.541   -17378613.62349 -13532694.60549  17326423.6614   17326435.9324
  17448745.446   -11027568.96249  -8556271.93849  17448740.5104   17448746.8334
  16849860.981   -30242193.93949 -23141934.53249  16849861.3794   16849869.0214
  13275214.414   -56932625.10849 -44333586.82649  13275213.4544   13275219.8394
 96  4 18 19 27 59.9760000  0  8  4  2 27 26 19  9 15  7
  16917528.278   -17719473.55349 -11465624.60349  16917528.9364   16917536.0304
  14276711.112   -45407884.30249 -35081615.65349  14276710.9974   14276716.6914
  14516712.858   -38637809.68949 -30089487.43849  14516713.2684   14516719.2214
  15861076.644   -41763495.01149 -32476737.63549  15861079.8714   15861086.0824
  17327906.707   -17370826.07249 -13526626.42149  17327908.4414   17327915.5934
  17411796.004   -11221691.70749  -8707536.38749  17411799.1784   17411805.4064
  16839955.608   -30294250.05149 -23182497.73649  16839954.6934   16839962.5234
  13255856.928   -57034340.79649 -44412845.80049  13255857.8054   13255863.8704
 96  4 18 19 28 29.9760000  0  8  4  2 27 26 19  9 15  7
  16879778.684   -17917822.23049 -11620181.92949  16879784.6984   16879791.3934
  14261854.648   -45485951.16349 -35142446.96949  14261855.0934   14261860.8814
  14513850.263   -38652845.50449 -30101203.67949  14513852.1264   14513857.9874
  15845188.757   -41846996.31849 -32541803.60449  15845190.1664   15845196.8724
  17329377.728   -17363086.04249 -13520595.30949  17329378.8114   17329388.3484
  17374841.118   -11415909.03449  -8858874.53149  17374841.2914   17374847.0624
  16830116.127   -30345958.49049 -23222790.03549  16830115.0164   16830123.0444
  13236544.978   -57135821.33049 -44491921.53349  13236546.7454   13236552.7654
 96  4 18 19 28 59.9760000  0  8  4  2 27 26 19  9 15  7
  16842030.453   -18116221.05949 -11774778.33349  16842030.8934   16842037.4784
  14247016.130   -45563931.64549 -35203210.98549  14247015.5924   14247021.8434
  14511054.237   -38667550.02249 -30112661.76049  14511053.9344   14511059.8974
  15829383.980   -41930048.13349 -32606519.30549  15829386.2644   15829392.3284
  17330868.416   -17355269.04149 -13514504.20849  17330867.7364   17330876.7714
  17337885.920   -11610104.70949  -9010195.78749  17337887.0884   17337893.5554
  16820364.430   -30397200.05749 -23262718.55449  16820364.7224   16820372.5154
  13217304.511   -57236941.36249 -44570716.35249  13217304.2894   13217310.1474
 96  4 18 19 29 29.9760000  0  8  4  2 27 26 19  9 15  7
  16804273.834   -18314625.48849 -11929379.10349  16804275.0824   16804282.1914
  14232201.405   -45641776.48749 -35263869.30449  14232202.3264   14232208.5654
  14508326.499   -38681883.31249 -30123830.57849  14508326.3074   14508332.4664
  15813671.976   -42012621.66849 -32670862.33249  15813672.3054   15813679.3424
  17332374.614   -17347346.13949 -13508330.60249  17332375.7294   17332383.1864
  17300937.792   -11804258.65449  -9161484.54449  17300941.2054   17300947.4654
  16810708.829   -30447939.78749 -23302256.00649  16810709.1054   16810715.5404
  13198135.514   -57337666.18149 -44649203.21649  13198136.8534   13198143.0314
 96  4 18 19 29 59.9760000  0  8  4  2 27 26 19  9 15  7
  16766519.952   -18513034.70149 -12083983.59149  16766519.9814   16766526.2354
  14217414.479   -45719484.83349 -35324421.26049  14217414.9594   14217421.2994
  14505666.620   -38695858.43249 -30134720.29449  14505666.5654   14505672.7844
  15798047.362   -42094720.91349 -32734835.76949  15798049.5594   15798056.1254
  17333896.845   -17339318.85349 -13502075.66149  17333901.8074   17333912.3034
  17263990.309   -11998403.73349  -9312766.37249  17263996.0934   17264003.1494
  16801147.662   -30498181.42149 -23341405.30649  16801149.3144   16801156.3314
  13179043.455   -57438000.31949 -44727385.65449  13179043.6034   13179049.8814
 96  4 18 19 30 29.9760000  0  8  4  2 27 26 19  9 15  7
  16728764.988   -18711444.01849 -12238588.17749  16728763.7914   16728771.5534
  14202655.323   -45797042.59449 -35384855.87849  14202656.3064   14202662.2154
  14503072.101   -38709488.44549 -30145341.09349  14503072.5724   14503079.0414
  15782516.696   -42176348.82549 -32798441.95249  15782516.1474   15782523.0564
  17335451.547   -17331183.11149 -13495736.20649  17335452.5084   17335460.0084
  17227056.465   -12192557.71849  -9464055.15949  17227049.8434   17227056.3574
  16791680.911   -30547927.96649 -23380168.85449  16791681.7384   16791690.1234
  13160024.204   -57537941.01949 -44805261.51849  13160025.7124   13160031.9454
 96  4 18 19 30 59.9760000  0  8  4  2 27 26 19  9 15  7
  16691010.279   -18909848.56749 -12393189.04549  16691008.6534   16691015.3374
  14187925.956   -45874445.86249 -35445170.11349  14187926.6924   14187932.9504
  14500544.717   -38722769.57349 -30155690.04549  14500545.8194   14500551.7694
  15767072.054   -42257509.50949 -32861684.04949  15767071.8004   15767078.6204
  17337017.891   -17322938.14649 -13489311.61649  17337020.1054   17337030.7574
  17190105.685   -12386709.64049  -9615342.32949  17190103.3894   17190110.7094
  16782309.395   -30597179.44149 -23418546.68749  16782309.4874   16782317.0794
  13141084.918   -57637481.10849 -44882825.22049  13141083.6394   13141090.1374
 96  4 18 19 31 29.9760000  0  8  4  2 27 26 19  9 15  7
  16653249.217   -19108271.35649 -12547804.10349  16653250.3634   16653256.3484
  14173223.551   -45951709.30949 -35505375.39949  14173223.9024   14173230.1764
  14498084.053   -38735701.93749 -30165767.24049  14498084.8974   14498091.0984
  15751711.843   -42338227.69349 -32924581.34349  15751711.8774   15751718.6944
  17338611.274   -17314593.00849 -13482808.99449  17338609.5544   17338616.7944
  17153156.558   -12580865.69349  -9766632.73949  17153156.9904   17153164.3644
  16773031.236   -30645942.77549 -23456544.09749  16773030.5214   16773037.5134
  13122216.289   -57736625.06849 -44960080.25149  13122217.4034   13122223.5724
 96  4 18 19 31 59.9760000  0  8  4  2 27 26 19  9 15  7
  16615486.817   -19306714.96049 -12702435.40449  16615486.9744   16615494.0184
  14158544.104   -46028851.33749 -35565486.07549  14158544.3354   14158550.5664
  14495690.397   -38748287.96149 -30175574.56549  14495689.8184   14495695.9764
  15736434.133   -42418514.03049 -32987142.13549  15736433.7054   15736440.1774
  17340211.202   -17306145.22449 -13476226.39249  17340216.0114   17340225.2474
  17116206.064   -12775007.02949  -9917911.67349  17116213.0564   17116219.2784
  16763843.001   -30694218.93249 -23494161.85249  16763844.8894   16763851.1804
  13103425.519   -57835367.95949 -45037022.76049  13103427.4804   13103433.4534
 96  4 18 19 32 29.9760000  0  8  4  2 27 26 19  9 15  7
  16577721.696   -19505181.77449 -12857084.78149  16577719.9164   16577727.1134
  14143884.963   -46105886.52749 -35625513.49449  14143885.4034   14143891.4584
  14493361.861   -38760522.97849 -30185108.38349  14493361.1204   14493367.4324
  15721239.738   -42498354.81549 -33049355.74749  15721240.5294   15721247.5804
  17341843.444   -17297602.52549 -13469569.83449  17341842.5044   17341850.3334
  17079282.455   -12969102.34849 -10069154.73849  17079276.9964   17079284.9634
  16754749.070   -30742010.21349 -23531401.81449  16754748.6744   16754756.6774
  13084716.441   -57933696.56949 -45113642.44849  13084716.0774   13084722.0604
 96  4 18 19 32 59.9760000  0  8  4  2 27 26 19  9 15  7
  16539945.264   -19703670.08049 -13011750.90549  16539949.1064   16539955.7534
  14129239.580   -46182845.28249 -35685481.35049  14129240.5484   14129246.8734
  14491102.650   -38772388.35149 -30194354.16349  14491103.7974   14491109.4494
  15706130.067   -42577750.80249 -33111222.74749  15706131.7984   15706138.7184
  17343480.114   -17288993.83949 -13462861.85249  17343480.0114   17343488.1984
  17042355.625   -13163135.93149 -10220349.70249  17042353.8904   17042361.5224
  16745744.863   -30789320.43749 -23568266.95349  16745746.8394   16745752.6564
  13066082.343   -58031607.56449 -45189936.72349  13066084.2514   13066090.3484
 96  4 18 19 33 29.9760000  0  8  4  2 27 26 19  9 15  7
  16502175.418   -19902169.90849 -13166426.00849  16502175.7714   16502182.2384
  14114611.938   -46259722.44749 -35745385.63749  14114611.1294   14114617.4784
  14488912.323   -38783890.85649 -30203317.17549  14488914.2634   14488920.5234
  15691100.004   -42656698.45649 -33172740.40649  15691108.3154   15691115.5994
  17345129.894   -17280331.85449 -13456112.32949  17345128.0814   17345137.7814
  17005439.128   -13357106.61649 -10371495.64049  17005441.9394   17005450.1784
  16736837.246   -30836149.20549 -23604756.90949  16736835.8734   16736842.7764
  13047530.599   -58129100.62949 -45265905.34249  13047531.5184   13047537.8744
 96  4 18 19 33 59.9760000  0  8  4  2 27 26 19  9 15  7
  16464402.934   -20100661.24849 -13321094.49349  16464404.4104   16464412.1044
  14100000.584   -46336498.01649 -35805210.75749  14100001.1394   14100007.4964
  14486792.635   -38795038.08449 -30212003.35549  14486793.3634   14486799.7804
  15676175.812   -42735174.14649 -33233890.30449  15676175.0704   15676181.9254
  17346786.662   -17271607.81149 -13449314.48149  17346789.5454   17346796.4104
  16968548.768   -13550992.83249 -10522575.77049  16968547.0864   16968554.6564
  16728016.045   -30882493.36649 -23640869.25949  16728016.8314   16728022.3114
  13029059.870   -58226164.27049 -45341539.34049  13029061.1004   13029067.2594
 96  4 18 19 34 29.9760000  0  7  4  2 27 26  9 15  7
  16426635.668   -20299137.58749 -13475751.29249  16426635.5554   16426641.5864
  14085412.262   -46413158.19449 -35864945.96349  14085413.3114   14085419.3434
  14484739.139   -38805829.39949 -30220412.19549  14484739.5634   14484746.5964
  15661331.671   -42813169.14949 -33294665.63049  15661333.3104   15661340.0854
  16931666.307   -13744804.94549 -10673598.14649  16931666.7764   16931673.2924
  16719289.332   -30928352.45349 -23676603.64849  16719289.4214   16719297.7714
  13010669.702   -58322802.88649 -45416842.15049  13010671.5124   13010677.6604
 96  4 18 19 34 59.9760000  0  7  4  2 27 26  9 15  7
  16388872.478   -20497567.58949 -13630372.00049  16388875.5514   16388881.7434
  14070852.675   -46489676.46649 -35924570.58649  14070852.0854   14070858.8134
  14482752.900   -38816264.73349 -30228543.64749  14482753.9934   14482760.8424
  15646583.797   -42890691.77449 -33355072.89549  15646581.2904   15646588.6384
  16894799.737   -13938550.02549 -10824568.32149  16894798.0144   16894805.4324
  16710657.427   -30973718.30449 -23711953.68749  16710657.6394   16710663.3734
  12992358.172   -58419034.39549 -45491827.73449  12992359.2114   12992365.2304
 96  4 18 19 35 29.9750000  0  7  4  2 27 26  9 15  7
  16351134.365   -20695905.90349 -13784921.24249  16351132.0894   16351138.8794
  14056329.007   -46565991.46849 -35984036.83349  14056330.2094   14056336.2524
  14480837.325   -38826338.01849 -30236392.99749  14480837.5454   14480844.0064
  15631923.157   -42967709.75949 -33415086.92449  15631924.7454   15631931.3804
  16857945.482   -14132201.09949 -10975465.21149  16857947.0034   16857954.6274
  16702122.972   -31018564.75249 -23746898.96849  16702124.4654   16702130.1534
  12974126.918   -58514840.84449 -45566482.10849  12974127.7524   12974134.1634
 96  4 18 19 35 59.9750000  0  7  4  2 27 26  9 15  7
  16313403.784   -20894181.26549 -13939421.44449  16313401.7884   16313407.6204
  14041840.518   -46642132.20849 -36043367.28049  14041840.9254   14041846.8844
  14478986.034   -38836067.41149 -30243974.36949  14478986.2824   14478991.9554
  15617353.662   -43044262.18549 -33474738.17849  15617357.3764   15617364.8224
  16821106.111   -14325790.37449 -11126313.95949  16821108.0004   16821116.1794
  16693682.341   -31062917.69749 -23781459.74249  16693683.7744   16693690.1334
  12955970.042   -58610255.20649 -45640830.95649  12955971.1294   12955977.5354
 96  4 18 19 36 29.9750000  0  7  4  2 27 26  9 15  7
  16275683.320   -21092392.39349 -14093871.60949  16275683.6844   16275689.9534
  14027382.554   -46718109.90449 -36102570.68649  14027382.9064   14027389.3674
  14477196.925   -38845464.34549 -30251296.68549  14477197.8494   14477203.9004
  15602870.069   -43120376.18249 -33534047.80349  15602873.1764   15602880.3154
  16784279.189   -14519334.13349 -11277127.24449  16784277.8054   16784285.7914
  16685333.931   -31106788.62249 -23815644.88049  16685335.6894   16685341.1844
  12937882.414   -58705305.08749 -45714895.79249  12937883.6154   12937890.0614
 96  4 18 19 36 59.9750000  0  7  4  2 27 26  9 15  7
  16237980.020   -21290524.16149 -14248259.90849  16237980.4704   16237987.7654
  14012959.315   -46793906.63949 -36161633.08149  14012959.4764   14012965.8104
  14475473.692   -38854521.54649 -30258354.27349  14475474.6514   14475481.0354
  15588466.469   -43196054.59849 -33593018.00449  15588472.4314   15588479.5794
  16747454.409   -14712813.37649 -11427890.25249  16747460.5254   16747468.0124
  16677077.793   -31150171.35749 -23849449.62049  16677080.0044   16677086.3234
  12919866.819   -58799979.07349 -45788667.72249  12919867.6824   12919874.2424
 96  4 18 19 37 29.9750000  0  7  4  2 27 26  9 15  7
  16200288.120   -21488591.19049 -14402597.78349  16200288.9084   16200296.3174
  13998567.215   -46869532.65349 -36220562.44349  13998568.3694   13998574.9064
  14473816.319   -38863233.68249 -30265142.99749  14473817.1794   14473823.0894
  15574153.608   -43271298.72349 -33651649.80049  15574154.7194   15574160.8604
  16710656.678   -14906214.62149 -11578592.47749  16710657.4984   16710664.3934
  16668914.237   -31193069.03949 -23882876.37849  16668915.6954   16668923.2514
  12901926.771   -58894256.62349 -45862130.74449  12901927.1294   12901933.6784
 96  4 18 19 37 59.9750000  0  7  4  2 27 26  9 15  7
  16162607.714   -21686616.79349 -14556903.37449  16162605.9884   16162613.5994
  13984204.782   -46945011.86549 -36279377.42149  13984204.9174   13984211.2954
  14472224.344   -38871600.00249 -30271662.24549  14472224.5934   14472230.9044
  15559914.254   -43346119.85049 -33709951.98449  15559917.0924   15559922.7864
  16673879.866   -15099544.06249 -11729238.73949  16673867.8584   16673875.0194
  16660845.354   -31235484.65649 -23915927.54749  16660844.6994   16660850.8614
  12884060.748   -58988133.95149 -45935281.90649  12884063.0894   12884069.3964
 96  4 18 19 38 29.9750000  0  7  4  2 27 26  9 15  7
  16124932.002   -21884601.99949 -14711177.48449  16124930.6254   16124937.6744
  13969868.274   -47020350.59449 -36338082.92649  13969868.5444   13969874.7124
  14470697.334   -38879620.46649 -30277911.98749  14470698.0454   14470705.2374
  15545759.180   -43420513.68449 -33767921.22649  15545759.8164   15545766.2724
  16637088.378   -15292811.28649 -11879836.53449  16637091.0534   16637097.6954
  16652865.317   -31277418.37049 -23948603.16349  16652865.0634   16652872.4164
  12866277.874   -59081597.43149 -46008110.58749  12866277.6834   12866283.7854
 96  4 18 19 38 59.9750000  0  7  4  2 27 26  9 15  7
  16087263.005   -22082546.78049 -14865420.10249  16087262.7744   16087269.2794
  13955558.318   -47095554.32049 -36396683.23149  13955557.7944   13955564.2244
  14469239.894   -38887290.60149 -30283888.74249  14469238.9444   14469245.1054
  15531682.477   -43494471.71549 -33825550.87749  15531685.9154   15531692.3384
  16600320.009   -15486005.40049 -12030377.35149  16600326.6644   16600333.9924
  16644976.103   -31318867.35749 -23980901.14649  16644976.9674   16644984.4334
  12848574.445   -59174620.22249 -46080595.87549  12848575.9434   12848582.3544
 96  4 18 19 39 29.9750000  0  7  4  2 27 26  9 15  7
  16049601.073   -22280451.29049 -15019631.33949  16049603.0914   16049609.5954
  13941269.678   -47170635.46249 -36455188.02349  13941270.3354   13941276.6084
  14467845.027   -38894614.98049 -30289596.08249  14467845.3244   14467851.6344
  15517696.103   -43567982.92349 -33882832.35149  15517697.1664   15517703.4354
  16563581.233   -15679123.40849 -12180858.86249  16563577.7164   16563584.1964
  16637182.222   -31359827.95349 -24012818.50249  16637183.0144   16637189.4214
  12830957.575   -59267200.40749 -46152736.27649  12830958.8794   12830964.8794
 96  4 18 19 39 59.9750000  0  7  4  2 27 26  9 15  7
  16011954.436   -22478302.83049 -15173801.32949  16011953.1044   16011959.4444
  13927006.768   -47245590.74949 -36513594.74049  13927006.9554   13927013.1734
  14466514.570   -38901606.13049 -30295043.76949  14466515.0974   14466520.9544
  15503791.564   -43641049.18449 -33939767.12449  15503793.3884   15503799.6394
  16526846.792   -15872164.59349 -12331280.52249  16526842.0824   16526849.2834
  16629481.744   -31400298.71749 -24044354.19049  16629481.4004   16629489.2514
  12813422.608   -59359348.62849 -46224540.08349  12813423.2794   12813429.4194
 96  4 18 19 40 29.9750000  0  7  4  2 27 26  9 15  7
  15974315.798   -22676079.13549 -15327912.66349  15974318.2874   15974323.8164
  13912768.874   -47320414.00949 -36571898.58349  13912768.6934   13912774.6214
  14465246.000   -38908264.93549 -30300232.48149  14465247.3734   14465254.0264
  15489975.225   -43713672.20049 -33996356.49149  15489973.5114   15489980.2664
  16490125.448   -16065112.30549 -12481629.35049  16490126.7784   16490133.2694
  16621870.945   -31440283.25249 -24075511.00249  16621873.6354   16621878.8734
  12795968.280   -59451075.21149 -46296015.33949  12795968.1484   12795974.7314
 96  4 18 19 40 59.9750000  0  7  4  2 27 26  9 15  7
  15936696.322   -22873781.90049 -15481966.72449  15936697.1574   15936703.1934
  13898555.054   -47395105.58449 -36630099.81949  13898554.8334   13898561.2444
  14464038.982   -38914604.22449 -30305172.20149  14464040.7464   14464047.9094
  15476239.640   -43785848.18749 -34052597.54149  15476238.4754   15476246.1524
  16453427.316   -16257956.64749 -12631897.62549  16453429.5784   16453436.2364
  16614354.863   -31479790.39049 -24106295.80649  16614353.7594   16614362.7724
  12778588.272   -59542409.63049 -46367185.01349  12778588.0434   12778594.3924
 96  4 18 19 41 29.9750000  0  7  4  2 27 26  9 15  7
  15899087.754   -23071400.66349 -15635955.29849  15899090.1714   15899098.0774
  13884369.082   -47469650.22649 -36688186.55949  13884369.9374   13884376.0134
  14462895.917   -38920618.97649 -30309859.05249  14462896.6304   14462902.8104
  15462591.495   -43857560.35549 -34108477.16549  15462592.0784   15462599.5034
  16416752.283   -16450692.65449 -12782081.49649  16416753.2184   16416760.0904
  16606926.904   -31518816.76849 -24136705.96849  16606928.0614   16606934.7304
  12761278.447   -59633361.23249 -46438056.38749  12761280.4044   12761286.6704
 96  4 18 19 41 59.9750000  0  7  4  2 27 26  9 15  7
  15861500.484   -23268928.43949 -15789872.99049  15861502.5434   15861508.6544
  13870211.223   -47544049.13549 -36746159.73349  13870212.0884   13870217.9934
  14461812.286   -38926306.15549 -30314290.65349  14461813.8294   14461820.4304
  15449029.570   -43928815.83049 -34164000.93349  15449033.1324   15449040.1654
  16380093.076   -16643327.76449 -12932186.74749  16380095.4594   16380102.0924
  16599590.994   -31557372.54749 -24166749.44749  16599590.2884   16599598.8314
  12744043.506   -59723937.52749 -46508635.31849  12744044.6704   12744050.6114
 96  4 18 19 42 29.9750000  0  7  4  2 27 26  9 15  7
  15823931.476   -23466359.13549 -15943715.04749  15823932.2084   15823939.1494
  13856082.197   -47618296.65249 -36804014.94149  13856082.9484   13856089.3454
  14460796.144   -38931644.79549 -30318450.66549  14460798.0624   14460805.3184
  15435556.261   -43999609.29349 -34219164.67749  15435561.8054   15435568.3574
  16343457.706   -16835865.05449 -13082215.76149  16343457.3054   16343463.4284
  16592344.210   -31595457.45049 -24196426.01949  16592343.7794   16592352.4384
  12726879.311   -59814137.99449 -46578921.38949  12726879.9504   12726886.2464
 96  4 18 19 42 59.9750000  0  7  4  2 27 26  9 15  7
  15786378.991   -23663685.91349 -16097476.11349  15786381.6834   15786389.0284
  13841984.947   -47692383.67049 -36861745.08749  13841984.8914   13841991.2414
  14459850.422   -38936633.22349 -30322337.78049  14459849.9694   14459855.7074
  15422181.229   -44069932.25349 -34273961.82349  15422179.8294   15422185.5404
  16306835.998   -17028311.75849 -13232174.20749  16306835.3574   16306841.1364
  16585186.964   -31633067.34549 -24225732.44849  16585187.0674   16585194.6424
  12709786.584   -59903955.52349 -46648909.06849  12709788.4854   12709794.4014
 96  4 18 19 43 29.9740000  0  7  4  2 27 26  9 15  7
  15748847.817   -23860911.67349 -16251158.46249  15748851.0934   15748858.0174
  13827916.315   -47766314.88649 -36919353.82549  13827916.7194   13827922.9214
  14458964.054   -38941280.43949 -30325959.02149  14458964.5544   14458970.9464
  15408883.812   -44139812.48449 -34328413.96849  15408881.4474   15408888.0904
  16270229.330   -17220668.66249 -13382062.66649  16270231.0824   16270237.4044
  16578115.635   -31670212.38449 -24254676.65849  16578117.8364   16578125.1934
  12692768.886   -59993391.47649 -46718599.41049  12692769.0964   12692775.1974
 96  4 18 19 43 59.9740000  0  7  4  2 27 26  9 15  7
  15711335.860   -24058044.98849 -16404768.79049  15711337.7934   15711343.8884
  13813875.491   -47840097.53549 -36976846.79949  13813876.1764   13813882.3574
  14458144.077   -38945583.83249 -30329312.34549  14458146.3964   14458152.3584
  15395666.133   -44209274.39349 -34382540.14249  15395664.0164   15395670.5744
  16233643.672   -17412938.15149 -13531883.02049  16233642.4614   16233649.5314
  16571138.087   -31706892.31749 -24283258.43449  16571138.0094   16571146.3634
  12675819.559   -60082452.96249 -46787997.97049  12675821.3614   12675827.4644
 96  4 18 19 44 29.9740000  0  7  4  2 27 26  9 15  7
  15673839.544   -24255088.32649 -16558308.99149  15673841.5814   15673848.0924
  13799865.583   -47913720.45849 -37034215.31349  13799866.1984   13799872.0084
  14457391.617   -38949553.54649 -30332405.68149  14457391.3344   14457396.7534
  15382528.361   -44278310.50149 -34436334.52849  15382526.6464   15382533.3144
  16197078.021   -17605097.47749 -13681617.51549  16197077.3314   16197081.9124
  16564247.600   -31743103.40249 -24311474.87649  16564248.0974   16564255.1994
  12658946.423   -60171131.97649 -46857098.49549  12658946.1114   12658952.3874
 96  4 18 19 44 59.9740000  0  7  4  2 27 26  9 15  7
  15636363.087   -24452045.49449 -16711782.05449  15636361.9624   15636368.5214
  13785887.232   -47987177.80449 -37091454.80649  13785887.6464   13785893.7284
  14456693.574   -38953210.11949 -30335254.99949  14456695.3214   14456700.9454
  15369474.447   -44346914.70049 -34489792.37349  15369471.8814   15369478.6274
  16160532.409   -17797135.42749 -13831257.45149  16160532.9164   16160539.7284
  16557445.981   -31778849.80249 -24339329.24049  16557444.9464   16557452.4314
  12642141.662   -60259429.59049 -46925901.82949  12642143.4524   12642149.8224
 96  4 18 19 45 29.9740000  0  7  4  2 27 26  9 15  7
  15598896.598   -24648915.31549 -16865187.05449  15598898.8904   15598905.5474
  13771943.305   -48060457.41049 -37148555.79749  13771943.0934   13771949.2514
  14456061.082   -38956539.76749 -30337849.56749  14456061.8224   14456068.3394
  15356496.997   -44415087.12549 -34542913.75549  15356498.9644   15356505.4274
  16124015.049   -17989033.13549 -13980788.10349  16124015.8424   16124022.0024
  16550734.058   -31814124.70749 -24366816.22049  16550733.9494   16550740.1354
  12625415.327   -60347335.45549 -46994399.90349  12625415.6144   12625421.6454
 96  4 18 19 45 59.9740000  0  7  4  2 27 26  9 15  7
  15561454.523   -24845689.34149 -17018517.39849  15561453.8854   15561460.7564
  13758030.233   -48133567.06149 -37205524.36249  13758030.5664   13758037.0674
  14455488.028   -38959549.79949 -30340195.08449  14455488.7914   14455495.5294
  15343610.023   -44482811.29549 -34595685.85149  15343611.5764   15343617.4374
  16087520.280   -18180799.85949 -14130216.67749  16087524.0814   16087530.7254
  16544108.552   -31848932.72049 -24393939.35949  16544110.1334   16544117.5824
  12608762.376   -60434849.03449 -47062592.29649  12608762.2594   12608768.4194
 96  4 18 19 46 29.9740000  0  7  4  2 27 26  9 15  7
  15524029.030   -25042349.04249 -17171758.67749  15524030.6314   15524037.0264
  13744151.337   -48206496.82449 -37262352.74849  13744152.4144   13744158.8444
  14454978.104   -38962241.10049 -30342292.24949  14454977.2534   14454982.7374
  15330813.257   -44550070.61549 -34648095.73349  15330812.2324   15330818.0204
  16051057.717   -18372433.14449 -14279541.28149  16051057.4184   16051063.3684
  16537572.476   -31883273.35249 -24420698.31549  16537573.9234   16537582.4294
  12592182.828   -60521964.92949 -47130474.80649  12592184.7634   12592190.9234
 96  4 18 19 46 59.9740000  0  7  4  2 27 26  9 15  7
  15486632.191   -25238875.76749 -17324896.32649  15486633.5264   15486639.1884
  13730305.732   -48279254.92749 -37319047.38149  13730306.7424   13730313.3034
  14454523.953   -38964606.12449 -30344135.17249  14454526.8944   14454533.5534
  15318095.965   -44616878.50949 -34700153.84749  15318099.2434   15318105.5284
  16014612.085   -18563942.37149 -14428769.20949  16014614.5874   16014620.7434
  16531127.478   -31917145.95549 -24447092.57149  16531128.1294   16531136.3914
  12575681.632   -60608686.66649 -47198050.17949  12575682.1034   12575688.3774
 96  4 18 19 47 29.9740000  0  7  4  2 27 26  9 15  7
  15449259.025   -25435268.38749 -17477929.48149  15449261.3014   15449267.0544
  13716490.815   -48351858.38049 -37375621.50149  13716491.2574   13716497.1454
  14454135.029   -38966649.59849 -30345727.51049  14454137.3764   14454144.9104
  15305468.211   -44683257.10949 -34751877.45449  15305468.3474   15305474.0424
  15978198.630   -18755334.55049 -14577905.92849  15978194.2894   15978200.2084
  16524771.526   -31950556.85549 -24473127.06749  16524772.3114   16524778.1744
  12559254.217   -60695008.25849 -47265313.75949  12559255.6804   12559261.8724
 96  4 18 19 47 59.9740000  0  7  4  2 27 26  9 15  7
  15411916.148   -25631511.90849 -17630846.46849  15411917.3314   15411924.0204
  13702705.417   -48424301.93549 -37432071.01849  13702705.6854   13702711.7494
  14453807.119   -38968374.29949 -30347071.47549  14453809.8174   14453815.9134
  15292916.464   -44749201.56049 -34803262.76849  15292919.3294   15292924.8824
  15941797.399   -18946603.81749 -14726946.86849  15941796.6884   15941802.8944
  16518500.669   -31983501.83749 -24498798.50849  16518501.3224   16518510.3084
  12542906.721   -60780918.95149 -47332257.15349  12542907.2914   12542913.6794
 96  4 18 19 48 29.9740000  0  7  4  2 27 26  9 15  7
  15374598.095   -25827627.79549 -17783663.97749  15374598.1224   15374602.8724
  13688951.281   -48496581.86649 -37488393.04649  13688950.9764   13688957.5414
  14453540.702   -38969781.24849 -30348167.82849  14453541.5754   14453548.6214
  15280448.652   -44814742.57849 -34854333.70749  15280447.2634   15280453.7014
  15905418.081   -19137750.27549 -14875892.11249  15905422.3524   15905429.2944
  16512319.504   -32015991.07949 -24524114.83549  16512320.0574   16512325.9964
  12526636.524   -60866418.33649 -47398880.04749  12526637.5324   12526643.9564
 96  4 18 19 48 59.9740000  0  7  4  2 27 26  9 15  7
  15337297.658   -26023627.52849 -17936390.99049  15337299.7064   15337307.0564
  13675229.148   -48568693.85149 -37544584.20549  13675228.6704   13675234.9904
  14453332.874   -38970873.64149 -30349019.07649  14453333.8894   14453340.8794
  15268047.934   -44879886.70849 -34905095.37249  15268050.7594   15268056.4124
  15869072.392   -19328766.21849 -15024735.66349  15869073.8674   15869080.0714
  16506225.434   -32048023.84149 -24549075.44449  16506224.4354   16506232.3424
  12510446.662   -60951492.06949 -47465171.26649  12510448.4264   12510454.9204
 96  4 18 19 49 29.9740000  0  7  4  2 27 26  9 15  7
  15300021.367   -26219513.52749 -18089029.36549  15300023.6214   15300030.4034
  13661539.903   -48640622.51449 -37600632.51949  13661540.9244   13661547.3124
  14453182.771   -38971656.34249 -30349629.01349  14453184.7634   14453191.1864
  15255726.831   -44944630.06649 -34955544.76949  15255730.3994   15255736.3204
  15832752.593   -19519632.88849 -15173462.89349  15832752.0834   15832759.5284
  16500213.757   -32079601.37349 -24573681.32849  16500213.9674   16500222.6814
  12494341.760   -61036130.64749 -47531123.40349  12494342.1944   12494348.5524
 96  4 18 19 49 59.9740000  0  7  4  2 27 26  9 15  7
  15262774.471   -26415268.83249 -18241565.90749  15262772.6794   15262779.3254
  13647888.453   -48712371.44449 -37656540.78449  13647887.8534   13647894.5174
  14453096.562   -38972119.50549 -30349989.96649  14453096.8824   14453103.5994
  15243487.982   -45008964.36749 -35005675.41349  15243488.1874   15243494.3374
  15796463.645   -19710337.04849 -15322063.50649  15796461.9304   15796470.3014
  16494291.449   -32110722.10449 -24597931.29149  16494292.6904   16494300.6554
  12478315.866   -61120347.44249 -47596746.87249  12478316.4074   12478322.6704
 96  4 18 19 50 29.9740000  0  7  4  2 27 26  9 15  7
  15225547.790   -26610887.21549 -18393995.76249  15225548.0014   15225553.5384
  13634266.446   -48783950.30049 -37712316.51849  13634266.7984   13634273.1724
  14453069.085   -38972266.97249 -30350104.91649  14453069.0294   14453075.4174
  15231326.831   -45072889.31049 -35055487.07549  15231323.8184   15231329.1934
  15760202.398   -19900868.93549 -15470529.86449  15760205.2974   15760212.3254
  16488457.685   -32141386.80049 -24621825.88149  16488458.2904   16488464.2664
  12462367.496   -61204156.54649 -47662052.66649  12462367.9014   12462374.1484
 96  4 18 19 50 59.9740000  0  7  4  2 27 26  9 15  7
  15188352.714   -26806350.03249 -18546304.40449  15188352.4544   15188358.0134
  13620678.130   -48855362.23749 -37767962.19349  13620677.3964   13620684.2914
  14453101.134   -38972096.73349 -30349972.29149  14453101.6174   14453107.0494
  15219239.812   -45136387.85849 -35104966.49549  15219240.7004   15219246.8274
  15723982.818   -20091229.67749 -15618862.88449  15723980.8844   15723987.6244
  16482709.487   -32171596.49749 -24645365.93149  16482710.0344   16482716.8064
  12446493.797   -61287577.29249 -47727055.84449  12446493.4444   12446499.6324
 96  4 18 19 51 29.9740000  0  7  4  2 27 26  9 15  7
  15151186.414   -27001637.79249 -18698476.63549  15151190.5624   15151195.8954
  13607119.116   -48926611.06449 -37823480.77649  13607119.2614   13607126.1154
  14453194.961   -38971603.09249 -30349587.67549  14453195.8984   14453202.1214
  15207237.698   -45199446.34549 -35154102.99849  15207240.3164   15207246.2994
  15687787.150   -20281425.64849 -15767067.50849  15687787.8424   15687795.2244
  16477046.389   -32201351.47149 -24668551.65349  16477047.5294   16477053.6804
  12430690.405   -61370625.93849 -47791769.06849  12430690.2204   12430696.2044
 96  4 18 19 51 59.9730000  0  7  4  2 27 26  9 15  7
  15114063.241   -27196743.51549 -18850507.01249  15114062.5684   15114069.1024
  13593591.141   -48997700.38449 -37878875.05649  13593591.4654   13593597.8694
  14453348.849   -38970788.68249 -30348953.09549  14453349.8314   14453357.5784
  15195321.991   -45262050.26449 -35202885.28549  15195327.2034   15195332.8364
  15651621.789   -20471469.64649 -15915153.71049  15651624.5694   15651629.5744
  16471470.502   -32230655.76449 -24691386.20549  16471470.6114   16471477.1054
  12414953.068   -61453317.46649 -47856204.02249  12414954.4374   12414960.5124
 96  4 18 19 52 29.9730000  0  7  4  2 27 26  9 15  7
  15076965.382   -27391689.43949 -19002412.87149  15076966.1744   15076971.7024
  13580097.497   -49068610.11549 -37934129.39849  13580097.8614   13580104.0864
  14453565.655   -38969653.95449 -30348068.92849  14453566.2834   14453572.6524
  15183498.966   -45324195.43649 -35251310.11449  15183502.2794   15183508.3844
  15615485.724   -20661380.99849 -16063136.54349  15615485.3284   15615491.8564
  16465978.837   -32259512.14049 -24713871.68849  16465980.9284   16465986.9734
  12399286.578   -61535649.21149 -47920358.62549  12399286.9124   12399293.3814
 96  4 18 19 52 59.9730000  0  7  4  2 27 26  9 15  7
  15039900.217   -27586464.71349 -19154185.76349  15039901.1374   15039907.9084
  13566641.797   -49139321.67749 -37989229.32649  13566641.5484   13566648.2784
  14453842.425   -38968200.91849 -30346936.74549  14453842.8374   14453850.2304
  15171763.115   -45385877.94849 -35299374.42549  15171763.5834   15171770.4184
  15579372.460   -20851160.44049 -16211016.58849  15579370.6964   15579377.9684
  16460571.724   -32287920.00249 -24736007.71149  16460572.6024   16460581.1944
  12383689.679   -61617607.42549 -47984222.17149  12383690.9484   12383697.2024
 96  4 18 19 53 29.9730000  0  7  4  2 27 26  9 15  7
  15002866.593   -27781070.53849 -19305826.60949  15002869.2744   15002875.7484
  13553221.347   -49209843.62749 -38044181.50349  13553221.8594   13553228.6014
  14454174.462   -38966449.48849 -30345572.03249  14454175.8274   14454183.5814
  15160111.402   -45447105.52949 -35347084.24549  15160112.5174   15160118.4954
  15543282.723   -21040799.40049 -16358787.19149  15543284.1214   15543290.3774
  16455252.073   -32315880.92249 -24757795.46849  16455253.3944   16455260.4754
  12368166.246   -61699187.54149 -48047791.09049  12368166.6384   12368173.0964
 96  4 18 19 53 59.9730000  0  7  4  2 27 26  9 15  7
  14965866.935   -27975515.00849 -19457341.73449  14965867.4404   14965873.6274
  13539837.640   -49280180.04549 -38098989.10649  13539837.4954   13539843.8884
  14454564.577   -38964405.83549 -30343979.62849  14454565.6574   14454571.0884
  15148541.726   -45507907.22749 -35394462.22349  15148542.6484   15148548.7014
  15507230.243   -21230279.24949 -16506433.78749  15507227.4164   15507233.5344
  16450016.002   -32343403.22849 -24779241.44949  16450015.9104   16450022.3184
  12352713.139   -61780388.21649 -48111064.34649  12352714.8104   12352721.0234
 96  4 18 19 54 29.9730000  0  7  4  2 27 26  9 15  7
  14928898.266   -28169782.24749 -19608718.75349  14928899.8624   14928905.9864
  13526487.531   -49350325.25149 -38153647.72049  13526489.2054   13526495.4924
  14455010.482   -38962064.39549 -30342155.18149  14455009.8854   14455017.5774
  15137046.703   -45568305.74649 -35441526.01749  15137048.4684   15137054.8884
  15471204.163   -21419577.10449 -16653938.57149  15471205.3084   15471211.5464
  16444860.482   -32370484.34149 -24800343.67049  16444862.2214   16444868.3614
  12337336.338   -61861199.74849 -48174034.36949  12337336.7814   12337343.0664
 96  4 18 19 54 59.9730000  0  7  4  2 27 26  9 15  7
  14891964.729   -28363866.60049 -19759953.27349  14891965.7244   14891972.4404
  13513174.463   -49420296.95749 -38208171.14349  13513174.3064   13513180.2024
  14455510.098   -38959436.77349 -30340107.73749  14455511.2424   14455518.2964
  15125629.243   -45628308.89449 -35488281.74249  15125631.0314   15125636.8994
  15435218.910   -21608688.72249 -16801298.23849  15435218.8744   15435224.7454
  16439792.978   -32397125.26849 -24821102.87649  16439793.5444   16439800.5494
  12322031.207   -61941626.18849 -48236704.32349  12322032.1804   12322038.3824
 96  4 18 19 55 29.9730000  0  7  4  2 27 26  9 15  7
  14855069.918   -28557758.36349 -19911037.71449  14855069.9054   14855076.7074
  13499891.234   -49490090.74549 -38262555.91949  13499892.7634   13499898.9204
  14456065.678   -38956509.63849 -30337826.90649  14456067.5874   14456075.0984
  15114286.714   -45687915.69149 -35534728.60849  15114288.0044   15114294.2004
  15399268.703   -21797595.33149 -16948498.16149  15399270.7874   15399276.2114
  16434806.121   -32423320.77149 -24841514.91749  16434807.9334   16434814.7184
  12306801.480   -62021662.58449 -48299070.35349  12306802.1594   12306807.6984
 96  4 18 19 55 59.9730000  0  7  4  2 27 26  9 15  7
  14818206.392   -28751467.70949 -20061980.01949  14818208.9184   14818214.3684
  13486647.842   -49559699.18049 -38316796.27349  13486647.0114   13486653.2024
  14456680.270   -38953283.67749 -30335313.20949  14456681.1624   14456688.9324
  15103016.886   -45747147.31049 -35580883.13149  15103016.4494   15103022.8354
  15363356.458   -21986319.77749 -17095556.13349  15363357.7984   15363363.8034
  16429904.616   -32449081.68349 -24861588.41749  16429905.3554   16429913.1794
  12291645.091   -62101312.60149 -48361135.29449  12291645.1654   12291650.7624
 96  4 18 19 56 29.9730000  0  7  4  2 27 26  9 15  7
  14781378.936   -28945003.49549 -20212787.08449  14781379.9214   14781386.1324
  13473436.115   -49629120.85949 -38370891.09449  13473436.6274   13473442.4874
  14457349.622   -38949776.46349 -30332580.37649  14457349.4394   14457356.0794
  15091816.551   -45805997.18249 -35626740.20449  15091817.6774   15091823.9164
  15327473.457   -22174893.24849 -17242496.47049  15327473.6154   15327479.6234
  16425085.601   -32474412.99749 -24881327.10849  16425085.5374   16425092.8844
  12276560.424   -62180582.93549 -48422904.38549  12276560.6184   12276566.4774
 96  4 18 19 56 59.9730000  0  7  4  2 27 26  9 15  7
  14744584.735   -29138359.67549 -20363454.18949  14744585.3564   14744591.5534
  13460263.924   -49698344.08949 -38424831.28349  13460264.0244   13460269.7534
  14458070.549   -38945990.63849 -30329630.43149  14458069.2304   14458075.3334
  15080697.429   -45864447.26849 -35672285.75149  15080696.1654   15080701.9634
  15291622.362   -22363307.32549 -17389312.60449  15291619.6504   15291624.8904
  16420348.656   -32499305.56249 -24900723.94649  16420349.2944   16420356.0034
  12261550.266   -62259461.17049 -48484367.94349  12261550.4264   12261556.3444
 96  4 18 19 57 29.9730000  0  6  4  2 27 26  9  7
  14707827.874   -29331524.82349 -20513972.43349  14707827.3564   14707833.5264
  13447130.465   -49767359.61249 -38478609.62749  13447130.5814   13447136.1054
  14458845.254   -38941922.24149 -30326460.29949  14458844.4964   14458850.2404
  15069646.551   -45922510.45349 -35717529.81149  15069646.6354   15069652.8534
  15255801.888   -22551553.56049 -17535997.95349  15255797.5774   15255802.8414
  12246613.255   -62337955.08649 -48545532.03549  12246613.6384   12246619.5924
 96  4 18 19 57 59.9730000  0  6  4  2 27 26  9  7
  14671108.485   -29524482.83449 -20664329.28349  14671108.6834   14671114.6354
  13434034.524   -49836175.85549 -38532232.68349  13434035.1664   13434040.9924
  14459669.682   -38937574.58349 -30323072.56349  14459670.7294   14459677.7684
  15058671.906   -45980177.09749 -35762464.88349  15058672.9064   15058679.6904
  15220008.350   -22739623.88749 -17682546.22749  15220008.7924   15220014.3964
  12231747.422   -62416076.57149 -48606405.91749  12231747.7534   12231753.3664
 96  4 18 19 58 29.9730000  0  6  4  2 27 26  9  7
  14634431.711   -29717219.83449 -20814513.90949  14634431.7504   14634438.1684
  13420975.267   -49904805.57149 -38585710.39849  13420975.5604   13420981.2124
  14460551.595   -38932945.65749 -30319465.65949  14460552.3494   14460558.0964
  15047773.742   -46037439.54549 -35807085.00049  15047775.5864   15047782.4634
  15184259.675   -22927490.24049 -17828935.57649  15184259.8134   15184264.9964
  12216948.763   -62493836.65549 -48666998.18949  12216950.2824   12216955.9764
 96  4 18 19 58 59.9730000  0  6  4  2 27 26  9  7
  14597798.829   -29909723.85249 -20964516.99149  14597799.2734   14597805.6234
  13407949.022   -49973264.88849 -38639055.32449  13407948.2894   13407953.8684
  14461485.976   -38928022.19449 -30315629.23649  14461488.0994   14461495.4434
  15036953.870   -46094293.73849 -35851386.99149  15036957.4254   15036964.0534
  15148551.456   -23115131.75049 -17975149.72349  15148551.7884   15148557.2934
  12202219.826   -62571246.72149 -48727317.71949  12202219.3594   12202225.0244
 96  4 18 19 59 29.9730000  0  6  4  2 27 26  9  7
  14561212.279   -30101987.87849 -21114333.05849  14561212.6684   14561218.4354
  13394953.356   -50041551.82649 -38692265.92749  13394953.6834   13394959.1104
  14462486.431   -38922782.17049 -30311546.14649  14462487.0184   14462492.4624
  15026220.573   -46150716.98849 -35895353.17949  15026220.0484   15026227.0794
  15112888.942   -23302538.00249 -18121180.53949  15112889.7134   15112895.0004
  12187556.913   -62648308.90549 -48787366.17649  12187555.1954   12187560.8874
 96  4 18 19 59 59.9720000  0  6  4  2 27 26  9  7
  14524671.005   -30294013.35449 -21263963.26449  14524671.1314   14524677.0744
  13381993.604   -50109658.04549 -38745335.71049  13381993.1114   13381999.3574
  14463542.998   -38917219.84149 -30307211.91349  14463543.6784   14463550.9564
  15015565.378   -46206698.55049 -35938975.20849  15015566.8504   15015573.3514
  15077272.010   -23489708.08249 -18267027.32649  15077272.7374   15077278.1164
  12172958.611   -62725012.04249 -48847134.84949  12172959.2644   12172964.6604
 96  4 18 20  0 29.9720000  0  6  4  2 27 26  9  7
  14488165.705   -30485851.82349 -21413447.73149  14488165.8054   14488172.1594
  13369066.769   -50177589.63949 -38798269.43049  13369066.4784   13369072.3114
  14464661.805   -38911350.12449 -30302638.14849  14464662.4674   14464668.1804
  15004990.796   -46262270.42549 -35982277.99249  15004992.3024   15004998.2674
  15041690.959   -23676681.39649 -18412720.78649  15041691.7584   15041698.0784
  12158430.482   -62801363.03249 -48906629.12449  12158429.8284   12158435.4364
 96  4 18 20  0 59.9720000  0  6  4  2 27 26  9  7
  14451695.229   -30677503.17849 -21562786.40649  14451694.9994   14451701.4194
  13356174.637   -50245332.44749 -38851056.03149  13356175.1224   13356181.0414
  14465835.908   -38905178.32549 -30297829.00549  14465836.0394   14465842.3884
  14994495.891   -46317430.42949 -36025259.83349  14994495.7314   14994502.4634
  15006149.854   -23863458.41449 -18558261.30149  15006149.3974   15006155.5574
  12143971.371   -62877342.86549 -48965834.18849  12143971.7624   12143977.3544
 96  4 18 20  1 29.9720000  0  6  4  2 27 26  9  7
  14415260.990   -30868959.30449 -21711972.94549  14415262.8104   14415269.0034
  13343325.259   -50312859.05349 -38903674.16249  13343325.2024   13343331.5074
  14467063.860   -38898714.45649 -30292792.27149  14467066.9144   14467073.7234
  14984073.390   -46372189.47349 -36067929.24749  14984075.8334   14984081.5794
  14970646.400   -24050038.82849 -18703648.61049  14970644.1914   14970650.5174
  12129587.150   -62952936.11949 -49024738.02449  12129586.6964   12129592.5414
 96  4 18 20  1 59.9720000  0  6  4  2 27 26  9  7
  14378865.375   -31060222.17149 -21861008.89249  14378867.0384   14378872.8474
  13330515.766   -50380172.56149 -38956126.25549  13330516.0064   13330522.3484
  14468344.136   -38891991.61149 -30287553.72349  14468345.4064   14468352.1044
  14973724.137   -46426584.61049 -36110315.08949  14973724.7804   14973730.9294
  14935174.871   -24236432.04149 -18848890.03649  14935174.8484   14935180.8514
  12115274.898   -63028141.00949 -49083339.23849  12115275.5674   12115281.4174
 96  4 18 20  2 29.9720000  0  6  4  2 27 26  9  7
  14342506.944   -31251276.58149 -22009882.42449  14342509.9374   14342516.5604
  13317747.246   -50447273.38649 -39008412.62049  13317747.2944   13317753.1884
  14469674.224   -38885019.75249 -30282121.18349  14469673.5124   14469678.3504
  14963445.289   -46480597.94449 -36152403.43249  14963445.5634   14963452.6844
  14899747.345   -24422615.63049 -18993968.13349  14899745.7684   14899751.6104
  12101038.483   -63102949.20649 -49141631.34149  12101040.0284   12101045.8494
 96  4 18 20  2 59.9720000  0  6  4  2 27 26  9  7
  14306194.810   -31442120.59149 -22158591.97749  14306194.5684   14306200.0334
  13305013.256   -50514191.28649 -39060556.45149  13305013.1874   13305019.1694
  14471037.074   -38877845.11849 -30276530.61149  14471037.4064   14471045.0614
  14953237.651   -46534247.87249 -36194208.59749  14953236.2034   14953242.3744
  14864352.584   -24608617.38449 -19138904.54049  14864350.7444   14864357.3024
  12086872.718   -63177396.73649 -49199642.40549  12086873.2044   12086878.9574
 96  4 18 20  3 29.9720000  0  6  4  2 27 26  9  7
  14269924.450   -31632706.37349 -22307100.32449  14269926.3264   14269932.1804
  13292320.190   -50580897.60849 -39112535.40749  13292319.5444   13292325.4854
  14472447.732   -38870441.96749 -30270761.96649  14472446.6114   14472453.6614
  14943093.139   -46587519.24549 -36235718.77849  14943100.1104   14943105.5554
  14828995.004   -24794406.13549 -19283674.96649  14828996.0344   14829002.8524
  12072777.307   -63251469.45849 -49257361.40449  12072777.6854   12072783.6314
 96  4 18 20  3 59.9720000  0  6  4  2 27 26  9  7
  14233701.596   -31823066.16049 -22455432.57749  14233701.9294   14233708.1724
  13279656.104   -50647439.83949 -39164386.50349  13279656.8614   13279662.7534
  14473895.289   -38862827.41849 -30264828.61449  14473895.9654   14473901.9404
  14933028.640   -46640445.38649 -36276959.96149  14933028.4704   14933035.1014
  14793676.916   -24980011.54349 -19428302.53149  14793676.5054   14793682.4254
  12058744.512   -63325210.45049 -49314821.92149  12058745.1694   12058751.1364
 96  4 18 20  4 29.9720000  0  6  4  2 27 26  9  7
  14197525.991   -32013161.12549 -22603558.46649  14197527.6974   14197534.2654
  13267027.288   -50713806.53049 -39216100.82149  13267027.3414   13267033.7844
  14475393.686   -38854962.94349 -30258700.49549  14475393.1354   14475399.2294
  14923025.841   -46693003.17549 -36317914.10549  14923026.7334   14923032.4784
  14758398.528   -25165409.49449 -19572768.45349  14758396.4544   14758402.6674
  12044775.443   -63398612.06749 -49372017.98649  12044777.2194   12044783.0214
 96  4 18 20  4 59.9720000  0  6  4  2 27 26  9  7
  14161403.019   -32202980.80749 -22751469.85949  14161406.6194   14161412.5854
  13254429.767   -50780006.68149 -39267685.36949  13254430.4164   13254436.7964
  14476934.886   -38846843.17149 -30252373.44649  14476936.9584   14476943.9564
  14913091.046   -46745217.20949 -36358600.38649  14913090.0584   14913097.5714
  14723151.667   -25350612.74049 -19717082.64249  14723153.5924   14723159.3204
  12030870.206   -63471690.78049 -49428962.43849  12030870.6034   12030876.5114
 96  4 18 20  5 29.9720000  0  6  4  2 27 26  9  7
  14125337.365   -32392524.65249 -22899166.31049  14125337.3664   14125343.4034
  13241864.547   -50846036.65649 -39319137.30449  13241865.1684   13241871.3634
  14478538.504   -38838435.49749 -30245822.07149  14478537.9804   14478544.4794
  14903223.320   -46797082.66749 -36399015.05849  14903221.3064   14903227.0944
  14687956.668   -25535584.20949 -19861216.24849  14687955.0654   14687960.8944
  12017027.122   -63544436.90349 -49485647.73249  12017027.6454   12017033.4204
 96  4 18 20  5 59.9720000  0  6  4  2 27 26  9  7
  14089318.179   -32581790.35649 -23046646.04649  14089321.2244   14089327.7164
  13229333.930   -50911885.92749 -39370448.43249  13229334.5834   13229340.2344
  14480191.564   -38829727.86849 -30239036.94949  14480194.0814   14480200.9664
  14893421.589   -46848572.20549 -36439136.80649  14893423.0164   14893429.2804
  14652806.735   -25720303.38349 -20005153.26049  14652803.6374   14652809.2784
  12003249.509   -63616838.59549 -49542064.63449  12003249.9714   12003255.9494
 96  4 18 20  6 29.9720000  0  6  4  2 27 26  9  7
  14053355.499   -32770781.96749 -23193912.19149  14053357.1634   14053363.8014
  13216838.627   -50977549.47749 -39421614.84749  13216838.9864   13216845.1844
  14481903.640   -38820747.69149 -30232039.45249  14481903.1924   14481911.4154
  14883696.285   -46899688.10549 -36478967.39549  14883695.8264   14883702.6074
  14617698.039   -25904769.64649 -20148893.18549  14617700.9114   14617706.9384
  11989538.223   -63688892.38749 -49598210.44649  11989538.6844   11989544.6204
